[[{"header":{"parameterUnit":"m.s-1","parameterCategory":1,"la1":31.0,"la2":29.5877,"lo1":-88.7671,"lo2":-86.6584,"dy":0.0162,"dx":0.0185,"nx":115,"ny":88,"refTime":"2024-08-16T00:00:00:Z","depth":0,"parameterNumber":2,"parameterNumberName":"U-component_of_WINDS"},"data":[0.0,0.0,0.0,0.0,0.0,0.0,0.0,0.0,0.0,0.0,0.0,0.0,0.0,0.0,0.0,0.0,0.0,0.0,0.0,0.0,0.0,0.0,0.0,0.0,0.0,0.0,0.0,0.0,0.0,0.0,0.0,0.0,0.0,0.0,0.0,0.0,0.0,0.0,0.0,0.0,0.0,0.0,0.0,0.0,0.0,0.0,0.0,0.0,0.0,0.0,0.0,0.0,0.0,0.0,0.0,0.0,0.0,0.0,0.0,0.0,0.0,0.0,0.0,0.0,0.0,0.0,0.0,0.0,0.0,0.0,0.0,0.0,0.0,0.0,0.0,0.0,0.0,0.0,0.0,0.0,0.0,0.0,0.0,0.0,0.0,0.0,0.0,0.0,0.0,0.0,0.0,0.0,0.0,0.0,0.0,0.0,0.0,0.0,0.0,0.0,0.0,0.0,0.0,0.0,0.0,0.0,0.0,0.0,0.0,0.0,0.0,0.0,0.0,0.0,0.0,0.0,0.0,0.0,0.0,0.0,0.0,0.0,0.0,0.0,0.0,0.0,0.0,0.0,0.0,0.0,0.0,0.0,0.0,0.0,0.0,0.0,0.0,0.0,0.0,0.0,0.0,0.0,0.0,0.0,0.0,0.0,0.0,0.0,0.0,0.0,0.0,0.0,0.0,0.0,0.0,0.0,0.0,0.0,0.0,0.0,0.0,0.0,0.0,0.0,0.0,0.0,0.0,0.0,0.0,0.0,0.0,0.0,0.0,0.0,0.0,0.0,0.0,0.0,0.0,0.0,0.0,0.0,0.0,0.0,0.0,0.0,0.0,0.0,0.0,0.0,0.0,0.0,0.0,0.0,0.0,0.0,0.0,0.0,0.0,0.0,0.0,0.0,0.0,0.0,0.0,0.0,0.0,0.0,0.0,0.0,0.0,0.0,0.0,0.0,0.0,0.0,0.0,0.0,0.0,0.0,0.0,0.0,0.0,0.0,0.0,0.0,0.0,0.0,0.0,0.0,0.0,0.0,0.0,0.0,0.0,0.0,0.0,0.0,0.0,0.0,0.0,0.0,0.0,0.0,0.0,0.0,0.0,0.0,0.0,0.0,0.0,0.0,0.0,0.0,0.0,0.0,0.0,0.0,0.0,0.0,0.0,0.0,0.0,0.0,0.0,0.0,0.0,0.0,0.0,0.0,0.0,0.0,0.0,0.0,0.0,0.0,0.0,0.0,0.0,0.0,0.0,0.0,0.0,0.0,0.0,0.0,0.0,0.0,0.0,0.0,0.0,0.0,0.0,0.0,0.0,0.0,0.0,0.0,0.0,0.0,0.0,0.0,0.0,0.0,0.0,0.0,0.0,0.0,0.0,0.0,0.0,0.0,0.0,0.0,0.0,0.0,0.0,0.0,0.0,0.0,0.0,0.0,0.0,0.0,0.0,0.0,0.0,0.0,0.0,0.0,0.0,0.0,0.0,0.0,0.0,0.0,0.0,0.0,0.0,0.0,0.0,0.0,0.0,0.0,0.0,0.0,0.0,0.0,0.0,0.0,0.0,0.0,0.0,0.0,0.0,0.0,0.0,0.0,0.0,0.0,0.0,0.0,0.0,0.0,0.0,0.0,0.0,0.0,0.0,0.0,0.0,0.0,0.0,0.0,0.0,0.0,0.0,0.0,0.0,0.0,0.0,0.0,0.0,0.0,0.0,0.0,0.0,0.0,0.0,0.0,0.0,0.0,0.0,0.0,0.0,0.0,0.0,0.0,0.0,0.0,0.0,0.0,0.0,0.0,0.0,0.0,0.0,0.0,0.0,0.0,0.0,0.0,0.0,0.0,0.0,0.0,0.0,0.0,0.0,0.0,0.0,0.0,0.0,0.0,0.0,0.0,0.0,0.0,0.0,0.0,0.0,0.0,0.0,0.0,0.0,0.0,0.0,0.0,0.0,0.0,0.0,0.0,0.0,0.0,0.0,0.0,0.0,0.0,0.0,0.0,0.0,0.0,0.0,0.0,0.0,0.0,0.0,0.0,0.0,0.0,0.0,0.0,0.0,0.0,0.0,0.0,0.0,0.0,0.0,0.0,0.0,0.0,0.0,0.0,0.0,0.0,0.0,0.0,0.0,0.0,0.0,0.0,0.0,0.0,0.0,0.0,0.0,0.0,0.0,0.0,0.0,0.0,0.0,0.0,0.0,0.0,0.0,0.0,0.0,0.0,0.0,0.0,0.0,0.0,0.0,0.0,0.0,0.0,0.0,0.0,0.0,0.0,0.0,0.0,0.0,0.0,0.0,0.0,0.0,0.0,0.0,0.0,0.0,0.0,0.0,0.0,0.0,0.0,0.0,0.0,0.0,0.0,0.0,0.0,0.0,0.0,0.0,0.0,0.0,0.0,0.0,0.0,0.0,0.0,0.0,0.0,0.0,0.0,0.0,0.0,0.0,0.0,0.0,0.0,0.0,0.0,0.0,0.0,0.0,0.0,0.0,0.0,0.0,0.0,0.0,0.0,0.0,0.0,0.0,0.0,0.0,0.0,0.0,0.0,0.0,0.0,0.0,0.0,0.0,0.0,0.0,0.0,0.0,0.0,0.0,0.0,0.0,0.0,0.0,0.0,0.0,0.0,0.0,0.0,0.0,0.0,0.0,0.0,0.0,0.0,0.0,0.0,0.0,0.0,0.0,0.0,0.0,0.0,0.0,0.0,0.0,0.0,0.0,0.0,0.0,0.0,0.0,0.0,0.0,0.0,0.0,0.0,0.0,0.0,0.0,0.0,0.0,0.0,0.0,0.0,0.0,0.0,0.0,0.0,0.0,0.0,0.0,0.0,0.0,0.0,0.0,0.0,0.0,0.0,0.0,0.0,0.0,0.0,0.0,0.0,0.0,0.0,0.0,0.0,0.0,0.0,0.0,0.0,0.0,0.0,0.0,0.0,0.0,0.0,0.0,0.0,0.0,0.0,0.0,0.0,0.0,0.0,0.0,0.0,0.0,0.0,0.0,0.0,0.0,0.0,0.0,0.0,0.0,0.0,0.0,0.0,0.0,0.0,0.0,0.0,0.0,0.0,0.0,0.0,0.0,0.0,0.0,0.0,0.0,0.0,0.0,0.0,0.0,0.0,0.0,0.0,0.0,0.0,0.0,0.0,0.0,0.0,0.0,0.0,0.0,0.0,0.0,0.0,0.0,0.0,0.0,0.0,0.0,0.0,0.0,0.0,0.0,0.0,0.0,0.0,0.0,0.0,0.0,0.0,0.0,0.0,0.0,0.0,0.0,0.0,0.0,0.0,0.0,0.0,0.0,0.0,0.0,0.0,0.0,0.0,0.0,0.0,0.0,0.0,0.0,0.0,0.0,0.0,0.0,0.0,0.0,0.0,0.0,0.0,0.0,0.0,0.0,0.0,0.0,0.0,0.0,0.0,0.0,0.0,0.0,0.0,0.0,0.0,0.0,0.0,0.0,0.0,0.0,0.0,0.0,0.0,0.0,0.0,0.0,0.0,0.0,0.0,0.0,0.0,0.0,0.0,0.0,0.0,0.0,0.0,0.0,0.0,0.0,0.0,0.0,0.0,0.0,0.0,0.0,0.0,0.0,0.0,0.0,0.0,0.0,0.0,0.0,0.0,0.0,0.0,0.0,0.0,0.0,0.0,0.0,0.0,0.0,0.0,0.0,0.0,0.0,0.0,0.0,0.0,0.0,0.0,0.0,0.0,0.0,0.0,0.0,0.0,0.0,0.0,0.0,0.0,0.0,0.0,0.0,0.0,0.0,0.0,0.0,0.0,0.0,0.0,0.0,0.0,0.0,0.0,0.0,0.0,0.0,0.0,0.0,0.0,0.0,0.0,0.0,0.0,0.0,0.0,0.0,0.0,0.0,0.0,0.0,0.0,0.0,0.0,0.0,0.0,0.0,0.0,0.0,0.0,0.0,0.0,0.0,0.0,0.0,0.0,0.0,0.0,0.0,0.0,0.0,0.0,0.0,0.0,0.0,0.0,0.0,0.0,0.0,0.0,0.0,0.0,0.0,0.0,0.0,0.0,0.0,0.0,0.0,0.0,0.0,0.0,0.0,0.0,0.0,0.0,0.0,0.0,0.0,0.0,0.0,0.0,0.0,0.0,0.0,0.0,0.0,0.0,0.0,0.0,0.0,0.0,0.0,0.0,0.0,0.0,0.0,0.0,0.0,0.0,0.0,0.0,0.0,0.0,0.0,0.0,0.0,0.0,0.0,0.0,0.0,0.0,0.0,0.0,0.0,0.0,0.0,0.0,0.0,0.0,-0.2346,0.0,0.0,0.0,0.0,0.0,0.0,0.0,0.0,0.0,0.0,0.0,0.0,0.0,0.0,0.0,0.0,0.0,0.0,0.0,0.0,0.0,0.0,0.0,0.0,0.0,0.0,0.0,0.0,0.0,0.0,0.0,0.0,0.0,0.0,0.0,0.0,0.0,0.0,0.0,0.0,0.0,0.0,0.0,0.0,0.0,0.0,0.0,0.0,0.0,0.0,0.0,0.0,0.0,0.0,0.0,0.0,0.0,0.0,0.0,0.0,0.0,0.0,0.0,0.0,0.0,0.0,0.0,0.0,0.0,0.0,0.0,0.0,0.0,0.0,0.0,0.0,0.0,0.0,0.0,0.0,0.0,0.0,0.0,0.0,0.0,0.0,0.0,0.0,0.0,0.0,0.0,0.0,0.0,0.0,0.0,0.0,0.0,0.0,0.0,0.0,0.0,0.0,0.0,0.0,0.0,0.0,0.0,0.0,0.0,0.0,-0.1405,-0.1634,-0.1759,-0.1941,-0.2131,0.0,0.0,0.0,0.0,0.0,0.0,0.0,0.0,0.0,0.0,0.0,0.0,0.0,0.0,0.0,0.0,0.0,0.0,0.0,0.0,0.0,0.0,0.0,0.0,0.0,0.0,0.0,0.0,0.0,0.0,0.0,0.0,0.0,0.0,0.0,0.0,0.0,0.0,0.0,0.0,0.0,0.0,0.0,0.0,0.0,0.0,0.0,0.0,0.0,0.0,0.0,0.0,0.0,0.0,0.0,0.0,0.0,0.0,0.0,0.0,0.0,0.0,0.0,0.0,0.0,0.0,0.0,0.0,0.0,0.0,0.0,0.0,0.0,0.0,0.0,0.0,0.0,0.0,0.0,0.0,0.0,0.0,0.0,0.0,0.0,0.0,0.0,0.0,0.0,0.0,0.0,0.0,0.0,0.0,0.0,0.0,0.0,0.0,0.0,0.0,0.0,0.0,0.0,0.0,0.0,0.0,0.0,0.0,0.0,0.0,0.0,0.0,-0.1744,-0.1926,-0.2184,0.0,0.0,0.0,0.0,0.0,0.0,0.0,0.0,0.0,0.0,0.0,0.0,0.0,0.0,0.0,0.0,0.0,0.0,0.0,0.0,0.0,0.0,0.0,0.0,0.0,0.0,0.0,0.0,0.0,0.0,0.0,0.0,0.0,0.0,0.0,0.0,0.0,0.0,0.0,0.0,0.0,0.0,0.0,0.0,0.0,0.0,0.0,0.0,0.0,0.0,0.0,0.0,0.0,0.0,0.0,0.0,0.0,0.0,0.0,0.0,0.0,0.0,0.0,0.0,0.0,0.0,0.0,0.0,0.0,0.0,0.0,0.0,0.0,0.0,0.0,0.0,0.0,0.0,0.0,0.0,0.0,0.0,0.0,0.0,0.0,0.0,0.0,0.0,0.0,0.0,0.0,0.0,0.0,0.0,0.0,0.0,0.0,0.0,0.0,0.0,0.0,0.0,0.0,0.0,0.0,0.0,0.0,0.0,0.0,0.0,-0.1506,-0.1937,-0.2093,0.0,-0.2703,0.0,0.0,0.0,0.0,0.0,0.0,0.0,0.0,0.0,0.0,0.0,0.0,0.0,0.0,0.0,0.0,0.0,0.0,0.0,0.0,0.0,0.0,0.0,0.0,0.0,0.0,0.0,0.0,0.0,0.0,0.0,0.0,0.0,0.0,0.0,0.0,0.0,0.0,0.0,0.0,0.0,0.0,0.0,0.0,0.0,0.0,0.0,0.0,0.0,0.0,0.0,0.0,0.0,0.0,0.0,0.0,0.0,0.0,0.0,0.0,0.0,0.0,0.0,0.0,0.0,0.0,0.0,0.0,0.0,0.0,0.0,0.0,0.0,0.0,0.0,0.0,0.0,0.0,0.0,0.0,0.0,0.0,0.0,0.0,0.0,0.0,0.0,0.0,0.0,0.0,0.0,0.0,0.0,0.0,0.0,0.0,0.0,0.0,0.0,0.0,0.0,0.0,0.0,0.0,0.0,0.0,0.0,0.0,0.0,0.0,0.0,-0.1569,-0.1827,-0.2152,0.0,0.0,0.0,0.0,0.0,0.0,0.0,0.0,0.0,0.0,0.0,0.0,0.0,0.0,0.0,0.0,0.0,0.0,0.0,0.0,0.0,0.0,0.0,0.0,0.0,0.0,0.0,0.0,0.0,0.0,0.0,0.0,0.0,0.0,0.0,0.0,0.0,0.0,0.0,0.0,0.0,0.0,0.0,0.0,0.0,0.0,0.0,0.0,0.0,0.0,0.0,0.0,0.0,0.0,0.0,0.0,0.0,0.0,0.0,0.0,0.0,0.0,0.0,0.0,0.0,0.0,0.0,0.0,0.0,0.0,0.0,0.0,0.0,0.0,0.0,0.0,0.0,0.0,0.0,0.0,0.0,0.0,0.0,0.0,0.0,0.0,0.0,0.0,0.0,0.0,0.0,0.0,0.0,0.0,0.0,0.0,0.0,0.0,0.0,0.0,0.0,0.0,0.0,0.0,0.0,0.0,0.0,0.0,0.0,0.0,-0.0936,0.0,-0.1346,-0.1713,-0.2065,-0.2398,0.0,0.0,0.0,0.0,0.0,0.0,0.0,0.0,0.0,0.0,0.0,0.0,0.0,0.0,0.0,0.0,0.0,0.0,0.0,0.0,0.0,0.0,0.0,0.0,0.0,0.0,0.0,0.0,0.0,0.0,0.0,0.0,0.0,0.0,0.0,0.0,0.0,0.0,0.0,0.0,0.0,0.0,0.0,0.0,0.0,0.0,0.0,0.0,0.0,0.0,0.0,0.0,0.0,0.0,0.0,0.0,0.0,0.0,0.0,0.0,0.0,0.0,0.0,0.0,0.0,0.0,0.0,0.0,0.0,0.0,0.0,0.0,0.0,0.0,0.0,0.0,0.0,0.0,0.0,0.0,0.0,0.0,0.0,0.0,0.0,0.0,0.0,0.0,0.0,0.0,0.0,0.0,0.0,0.0,0.0,0.0,0.0,0.0,0.0,0.0,0.0,0.0,0.0,0.0,0.0,0.0,0.0,0.0,0.0,-0.1035,-0.1086,-0.1487,-0.1944,-0.2239,0.0,0.0,0.0,0.0,0.0,0.0,0.0,0.0,0.0,0.0,0.0,0.0,0.0,0.0,0.0,0.0,0.0,0.0,0.0,0.0,0.0,0.0,0.0,0.0,0.0,0.0,0.0,0.0,0.0,0.0,0.0,0.0,0.0,0.0,0.0,0.0,0.0,0.0,0.0,0.0,0.0,0.0,0.0,0.0,0.0,0.0,0.0,0.0,0.0,0.0,0.0,0.0,0.0,0.0,0.0,0.0,0.0,0.0,0.0,0.0,0.0,0.0,0.0,0.0,0.0,0.0,0.0,0.0,0.0,0.0,0.0,0.0,0.0,0.0,0.0,0.0,0.0,0.0,0.0,0.0,0.0,0.0,0.0,0.0,0.0,0.0,0.0,0.0,0.0,0.0,0.0,0.0,0.0,0.0,0.0,0.0,0.0,0.0,0.0,0.0,0.0,0.0,0.0,0.0,0.0,0.0,0.0,0.0,0.0,-0.1285,-0.1208,-0.1368,0.0,-0.1907,-0.2138,0.0,0.0,0.0,0.0,0.0,0.0,0.0,0.0,0.0,0.0,0.0,0.0,0.0,0.0,0.0,0.0,0.0,0.0,0.0,0.0,0.0,0.0,0.0,0.0,0.0,0.0,0.0,0.0,0.0,0.0,0.0,0.0,0.0,0.0,0.0,0.0,0.0,0.0,0.0,0.0,0.0,0.0,0.0,0.0,0.0,0.0,0.0,0.0,0.0,0.0,0.0,0.0,0.0,0.0,0.0,0.0,0.0,0.0,0.0,0.0,0.0,0.0,0.0,0.0,0.0,0.0,0.0,0.0,0.0,0.0,0.0,0.0,0.0,0.0,0.0,0.0,0.0,0.0,0.0,0.0,0.0,0.0,0.0,0.0,0.0,0.0,0.0,0.0,0.0,0.0,0.0,0.0,0.0,0.0,0.0,0.0,0.0,0.0,0.0,0.0,0.0,0.0,0.0,0.0,0.0,0.0,0.0,0.0,0.0,-0.1732,0.0,-0.1991,0.0,-0.2304,-0.2345,0.0,0.0,0.0,0.0,0.0,0.0,0.0,0.0,0.0,0.0,0.0,0.0,0.0,0.0,0.0,0.0,0.0,0.0,0.0,0.0,0.0,0.0,0.0,0.0,0.0,0.0,0.0,0.0,0.0,0.0,0.0,0.0,0.0,0.0,0.0,0.0,0.0,0.0,0.0,0.0,0.0,0.0,0.0,0.0,0.0,0.0,0.0,0.0,0.0,0.0,0.0,0.0,0.0,0.0,0.0,0.0,0.0,0.0,0.0,0.0,0.0,0.0,0.0,0.0,0.0,0.0,0.0,0.0,0.0,0.0,0.0,0.0,0.0,0.0,0.0,0.0,0.0,0.0,0.0,0.0,0.0,0.0,0.0,0.0,0.0,0.0,0.0,0.0,0.0,0.0,0.0,0.0,0.0,0.0,0.0,0.0,0.0,0.0,0.0,0.0,0.0,0.0,0.0,0.0,0.0,0.0,0.0,0.0,-0.2203,-0.2671,-0.2964,-0.2993,-0.2756,-0.3141,-0.2955,0.0,0.0,0.0,0.0,0.0,0.0,0.0,0.0,0.0,0.0,0.0,0.0,0.0,0.0,0.0,0.0,0.0,0.0,0.0,0.0,0.0,0.0,0.0,0.0,0.0,0.0,0.0,0.0,0.0,0.0,0.0,0.0,0.0,0.0,0.0,0.0,0.0,0.0,0.0,0.0,0.0,0.0,0.0,0.0,0.0,0.0,0.0,0.0,0.0,0.0,0.0,0.0,0.0,0.0,0.0,0.0,0.0,0.0,0.0,0.0,0.0,0.0,0.0,0.0,0.0,0.0,0.0,0.0,0.0,0.0,0.0,0.0,0.0,0.0,0.0,0.0,0.0,0.0,0.0,0.0,0.0,0.0,0.0,0.0,0.0,0.0,0.0,0.0,0.0,0.0,0.0,0.0,0.0,0.0,0.0,0.0,0.0,0.0,0.0,0.0,0.0,0.0,0.0,0.0,0.0,0.0,0.0,0.0,0.0,-0.3225,-0.3759,-0.4136,-0.4246,-0.3618,-0.3265,0.0,0.0,0.0,0.0,0.0,0.0,0.0,0.0,0.0,0.0,0.0,0.0,0.0,0.0,0.0,0.0,0.0,0.0,0.0,0.0,0.0,0.0,0.0,0.0,0.0,0.0,0.0,0.0,0.0,0.0,0.0,0.0,0.0,0.0,0.0,0.0,0.0,0.0,0.0,0.0,0.0,0.0,0.0,0.0,0.0,0.0,0.0,0.0,0.0,0.0,0.0,0.0,0.0,0.0,0.0,0.0,0.0,0.0,0.0,0.0,0.0,0.0,0.0,0.0,0.0,0.0,0.0,0.0,0.0,0.0,0.0,0.0,0.0,0.0,0.0,0.0,0.0,0.0,0.0,0.0,0.0,0.0,0.0,0.0,0.0,0.0,0.0,0.0,0.0,0.0,0.0,0.0,0.0,0.0,0.0,0.0,0.0,0.0,0.0,0.0,0.0,0.0,0.0,0.0,0.0,0.0,0.0,0.0,0.0,-0.5268,-0.5555,-0.572,-0.57,-0.4782,-0.4127,-0.3779,0.0,0.0,0.0,0.0,0.0,0.0,0.0,0.0,0.0,0.0,0.0,0.0,0.0,0.0,0.0,0.0,0.0,0.0,0.0,0.0,0.0,0.0,0.0,0.0,0.0,0.0,0.0,0.0,0.0,0.0,0.0,0.0,0.0,0.0,0.0,0.0,0.0,0.0,0.0,0.0,0.0,0.0,0.0,0.0,0.0,0.0,0.0,0.0,0.0,0.0,0.0,0.0,0.0,0.0,0.0,0.0,0.0,0.0,0.0,0.0,0.0,0.0,0.0,0.0,0.0,0.0,0.0,0.0,0.0,0.0,0.0,0.0,0.0,0.0,0.0,0.0,0.0,0.0,0.0,0.0,0.0,0.0,0.0,0.0,0.0,0.0,0.0,0.0,0.0,0.0,0.0,0.0,0.0,0.0,0.0,0.0,0.0,0.0,0.0,0.0,0.0,0.0,0.0,0.0,0.0,0.0,0.0,0.0,-0.8351,-0.8103,-0.7632,-0.699,-0.6404,-0.5358,0.0,0.0,0.0,0.0,0.0,0.0,0.0,0.0,0.0,0.0,0.0,0.0,0.0,0.0,0.0,0.0,0.0,0.0,0.0,0.0,0.0,0.0,0.0,0.0,0.0,0.0,0.0,0.0,0.0,0.0,0.0,0.0,0.0,0.0,0.0,0.0,0.0,0.0,0.0,0.0,0.0,0.0,0.0,0.0,0.0,0.0,0.0,0.0,0.0,0.0,0.0,0.0,0.0,0.0,0.0,0.0,0.0,0.0,0.0,0.0,0.0,0.0,0.0,0.0,0.0,0.0,0.0,0.0,0.0,0.0,0.0,0.0,0.0,0.0,0.0,0.0,0.0,0.0,0.0,0.0,0.0,0.0,0.0,0.0,0.0,0.0,0.0,0.0,0.0,0.0,0.0,0.0,0.0,0.0,0.0,0.0,0.0,0.0,0.0,0.0,0.0,0.0,0.0,0.0,0.0,0.0,0.0,0.0,0.0,-0.9033,-0.9623,-0.9351,-0.8109,-0.6995,-0.5821,0.0,0.0,0.0,0.0,0.0,0.0,0.0,0.0,0.0,0.0,0.0,0.0,0.0,0.0,0.0,0.0,0.0,0.0,0.0,0.0,0.0,0.0,0.0,0.0,0.0,0.0,0.0,0.0,0.0,0.0,0.0,0.0,0.0,0.0,0.0,0.0,0.0,0.0,0.0,0.0,0.0,0.0,0.0,0.0,0.0,0.0,0.0,0.0,0.0,0.0,0.0,0.0,0.0,0.0,0.0,0.0,0.0,0.0,0.0,0.0,0.0,0.0,0.0,0.0,0.0,0.0,0.0,0.0,0.0,0.0,0.0,0.0,0.0,0.0,0.0,0.0,0.0,0.0,0.0,0.0,0.0,0.0,0.0,0.0,0.0,0.0,0.0,0.0,0.0,0.0,0.0,0.0,0.0,0.0,0.0,0.0,0.0,0.0,0.0,0.0,0.0,0.0,0.0,0.0,0.0,0.0,0.0,0.0,-0.9389,-0.9831,-1.0678,-1.0479,-0.9187,-0.8032,-0.6806,0.0,0.0,0.0,0.0,0.0,0.0,0.0,0.0,0.0,0.0,0.0,0.0,0.0,0.0,0.0,0.0,0.0,0.0,0.0,0.0,0.0,0.0,0.0,0.0,0.0,0.0,0.0,0.0,0.0,0.0,0.0,0.0,0.0,0.0,0.0,0.0,0.0,0.0,0.0,0.0,0.0,0.0,0.0,0.0,0.0,0.0,0.0,0.0,0.0,0.0,0.0,0.0,0.0,0.0,0.0,0.0,0.0,0.0,0.0,0.0,0.0,0.0,0.0,0.0,0.0,0.0,0.0,0.0,0.0,0.0,0.0,0.0,0.0,0.0,0.0,0.0,0.0,0.0,0.0,0.0,0.0,0.0,0.0,0.0,0.0,0.0,0.0,0.0,0.0,0.0,0.0,0.0,0.0,0.0,0.0,0.0,0.0,0.0,0.0,0.0,0.0,0.0,0.0,0.0,0.0,0.0,0.0,0.0,-1.0134,-1.0573,-1.1318,-1.1187,-1.0123,-0.914,-0.7851,0.0,0.0,0.0,0.0,0.0,0.0,0.0,0.0,0.0,0.0,0.0,0.0,0.0,0.0,0.0,0.0,0.0,0.0,0.0,0.0,0.0,0.0,0.0,0.0,0.0,0.0,0.0,0.0,0.0,0.0,0.0,0.0,0.0,0.0,0.0,0.0,0.0,0.0,0.0,0.0,0.0,0.0,0.0,0.0,0.0,0.0,0.0,0.0,0.0,0.0,0.0,0.0,0.0,0.0,0.0,0.0,0.0,0.0,0.0,0.0,0.0,0.0,0.0,0.0,0.0,0.0,0.0,0.0,0.0,0.0,0.0,0.0,0.0,0.0,0.0,0.0,0.0,0.0,0.0,0.0,0.0,0.0,0.0,0.0,0.0,0.0,0.0,0.0,0.0,0.0,0.0,0.0,0.0,0.0,0.0,0.0,0.0,0.0,0.0,0.0,0.0,0.0,0.0,0.0,0.0,0.0,0.0,0.0,-1.0727,-1.0535,-1.1295,-1.137,-1.0738,-0.9042,-0.7426,0.0,0.0,0.0,0.0,0.0,0.0,0.0,0.0,0.0,0.0,0.0,0.0,0.0,0.0,0.0,0.0,0.0,0.0,0.0,0.0,0.0,0.0,0.0,0.0,0.0,0.0,0.0,0.0,0.0,0.0,0.0,0.0,0.0,0.0,0.0,0.0,0.0,0.0,0.0,0.0,0.0,0.0,0.0,0.0,0.0,0.0,0.0,0.0,-0.3435,0.0,0.0,0.0,0.0,0.0,0.0,0.0,0.0,0.0,0.0,0.0,0.0,0.0,0.0,0.0,0.0,0.0,0.0,0.0,0.0,0.0,0.0,0.0,0.0,0.0,0.0,0.0,0.0,0.0,0.0,0.0,0.0,0.0,0.0,0.0,0.0,0.0,0.0,0.0,0.0,0.0,0.0,0.0,0.0,0.0,0.0,0.0,0.0,0.0,0.0,0.0,0.0,0.0,0.0,0.0,0.0,0.0,0.0,0.0,-1.0924,-1.0958,-1.1196,-1.1193,-1.0857,-0.9074,-0.7541,0.0,0.0,0.0,0.0,0.0,0.0,0.0,0.0,0.0,0.0,0.0,0.0,0.0,0.0,0.0,0.0,0.0,0.0,0.0,0.0,0.0,0.0,0.0,0.0,0.0,0.0,0.0,0.0,0.0,0.0,0.0,0.0,0.0,0.0,0.0,0.0,0.0,0.0,0.0,0.0,0.0,0.0,0.0,0.0,0.0,0.0,0.0,0.0,0.0,0.0,0.0,0.0,0.0,0.0,0.0,0.0,0.0,0.0,0.0,0.0,0.0,0.0,0.0,0.0,0.0,0.0,0.0,0.0,0.0,0.0,0.0,0.0,0.0,0.0,0.0,0.0,0.0,0.0,0.0,0.0,0.0,0.0,0.0,0.0,0.0,0.0,0.0,0.0,0.0,0.0,0.0,0.0,0.0,0.0,0.0,0.0,0.0,0.0,0.0,0.0,0.0,0.0,0.0,0.0,0.0,0.0,0.0,-1.0185,-1.1009,-1.1614,-1.1154,-1.0897,-1.0859,-0.9145,-0.7829,-0.7051,0.0,0.0,0.0,0.0,0.0,0.0,0.0,0.0,0.0,0.0,0.0,0.0,0.0,0.0,0.0,0.0,0.0,0.0,0.0,0.0,0.0,0.0,0.0,0.0,0.0,0.0,0.0,0.0,0.0,0.0,0.0,0.0,0.0,0.0,0.0,0.0,0.0,0.0,-0.3531,-0.3872,0.0,0.0,0.0,0.0,0.0,0.0,0.0,0.0,-0.3808,0.0,0.0,0.0,0.0,0.0,0.0,0.0,0.0,0.0,0.0,0.0,0.0,0.0,0.0,0.0,0.0,0.0,0.0,0.0,0.0,0.0,0.0,0.0,0.0,0.0,0.0,0.0,0.0,0.0,0.0,0.0,0.0,0.0,0.0,0.0,0.0,0.0,0.0,0.0,0.0,0.0,0.0,0.0,0.0,0.0,0.0,0.0,0.0,0.0,0.0,0.0,0.0,0.0,0.0,0.0,0.0,-1.0837,-1.0769,-1.1254,-1.2374,-1.1428,-1.0897,-1.0847,-0.9132,-0.7745,-0.6756,0.0,0.0,0.0,0.0,0.0,0.0,0.0,0.0,0.0,0.0,0.0,0.0,0.0,0.0,0.0,0.0,0.0,0.0,0.0,0.0,0.0,0.0,0.0,0.0,0.0,0.0,0.0,0.0,0.0,0.0,0.0,0.0,0.0,0.0,0.0,0.0,0.0,0.0,0.0,-0.4775,-0.4788,0.0,0.0,0.0,0.0,0.0,0.0,0.0,0.0,-0.4259,0.0,0.0,0.0,0.0,0.0,0.0,0.0,0.0,0.0,0.0,0.0,0.0,0.0,0.0,0.0,0.0,0.0,0.0,0.0,0.0,0.0,0.0,0.0,0.0,0.0,0.0,0.0,0.0,0.0,0.0,0.0,0.0,0.0,0.0,0.0,0.0,0.0,0.0,0.0,0.0,0.0,0.0,0.0,0.0,0.0,0.0,0.0,0.0,0.0,0.0,0.0,0.0,0.0,0.0,0.0,-1.1099,-1.087,-1.1295,-1.2508,-1.1487,-1.0897,-1.0859,-0.9132,-0.7733,0.0,0.0,0.0,0.0,0.0,0.0,0.0,0.0,0.0,0.0,0.0,0.0,0.0,0.0,0.0,0.0,0.0,0.0,0.0,0.0,0.0,0.0,0.0,0.0,0.0,0.0,0.0,0.0,0.0,0.0,0.0,0.0,0.0,0.0,0.0,0.0,0.0,0.0,0.0,0.0,-0.5493,-0.5608,-0.5386,0.0,0.0,0.0,0.0,0.0,0.0,-0.5329,-0.4786,0.0,0.0,0.0,0.0,0.0,0.0,0.0,0.0,0.0,0.0,0.0,0.0,0.0,0.0,0.0,0.0,0.0,0.0,0.0,0.0,0.0,0.0,0.0,0.0,0.0,0.0,0.0,0.0,0.0,0.0,0.0,0.0,0.0,0.0,0.0,0.0,0.0,0.0,0.0,0.0,0.0,0.0,0.0,0.0,0.0,0.0,0.0,0.0,0.0,0.0,0.0,0.0,0.0,0.0,0.0,-1.1207,-1.0853,-1.1236,-1.2483,-1.1498,-1.0897,-1.0859,-0.9059,-0.761,0.0,0.0,0.0,0.0,0.0,0.0,0.0,0.0,0.0,0.0,0.0,0.0,0.0,0.0,0.0,0.0,0.0,0.0,0.0,0.0,0.0,0.0,0.0,0.0,0.0,0.0,0.0,0.0,0.0,0.0,0.0,0.0,0.0,0.0,0.0,0.0,0.0,0.0,0.0,0.0,0.0,-0.6659,-0.6184,-0.647,0.0,0.0,0.0,0.0,-0.7267,-0.6471,0.0,0.0,0.0,0.0,0.0,0.0,0.0,0.0,0.0,0.0,0.0,0.0,0.0,0.0,0.0,0.0,0.0,0.0,0.0,0.0,0.0,0.0,0.0,0.0,0.0,0.0,0.0,0.0,0.0,0.0,0.0,0.0,0.0,0.0,0.0,0.0,0.0,0.0,0.0,0.0,0.0,0.0,0.0,0.0,0.0,0.0,0.0,0.0,0.0,0.0,0.0,0.0,0.0,0.0,0.0,0.0,-1.1321,-1.0887,-1.1245,-1.2467,-1.1498,-1.0897,-1.0871,-0.8748,-0.7186,0.0,0.0,0.0,0.0,0.0,0.0,0.0,0.0,0.0,0.0,0.0,0.0,0.0,0.0,0.0,0.0,0.0,0.0,0.0,0.0,0.0,0.0,0.0,0.0,0.0,0.0,0.0,0.0,0.0,0.0,0.0,0.0,0.0,0.0,0.0,0.0,0.0,0.0,0.0,0.0,0.0,-0.839,-0.7577,-0.7872,-0.8365,0.0,0.0,-0.8914,-0.9587,-0.8912,0.0,0.0,0.0,0.0,0.0,0.0,0.0,0.0,0.0,0.0,0.0,0.0,0.0,0.0,0.0,0.0,0.0,0.0,0.0,0.0,0.0,0.0,0.0,0.0,0.0,0.0,0.0,0.0,0.0,0.0,0.0,0.0,0.0,0.0,0.0,0.0,0.0,0.0,0.0,0.0,0.0,0.0,0.0,0.0,0.0,0.0,0.0,0.0,0.0,0.0,0.0,0.0,0.0,0.0,0.0,-0.8253,-1.1129,-1.0749,-1.1006,-1.202,-1.1304,-1.0703,-1.027,-0.8476,-0.7097,0.0,0.0,0.0,0.0,0.0,0.0,0.0,0.0,0.0,0.0,0.0,0.0,0.0,0.0,0.0,0.0,0.0,0.0,0.0,0.0,0.0,0.0,0.0,0.0,0.0,0.0,0.0,0.0,0.0,0.0,0.0,0.0,0.0,0.0,0.0,0.0,0.0,0.0,0.0,0.0,0.0,0.0,-0.9416,-0.9809,0.0,0.0,0.0,-1.0103,-1.0546,0.0,0.0,0.0,0.0,0.0,0.0,0.0,0.0,0.0,0.0,0.0,0.0,0.0,0.0,0.0,0.0,0.0,0.0,0.0,0.0,0.0,0.0,0.0,0.0,0.0,0.0,0.0,0.0,0.0,0.0,0.0,0.0,0.0,0.0,0.0,0.0,0.0,0.0,0.0,0.0,0.0,0.0,0.0,0.0,0.0,0.0,0.0,0.0,0.0,0.0,0.0,0.0,0.0,0.0,0.0,0.0,0.0,-1.1105,-1.0666,-1.0847,-1.1746,-1.1227,-1.0555,-0.9805,-0.8311,0.0,0.0,0.0,0.0,0.0,0.0,0.0,0.0,0.0,0.0,0.0,0.0,0.0,0.0,0.0,0.0,0.0,0.0,0.0,0.0,0.0,0.0,0.0,0.0,0.0,0.0,0.0,-0.1587,0.0,0.0,0.0,0.0,0.0,0.0,0.0,0.0,0.0,0.0,0.0,0.0,0.0,0.0,-1.0755,-1.0923,-1.1424,-1.1736,0.0,0.0,-1.1206,-1.1478,-1.0336,-0.897,0.0,0.0,0.0,0.0,0.0,0.0,0.0,0.0,0.0,0.0,0.0,0.0,0.0,0.0,0.0,0.0,0.0,0.0,0.0,0.0,0.0,0.0,0.0,0.0,0.0,0.0,0.0,0.0,0.0,0.0,0.0,0.0,0.0,0.0,0.0,0.0,0.0,0.0,0.0,0.0,0.0,0.0,0.0,0.0,0.0,0.0,0.0,0.0,0.0,0.0,0.0,0.0,0.0,0.0,0.0,-1.1315,-1.0765,-1.0943,-1.2005,-1.1304,-1.0543,-0.9818,-0.8311,-0.7074,0.0,0.0,0.0,0.0,0.0,0.0,0.0,0.0,0.0,0.0,0.0,0.0,0.0,0.0,0.0,0.0,0.0,0.0,0.0,0.0,0.0,0.0,0.0,0.0,0.0,0.0,0.0,0.0,0.0,0.0,0.0,0.0,0.0,0.0,0.0,0.0,0.0,0.0,0.0,0.0,0.0,-1.2306,-1.172,-1.2353,-1.2896,0.0,0.0,-1.2438,-1.2902,-1.2183,-1.1028,-0.9327,0.0,0.0,0.0,0.0,0.0,0.0,0.0,0.0,0.0,0.0,0.0,0.0,0.0,0.0,0.0,0.0,0.0,0.0,0.0,0.0,0.0,0.0,0.0,0.0,0.0,0.0,0.0,0.0,0.0,0.0,0.0,0.0,0.0,0.0,0.0,0.0,0.0,0.0,0.0,0.0,0.0,0.0,0.0,0.0,0.0,0.0,0.0,0.0,0.0,0.0,0.0,0.0,0.0,-0.8207,-1.1192,-1.0697,-1.08,-1.1555,-1.1136,-1.0346,-0.9202,-0.8107,-0.705,0.0,0.0,0.0,0.0,0.0,0.0,0.0,0.0,0.0,0.0,0.0,0.0,0.0,0.0,0.0,0.0,0.0,0.0,0.0,0.0,0.0,0.0,0.0,0.0,0.0,0.0,0.0,0.0,-0.2306,-0.269,-0.291,0.0,0.0,0.0,0.0,0.0,0.0,0.0,0.0,0.0,0.0,-1.2745,-1.3221,-1.3936,0.0,0.0,-1.4446,-1.4369,-1.4557,-1.3463,-1.2013,-1.0339,-0.9324,0.0,0.0,0.0,0.0,0.0,0.0,0.0,0.0,0.0,0.0,0.0,0.0,0.0,0.0,0.0,0.0,0.0,0.0,0.0,0.0,0.0,0.0,0.0,0.0,0.0,0.0,0.0,0.0,0.0,0.0,0.0,0.0,0.0,0.0,0.0,0.0,0.0,0.0,0.0,0.0,0.0,0.0,0.0,0.0,0.0,0.0,0.0,0.0,0.0,0.0,0.0,0.0,-0.8396,-1.119,-1.0902,-1.1002,-1.1519,-1.1124,-1.0334,-0.9137,-0.8185,-0.7271,0.0,0.0,0.0,0.0,0.0,0.0,0.0,0.0,0.0,0.0,0.0,0.0,0.0,0.0,0.0,0.0,0.0,0.0,0.0,0.0,0.0,0.0,0.0,0.0,0.0,0.0,0.0,0.0,-0.2907,-0.3445,-0.3705,0.0,0.0,0.0,0.0,0.0,0.0,0.0,0.0,0.0,0.0,-1.3427,-1.4513,-1.5205,-1.5622,-1.5683,-1.5469,-1.5247,-1.5094,-1.4149,-1.2983,-1.1809,0.0,0.0,0.0,0.0,0.0,0.0,0.0,0.0,0.0,0.0,0.0,0.0,0.0,0.0,0.0,0.0,0.0,0.0,0.0,0.0,0.0,0.0,0.0,0.0,0.0,0.0,0.0,-0.4798,0.0,0.0,-0.2777,0.0,0.0,0.0,0.0,0.0,0.0,0.0,0.0,0.0,0.0,0.0,0.0,0.0,0.0,0.0,0.0,0.0,0.0,0.0,0.0,0.0,0.0,-0.901,-1.1427,-1.1465,-1.1656,-1.2035,-1.1315,-1.0543,-0.9767,-0.8722,-0.7779,-0.6942,0.0,0.0,0.0,0.0,0.0,0.0,0.0,0.0,0.0,0.0,0.0,0.0,0.0,0.0,0.0,0.0,0.0,0.0,0.0,0.0,0.0,0.0,0.0,0.0,0.0,0.0,-0.2436,-0.3289,-0.3982,0.0,0.0,0.0,0.0,0.0,0.0,0.0,0.0,0.0,0.0,-1.3048,-1.455,-1.5369,-1.5931,-1.6149,-1.5795,-1.5247,-1.4699,-1.431,-1.4154,-1.4053,0.0,0.0,0.0,0.0,0.0,0.0,0.0,0.0,0.0,0.0,0.0,0.0,0.0,0.0,0.0,0.0,0.0,0.0,0.0,0.0,0.0,0.0,0.0,0.0,0.0,0.0,0.0,-0.8024,-0.7386,0.0,0.0,0.0,0.0,0.0,0.0,0.0,0.0,0.0,0.0,0.0,-1.2772,-1.3547,0.0,0.0,0.0,0.0,0.0,0.0,0.0,0.0,0.0,0.0,0.0,0.0,-0.9498,-1.1397,-1.167,-1.1889,-1.2086,-1.1498,-1.0729,-0.983,-0.8759,-0.7385,-0.5659,0.0,0.0,0.0,0.0,0.0,0.0,0.0,0.0,0.0,0.0,0.0,0.0,0.0,0.0,0.0,0.0,0.0,0.0,0.0,0.0,0.0,0.0,0.0,0.0,0.0,-0.3154,0.0,0.0,0.0,0.0,0.0,0.0,0.0,0.0,0.0,0.0,0.0,-1.0873,-1.2384,-1.38,-1.4992,-1.5804,-1.6121,-1.6546,0.0,0.0,0.0,0.0,0.0,0.0,0.0,0.0,0.0,0.0,0.0,0.0,0.0,0.0,-1.3012,-1.089,-1.0366,-1.0428,-1.0915,0.0,0.0,0.0,0.0,0.0,0.0,0.0,0.0,0.0,0.0,0.0,0.0,0.0,0.0,-1.1055,0.0,-0.981,0.0,0.0,0.0,0.0,0.0,0.0,0.0,0.0,-1.4347,-1.5188,-1.4811,-1.566,-1.5461,0.0,-1.4007,-1.2312,0.0,0.0,0.0,0.0,0.0,0.0,0.0,0.0,-1.012,-1.1734,-1.2102,-1.2283,-1.2268,-1.1732,-1.1019,-1.0196,-0.8897,-0.7396,-0.5679,-0.5107,-0.4419,0.0,0.0,0.0,0.0,0.0,0.0,0.0,0.0,0.0,0.0,0.0,0.0,0.0,0.0,0.0,0.0,0.0,0.0,0.0,0.0,0.0,0.0,0.0,-0.3965,0.0,0.0,0.0,0.0,0.0,0.0,0.0,0.0,0.0,-0.966,-1.071,-1.1978,-1.3549,-1.4756,-1.5729,-1.6414,0.0,0.0,0.0,0.0,0.0,0.0,0.0,-1.5631,-1.5369,-1.487,-1.44,-1.4162,-1.4715,-1.5211,-1.524,0.0,0.0,-1.2948,-1.2325,-1.2407,-1.3113,-1.3698,-1.4161,-1.4295,-1.5239,-1.5969,0.0,0.0,0.0,0.0,0.0,0.0,0.0,0.0,-1.4108,-1.4202,0.0,-1.2698,0.0,0.0,0.0,0.0,0.0,-1.4038,0.0,0.0,-1.7799,-1.7994,-1.6352,-1.7299,-1.7082,-1.5838,-1.6288,-1.5745,-1.4155,-1.1213,0.0,0.0,0.0,0.0,0.0,0.0,-1.0879,-1.2417,-1.2874,-1.2927,-1.2639,-1.2066,-1.145,-1.0821,-0.9132,-0.7839,-0.703,-0.6232,-0.536,-0.4371,-0.3913,0.0,0.0,0.0,0.0,0.0,0.0,0.0,0.0,0.0,0.0,0.0,0.0,0.0,0.0,0.0,0.0,0.0,0.0,0.0,0.0,-0.3669,0.0,0.0,0.0,0.0,0.0,0.0,0.0,0.0,0.0,0.0,-1.0973,-1.1982,-1.3285,-1.4628,0.0,0.0,0.0,0.0,-1.7867,-1.7381,-1.6837,-1.6323,-1.5894,-1.6151,-1.6447,-1.6487,0.0,0.0,-1.5875,-1.5666,-1.5709,-1.5753,-1.6663,-1.7032,-1.5794,-1.4844,-1.4598,-1.5447,-1.5762,-1.6205,-1.715,-1.7616,-1.8091,-1.7785,0.0,0.0,0.0,0.0,-1.6761,-1.7511,-1.8834,-1.8481,-1.77,-1.6623,-1.594,0.0,0.0,0.0,0.0,0.0,0.0,-1.7072,-1.8026,-1.9085,-1.9627,-1.9772,-1.988,-1.958,-1.8989,-1.8119,-1.7396,-1.6699,-1.4805,-1.2531,-0.9991,0.0,0.0,0.0,0.0,-1.2714,-1.326,-1.4067,-1.4135,-1.34,-1.2746,-1.1686,-1.0159,-0.9096,-0.8195,-0.7462,-0.66,-0.5825,-0.5112,-0.4382,0.0,0.0,0.0,0.0,0.0,0.0,0.0,0.0,0.0,0.0,0.0,0.0,0.0,0.0,0.0,0.0,0.0,0.0,0.0,-0.3693,-0.462,-0.5583,0.0,0.0,0.0,0.0,0.0,0.0,0.0,0.0,0.0,-1.3609,-1.4033,-1.452,0.0,0.0,-1.6522,-1.6586,-1.6801,-1.7055,-1.7271,-1.6829,0.0,-1.6809,-1.6309,-1.6051,-1.6438,-1.6629,-1.6617,-1.6329,-1.6604,-1.6883,-1.6889,-1.7488,-1.7703,-1.6895,-1.6893,-1.7077,-1.7387,-1.7494,-1.759,-1.7929,-1.8381,-1.8745,-2.1651,-2.0165,-1.8702,-1.8657,-1.9543,-1.931,-1.9944,-2.1194,-2.0832,-2.0137,-1.9209,-1.8723,-1.8039,-1.7157,-1.5555,0.0,0.0,0.0,-1.8941,-1.9992,-2.0448,-2.0767,-2.0937,-2.1064,-2.0825,-2.0206,-1.9344,-1.8683,-1.8234,-1.7337,-1.5419,-1.2678,0.0,0.0,-1.1771,-1.2983,-1.3759,-1.4013,-1.459,-1.4572,-1.3905,-1.3019,-1.1815,-1.0296,-0.9529,-0.8725,-0.7871,-0.7027,-0.626,-0.5585,-0.4777,-0.4285,0.0,0.0,0.0,0.0,0.0,0.0,0.0,0.0,0.0,0.0,0.0,-0.0935,0.0,0.0,0.0,0.0,-0.2766,-0.4157,-0.4917,-0.5836,0.0,0.0,0.0,0.0,0.0,0.0,0.0,-1.2438,-1.3433,-1.4318,-1.5103,-1.5412,-1.5718,-1.6153,-1.6565,-1.6793,-1.6696,0.0,-1.6858,-1.6972,-1.671,-1.6616,-1.6909,-1.643,-1.6145,-1.6459,-1.6722,-1.6861,-1.6873,-1.7338,-1.7689,-1.7765,-1.8154,-1.8373,-1.7922,-1.8154,-1.8215,-1.7761,-1.7651,-1.7785,-1.8264,-1.8658,-1.8942,-2.4904,-2.4749,-2.1651,-2.076,-2.1365,-2.1189,-2.1521,-2.2148,-2.1798,-2.1799,-2.2011,-2.1075,-2.0707,-2.065,-1.8737,0.0,-2.0409,-2.0353,-2.0738,-2.1458,-2.1881,-2.1534,-2.0626,-2.1324,-2.1129,-2.0187,-2.0132,-1.9744,-1.9109,-1.9024,-1.7781,-1.5479,-1.5014,-1.4517,-1.4008,-1.4073,-1.4319,-1.4697,-1.4714,-1.4574,-1.4233,-1.2976,-1.1875,-1.1005,-1.0183,-0.9266,-0.8237,-0.7393,-0.6585,-0.5824,-0.5106,-0.4814,-0.503,0.0,0.0,0.0,0.0,0.0,0.0,0.0,0.0,0.0,0.0,0.0,0.0,0.0,0.0,0.0,-0.4599,0.0,-0.6222,-0.7291,0.0,0.0,0.0,-1.063,-1.1745,-1.2576,-1.3364,-1.413,0.0,0.0,-1.5756,-1.6195,-1.668,-1.7167,-1.7229,-1.725,-1.725,-1.7209,-1.7055,-1.6595,-1.6522,-1.6513,-1.6565,-1.6568,-1.6588,-1.6638,-1.7074,-1.7448,-1.7476,-1.7903,-1.8229,-1.8279,-1.8682,-1.9008,-1.8983,-1.8771,-1.8295,-1.7055,-1.6881,-1.7243,-1.8272,-1.8629,-1.8903,-2.5212,-2.5166,-2.435,-2.4033,-2.4036,-2.3742,-2.3729,-2.3872,-2.3649,-2.3579,-2.3579,-2.2551,-2.1537,-2.0586,-2.0876,-2.111,-2.1324,-2.2091,-2.2571,-2.2738,-2.2609,-2.2394,-2.215,-2.2145,-2.199,-2.1721,-2.1194,-2.0818,-2.0615,-2.0014,-1.9269,-1.8378,-1.7773,-1.6179,-1.377,-1.4714,-1.5327,-1.5432,-1.5735,-1.5494,-1.4647,-1.3113,-1.2099,-1.1663,-1.0147,-0.8985,-0.8214,-0.7078,-0.6253,-0.5814,-0.5096,-0.4815,-0.5069,-0.4209,0.0,0.0,0.0,0.0,0.0,0.0,0.0,0.0,0.0,-0.2706,-0.2892,0.0,-0.3623,0.0,-0.6372,-0.8351,-0.7903,-0.9012,0.0,0.0,-1.1589,-1.244,-1.3935,-1.4306,-1.465,-1.5241,-1.5906,-1.6312,-1.6321,-1.6412,-1.6531,-1.6667,-1.6689,-1.6689,-1.6701,-1.6701,-1.6659,-1.6543,-1.6513,-1.6513,-1.655,-1.6898,-1.7184,-1.7197,-1.7662,-1.8003,-1.8016,-1.8468,-1.8795,-1.8832,-1.9233,-1.9368,-1.8903,-1.8723,-1.8159,-1.6966,-1.7027,-1.7487,-1.7818,-1.8286,-1.886,-2.5308,-2.5308,-2.5308,-2.5243,-2.5105,-2.4831,-2.4711,-2.47,-2.4434,-2.4275,-2.4118,-2.3164,-2.2358,-2.175,-2.216,-2.2341,-2.234,-2.2779,-2.2984,-2.2942,-2.2665,-2.2527,-2.2527,-2.236,-2.2313,-2.2279,-2.1887,-2.1512,-2.116,-2.0532,-1.9863,-1.9179,-1.8591,-1.7171,-1.505,-1.5624,-1.591,-1.5754,-1.5964,-1.5664,-1.4811,-1.3612,-1.2623,-1.1883,-1.064,-0.9573,-0.8751,-0.7496,-0.6673,-0.6338,-0.5407,-0.4824,-0.4736,-0.4325,-0.3846,0.0,0.0,0.0,0.0,0.0,0.0,0.0,0.0,0.0,0.0,0.0,-0.5961,-0.6361,-0.9189,-1.0717,-1.0104,-1.1089,-1.2084,-1.2866,-1.35,-1.4237,-1.5173,-1.5475,-1.5718,-1.6019,-1.6312,-1.6513,-1.6513,-1.6513,-1.6513,-1.6513,-1.6513,-1.6513,-1.6513,-1.6513,-1.6513,-1.6513,-1.6513,-1.66,-1.6848,-1.7184,-1.7486,-1.7762,-1.8216,-1.8581,-1.8556,-1.8995,-1.9346,-1.9371,-1.9584,-1.9683,-1.9267,-1.8608,-1.7907,-1.7296,-1.6924,-1.6977,-1.7078,-1.7606,-1.821,-2.5308,-2.5308,-2.5308,-2.5308,-2.5298,-2.5105,-2.501,-2.4955,-2.4625,-2.4385,-2.415,-2.334,-2.3059,-2.3177,-2.2898,-2.2885,-2.3057,-2.281,-2.2682,-2.2634,-2.2398,-2.2313,-2.2313,-2.2313,-2.2313,-2.2313,-2.2313,-2.1955,-2.1329,-2.0916,-2.0201,-1.9181,-1.8653,-1.793,-1.6982,-1.6557,-1.6172,-1.5814,-1.5814,-1.5515,-1.4917,-1.426,-1.3322,-1.2075,-1.128,-1.0382,-0.9329,-0.8144,-0.7349,-0.699,-0.5917,-0.5053,-0.4538,-0.4366,-0.4688,0.0,-0.4658,0.0,0.0,0.0,0.0,0.0,0.0,0.0,0.0,-0.7449,-0.874,-1.0188,-1.2345,-1.3268,-1.2436,-1.3196,-1.3939,-1.4277,-1.52,-1.5793,-1.5819,-1.6212,-1.6513,-1.6513,-1.6513,-1.6513,-1.6513,-1.6513,-1.6513,-1.6513,-1.6613,-1.6676,-1.6613,-1.6563,-1.6525,-1.6575,-1.6676,-1.7002,-1.74,-1.7586,-1.7802,-1.8267,-1.8756,-1.9096,-1.9108,-1.9459,-1.9786,-1.9786,-1.9786,-1.9798,-1.9798,-1.8741,-1.7957,-1.7883,-1.7331,-1.6751,-1.6581,-1.7003,-1.7503,-2.5308,-2.5308,-2.5308,-2.5308,-2.5303,-2.5264,-2.5078,-2.4821,-2.4599,-2.4373,-2.4164,-2.3622,-2.3318,-2.32,-2.3129,-2.2865,-2.2497,-2.2639,-2.2573,-2.2377,-2.2321,-2.2313,-2.2313,-2.2313,-2.2313,-2.2313,-2.2313,-2.2229,-2.209,-2.2006,-2.1499,-2.059,-1.9969,-1.9202,-1.8302,0.0,0.0,0.0,-1.5814,-1.5724,-1.5589,-1.496,-1.3966,-1.2661,-1.141,0.0,-0.8887,-0.797,-0.7337,-0.7011,-0.6567,0.0,0.0,0.0,0.0,0.0,0.0,0.0,0.0,0.0,0.0,0.0,-0.8502,-0.8452,-0.7612,-0.9018,-1.0545,-1.1872,-1.4325,-1.5282,-1.3895,-1.4673,-1.5316,-1.5408,-1.5969,-1.6337,-1.635,-1.6459,-1.6513,-1.6513,-1.6513,-1.6513,-1.6525,-1.6513,-1.6513,-1.6588,-1.6923,-1.72,-1.7225,-1.6848,-1.6688,-1.7137,-1.7539,-1.7877,-1.8028,-1.8392,-1.8632,-1.8907,-1.9284,-1.961,-1.9635,-1.9698,-1.9798,-1.9798,-1.9798,-1.9798,-1.9798,-1.9566,-1.9255,-1.923,-1.9034,-1.8378,-1.6605,-1.7002,-1.7872,-2.5308,0.0,-2.5308,-2.5308,0.0,-2.5184,-2.5005,-2.4771,-2.4693,-2.4391,-2.3937,-2.3691,-2.3457,-2.3189,-2.3033,-2.2772,-2.2517,-2.25,-2.2409,-2.231,-2.2313,-2.2313,-2.2313,-2.2313,-2.2313,-2.2313,-2.2313,-2.2313,-2.2296,-2.2061,-2.1645,-2.1007,-2.0432,-1.9664,-1.8689,-1.7369,-1.6413,-1.5814,-1.5814,-1.5814,-1.5769,-1.514,-1.4387,-1.3528,-1.209,0.0,0.0,0.0,0.0,0.0,0.0,0.0,0.0,0.0,0.0,-0.7906,-0.7733,-0.7194,-0.6435,-0.7866,-0.9443,-1.0813,-1.1105,-1.0955,-1.0278,-1.1216,-1.2426,-1.3924,-1.5567,-1.6162,-1.5424,-1.5781,-1.6074,-1.6107,-1.6337,-1.6513,-1.6513,-1.6513,-1.6513,-1.6513,-1.6513,-1.6588,-1.6911,-1.6936,-1.7061,-1.7313,-1.7589,-1.7813,-1.7752,-1.7539,-1.7488,-1.7739,-1.799,-1.8292,-1.8556,-1.8782,-1.9121,-1.9346,-1.9623,-1.9773,-1.9798,-1.9798,-1.9798,-1.9798,-1.9798,-1.9798,-1.9798,-1.9738,-1.9675,-1.9622,-1.9683,-1.9256,-1.7667,-1.7791,-1.8134,-2.5269,-2.5308,-2.5308,-2.5308,-2.5279,-2.5088,-2.491,-2.4746,0.0,0.0,0.0,-2.3742,-2.3522,-2.3177,-2.286,-2.2669,-2.2608,-2.2385,-2.2313,-2.2313,-2.2313,-2.2313,-2.2313,-2.2313,-2.2313,-2.2313,-2.2313,-2.2268,-2.218,-2.1779,-2.1353,-2.0878,-2.0483,-1.9752,-1.8689,-1.7593,-1.6742,-1.6144,-1.5903,-1.5814,-1.5784,-1.5245,-1.475,-1.4326,-1.2936,-1.1991,-1.1535,-1.0045,-0.9179,-0.9091,-0.8474,-0.811,-0.8123,-0.8445,-0.9122,-1.0207,-1.0185,-0.9571,-0.8479,-0.983,-1.1484,-1.3243,-1.3286,-1.3192,-1.3106,-1.3337,-1.4143,-1.5718,-1.6237,-1.65,-1.6513,-1.65,-1.6513,-1.6513,-1.6513,-1.6513,-1.6513,-1.6513,-1.655,-1.6613,-1.6697,-1.6864,-1.7438,-1.7549,-1.7677,-1.8091,-1.8254,-1.8405,-1.8455,-1.8392,-1.8304,-1.8342,-1.8505,-1.8694,-1.9008,-1.9158,-1.9321,-1.9698,-1.9786,-1.9798,-1.9798,-1.9798,-1.9798,-1.9798,-1.9798,-1.9849,-1.9936,-1.9929,-1.9872,-2.0025,-2.0053,-1.9862,-1.9147,-1.8828,-1.8495,-2.5127,-2.5308,-2.5308,-2.5308,-2.5298,-2.5069,-2.4824,-2.4537,-2.4357,-2.4219,-2.4113,-2.3827,-2.3522,-2.3177,-2.286,-2.256,-2.2346,-2.2307,-2.2313,-2.2313,-2.2313,-2.2313,-2.2313,-2.2313,-2.2313,-2.2313,-2.2313,-2.2092,-2.1749,-2.1643,-2.1213,-2.0483,-2.0331,-1.9767,-1.8766,-1.8523,-1.8087,-1.7429,-1.6353,-1.5814,-1.5814,-1.5709,-1.5224,-1.434,-1.3742,-1.302,-1.212,-1.1491,-1.1033,-1.0696,-1.0552,-1.0376,-1.0087,-0.9682,-0.9745,-1.0438,-1.0906,-1.1071,-1.0904,-1.134,-1.2307,-1.383,-1.4782,-1.5081,-1.4638,-1.4638,-1.5148,-1.6249,-1.645,-1.6513,-1.6513,-1.6513,-1.6513,-1.6513,-1.6513,-1.6513,-1.6513,-1.6513,-1.6697,-1.7162,-1.7285,-1.7451,-1.7965,-1.8091,-1.8129,-1.8279,-1.8644,-1.902,-1.9309,-1.9158,-1.892,-1.8945,-1.9296,-1.9572,-1.961,-1.9685,-1.9698,-1.9786,-1.9798,-1.9798,-1.9798,-1.9798,-1.9798,-1.9798,-1.9836,-2.0012,-2.0427,-2.055,-2.0834,-2.1419,-2.1194,-2.0676,-2.0153,-1.9565,-1.8887,-2.4998,-2.505,-2.5107,-2.5096,-2.5025,-2.4816,-2.4562,-2.433,-2.4247,-2.4094,-2.3917,-2.3774,-2.3522,-2.3177,-2.2848,-2.2652,-2.2514,-2.236,-2.2313,-2.2313,-2.2313,-2.2313,-2.2313,-2.2313,-2.2313,-2.2313,-2.2313,-2.2063,-2.1627,-2.1597,-2.1149,-2.0348,-2.0087,-1.974,-1.9258,-1.8882,-1.8551,-1.8222,-1.6951,-1.6278,-1.6278,-1.5964,-1.5591,-1.5122,-1.4212,-1.3494,-1.3029,-1.2103,-1.1512,-1.1348,-1.1336,-1.1259,-1.1106,-1.1009,-1.1226,-1.1827,-1.2484,-1.286,-1.2848,-1.3353,-1.3869,-1.439,-1.5221,-1.5605,-1.5349,-1.5593,-1.5969,-1.645,-1.6513,-1.6513,-1.6513,-1.6513,-1.6513,-1.6513,-1.6513,-1.6513,-1.6513,-1.6513,-1.6726,-1.7262,-1.7398,-1.7702,-1.8531,-1.8632,-1.8757,-1.902,-1.9296,-1.9522,-1.9773,-1.9584,-1.9409,-1.9447,-1.9648,-1.9773,-1.9798,-1.9798,-1.9798,-1.9798,-1.9798,-1.9798,-1.9798,-1.9798,-1.9798,-1.9836,-2.0037,-2.0338,-2.0704,-2.1192,-2.1549,-2.1409,-2.1656,-2.116,-2.0192,-1.921,-1.8486,-2.5298,-2.5075,-2.5189,-2.5034,-2.4742,-2.4578,-2.4384,-2.4199,-2.4199,-2.4064,-2.3845,-2.3735,-2.3522,-2.3177,-2.2848,-2.2656,-2.2586,-2.2402,-2.2313,-2.2313,-2.2313,-2.2313,-2.2313,-2.2313,-2.2313,-2.2282,-2.2178,-2.1868,-2.1507,-2.1352,-2.0911,-2.021,-1.9856,-1.9723,-1.9693,-1.9181,-1.8927,-1.8852,-1.7758,-1.7069,-1.6921,-1.6323,-1.6009,-1.592,-1.4731,-1.3961,-1.3828,-1.2742,-1.2076,-1.1967,-1.1964,-1.1998,-1.2119,-1.225,-1.2647,-1.3307,-1.404,-1.4461,-1.4474,-1.5086,-1.5375,-1.513,-1.5581,-1.5881,-1.5919,-1.6271,-1.6513,-1.6513,-1.6513,-1.6513,-1.6513,-1.6513,-1.6513,-1.6513,-1.6513,-1.6513,-1.6513,-1.6613,-1.6936,-1.7451,-1.77,-1.8154,-1.8895,-1.9183,-1.9346,-1.966,-1.9798,-1.9798,-1.9798,-1.9798,-1.9798,-1.9798,-1.9798,-1.9798,-1.9798,-1.9798,-1.9798,-1.9798,-1.9798,-1.9798,-1.9798,-1.9798,-1.9899,-2.0012,-2.0377,-2.0792,-2.1029,-2.1459,-2.1697,-2.1392,-2.1241,-2.0685,-1.9321,-1.8563,-1.8042,-2.6386,-2.594,-2.5887,-2.5362,-2.4555,-2.4503,-2.4384,-2.4227,-2.4199,-2.4198,-2.4103,-2.3845,-2.3511,-2.3177,-2.2848,-2.2577,-2.2363,-2.231,-2.2313,-2.2313,-2.2313,-2.2313,-2.2313,-2.2313,-2.2313,-2.2223,-2.1772,-2.1396,-2.1039,-2.0649,-2.0193,-1.98,-1.9726,-1.9723,-1.9693,-1.9633,-1.9603,-1.9603,-1.8897,-1.8222,-1.7608,-1.695,-1.6637,-1.6592,-1.5562,-1.4791,-1.4465,-1.3963,-1.348,-1.3099,-1.3044,-1.3242,-1.3579,-1.3331,-1.3478,-1.4353,-1.5165,-1.5562,-1.5449,-1.599,-1.6347,-1.6355,-1.6342,-1.6409,-1.64,-1.6463,-1.6513,-1.6513,-1.6513,-1.6513,-1.6513,-1.6513,-1.6513,-1.6513,-1.6538,-1.6513,-1.66,-1.7008,-1.7536,-1.8066,-1.8493,-1.907,-1.9535,-1.966,-1.971,-1.9773,-1.9798,-1.9798,-1.9798,-1.9798,-1.9798,-1.9798,-1.9798,-1.9798,-1.9798,-1.9798,-1.9798,-1.9798,-1.9798,-1.9798,-1.9798,-1.9861,-1.9949,-2.039,-2.0729,-2.1131,-2.1505,-2.1717,-2.1338,-2.1136,-2.048,-1.9309,-1.8395,-1.8076,-1.8008,-2.6684,-2.6321,-2.5963,-2.525,-2.4376,-2.4312,-2.4266,-2.4199,-2.4199,-2.4199,-2.4132,-2.3649,-2.3335,-2.3165,-2.2695,-2.2398,-2.231,-2.2313,-2.2313,-2.2313,-2.2313,-2.2313,-2.2313,-2.2313,-2.218,-2.1899,-2.1625,-2.1195,-2.0616,-2.0174,-1.9856,-1.9726,-1.9723,-1.9723,-1.9723,-1.9723,-1.9723,-1.9693,-1.942,-1.9154,-1.8807,-1.7848,-1.7294,-1.7187,-1.6264,-1.5634,-1.5386,-1.4678,-1.4052,-1.3652,-1.3848,-1.411,-1.4407,-1.4136,-1.4591,-1.59,-1.6609,-1.6885,-1.6814,-1.6834,-1.6834,-1.6853,-1.6641,-1.6513,-1.6513,-1.6513,-1.6513,-1.6513,-1.6513,-1.6513,-1.6513,-1.6513,-1.6513,-1.655,-1.681,-1.7024,-1.7036,-1.7526,-1.8078,-1.8581,-1.8857,-1.9208,-1.966,-1.9798,-1.9798,-1.9798,-1.9798,-1.9798,-1.9798,-1.9798,-1.9798,-1.9798,-1.9798,-1.9798,-1.9798,-1.9798,-1.9798,-1.9798,-1.9798,-1.9798,-1.9849,-2.0163,-2.044,-2.0652,-2.1072,-2.1308,-2.137,-2.159,-2.1454,-2.0782,-1.9595,-1.8405,-1.8042,-1.8008,-1.8008,-2.7257,-2.682,-2.6004,-2.5199,-2.4511,-2.4281,-2.4199,-2.4199,-2.4199,-2.4199,-2.4141,-2.3482,-2.3189,-2.3123,-2.2558,-2.2313,-2.2313,-2.2313,-2.2313,-2.2313,-2.2313,-2.2313,-2.2313,-2.2313,-2.2046,-2.1627,-2.138,-2.0911,-2.0177,-1.9871,-1.9723,-1.9723,-1.9723,-1.9723,-1.9723,-1.9723,-1.9723,-1.9723,-1.9723,-1.9723,-1.9573,-1.8747,-1.8162,-1.7905,-1.7037,-1.649,-1.6348,-1.561,-1.5031,-1.4651,-1.49,-1.5175,-1.5404,-1.5169,-1.5872,-1.7544,-1.7892,-1.7968,-1.7983,-1.759,-1.7367,-1.7331,-1.6855,-1.6513,-1.6513,-1.6513,-1.6513,-1.6513,-1.6513,-1.6457,-1.6259,-1.6402,-1.6485,-1.6526,-1.7038,-1.7448,-1.7601,-1.8103,-1.8556,-1.8933,-1.9133,-1.9359,-1.971,-1.9798,-1.9798,-1.9798,-1.9798,-1.9798,-1.9798,-1.9798,-1.9798,-1.9798,-1.9798,-1.9798,-1.9798,-1.9798,-1.9798,-1.9721,-1.9695,-1.9589,-1.9792,-2.0225,-2.057,-2.0532,-2.1279,-2.1487,-2.1056,-2.1148,-2.0803,-1.9431,-1.8462,-1.8042,-1.8008,-1.8008,-1.8008,-2.8448,-2.7559,-2.6064,-2.5431,-2.5264,-2.4548,-2.4208,-2.4199,-2.4199,-2.4199,-2.4113,-2.35,-2.3189,-2.3141,-2.2558,-2.2313,-2.2313,-2.2313,-2.2313,-2.2313,-2.2313,-2.2313,-2.2313,-2.2313,-2.2049,-2.1459,-2.0958,-2.0375,-1.9782,-1.9711,-1.9723,-1.9723,-1.9723,-1.9723,-1.9723,-1.9723,-1.9723,-1.9723,-1.9723,-1.9723,-1.9708,-1.96,-1.9243,-1.8672,-1.7964,-1.7427,-1.7129,-1.7002,-1.6758,-1.639,-1.6355,-1.6581,-1.6895,-1.6644,-1.7408,-1.9162,-1.8969,-1.8657,-1.8614,-1.8242,-1.8009,-1.7898,-1.7066,-1.6513,-1.6513,-1.6513,-1.6513,-1.6513,-1.6513,-1.6315,-1.5981,-1.6371,-1.651,-1.6471,-1.7043,-1.7631,-1.8069,-1.8607,-1.8933,-1.9096,-1.9447,-1.9685,-1.9786,-1.9798,-1.9798,-1.9798,-1.9798,-1.9798,-1.9798,-1.9798,-1.9798,-1.9798,-1.9798,-1.9798,-1.9798,-1.9798,-1.9798,-1.9617,-1.9364,-1.9158,-1.9495,-1.9813,-2.0067,-2.0211,-2.0391,-2.0491,-2.0443,-2.002,-1.9299,-1.8529,-1.8269,-1.8008,-1.8008,-1.8008,-1.8057,-2.8528,-2.7761,-2.7163,-2.6366,-2.5393,-2.5081,-2.4677,-2.4218,-2.4199,-2.4199,-2.4084,-2.3482,-2.3124,-2.2976,-2.2493,-2.2313,-2.2313,-2.2313,-2.2313,-2.2313,-2.2313,-2.2135,-2.1869,-2.1838,-2.146,-2.0798,-2.0537,-2.0165,-1.9764,-1.9723,-1.9723,-1.9723,-1.9723,-1.9723,-1.9723,-1.9723,-1.9723,-1.9723,-1.9723,-1.9723,-1.9723,-1.9723,-1.9588,-1.9331,-1.8702,-1.8276,-1.814,-1.7724,-1.729,-1.6904,-1.7137,-1.7413,-1.7737,-1.8264,-1.8853,-1.9567,-1.9483,-1.9348,-1.9257,-1.8546,-1.8092,-1.8013,-1.7105,-1.6513,-1.6513,-1.6513,-1.6513,-1.6513,-1.6513,-1.652,-1.6873,-1.7013,-1.689,-1.6607,-1.7578,-1.8287,-1.8252,-1.887,-1.9497,-1.9547,-1.9685,-1.9786,-1.9798,-1.9798,-1.9798,-1.9798,-1.9798,-1.9798,-1.9798,-1.9798,-1.9798,-1.9798,-1.9798,-1.9798,-1.9798,-1.9798,-1.972,-1.9363,-1.906,-1.8955,-1.9121,-1.9453,-1.9701,-1.9912,-1.9894,-1.9789,-1.9835,-1.9189,-1.8395,-1.8269,-1.8008,-1.8008,-1.8008,-1.8066,-1.8159,-2.8693,-2.8191,-2.7897,-2.7181,-2.6164,-2.5623,-2.5099,-2.4566,-2.4328,-2.4199,-2.4074,-2.3493,-2.3106,-2.2857,-2.2493,-2.2313,-2.2313,-2.2313,-2.2313,-2.2313,-2.2313,-2.2046,-2.1657,-2.1597,-2.1133,-2.0399,-2.0176,-1.9962,-1.9729,-1.9723,-1.9723,-1.9723,-1.9723,-1.9723,-1.9723,-1.9723,-1.9723,-1.9723,-1.9723,-1.9723,-1.9723,-1.9723,-1.9723,-1.9648,-1.9241,-1.9016,-1.9016,-1.8583,-1.8242,-1.8006,-1.8191,-1.8433,-1.8688,-1.9295,-1.9723,-1.9723,-1.9708,-1.9603,-1.9369,-1.8593,-1.8027,-1.7827,-1.7047,-1.6513,-1.6513,-1.6513,-1.6513,-1.6525,-1.6763,-1.7102,-1.7491,-1.779,-1.7609,-1.7183,-1.8154,-1.8884,-1.8615,-1.9279,-1.9722,-1.9773,-1.9786,-1.9798,-1.9798,-1.9798,-1.9798,-1.9798,-1.9798,-1.9798,-1.9798,-1.9798,-1.9798,-1.9798,-1.9798,-1.9798,-1.9811,-1.9811,-2.0036,-1.9738,-1.8885,-1.8748,-1.8861,-1.9168,-1.9293,-1.9519,-1.9512,-1.9368,-1.9021,-1.8395,-1.8134,-1.8042,-1.8008,-1.8008,-1.8066,-1.813,-1.8325,-2.8987,-2.884,-2.8154,-2.7787,-2.7412,-2.6211,-2.5495,-2.5301,-2.4603,-2.43,-2.4149,-2.35,-2.3071,-2.2798,-2.2476,-2.2313,-2.2313,-2.2313,-2.2313,-2.2313,-2.2251,-2.2003,-2.1552,-2.1476,-2.1038,-2.0261,-1.9892,-1.9726,-1.9723,-1.9723,-1.9723,-1.9723,-1.9723,-1.9723,-1.9723,-1.9723,-1.9723,-1.9723,-1.9723,-1.9723,-1.9723,-1.9723,-1.9723,-1.9723,-1.9648,-1.9618,-1.9648,-1.9618,-1.951,-1.9537,-1.9555,-1.9678,-1.9564,-1.9693,-1.9723,-1.9723,-1.9723,-1.9442,-1.8968,-1.8419,-1.7887,-1.7422,-1.6816,-1.6513,-1.6513,-1.6513,-1.6513,-1.6588,-1.7099,-1.7614,-1.7852,-1.8406,-1.8573,-1.8258,-1.8647,-1.9221,-1.9495,-1.976,-1.9798,-1.9798,-1.9798,-1.9798,-1.9798,-1.9798,-1.9798,-1.9798,-1.9798,-1.9798,-1.9798,-1.9798,-1.9798,-1.9798,-1.9811,-1.9798,-1.9798,-1.9848,-2.0185,-2.0231,-1.9184,-1.8601,-1.8796,-1.904,-1.8738,-1.8806,-1.8769,-1.863,-1.863,-1.81,-1.8066,-1.8008,-1.8008,-1.8066,-1.8178,-1.8325,-1.8568,-2.8987,-2.8968,-2.873,-2.8301,-2.7798,-2.7247,-2.677,-2.6164,-2.5374,-2.4739,-2.415,-2.3484,-2.2959,-2.2544,-2.2346,-2.2313,-2.2313,-2.2313,-2.2313,-2.2254,-2.1988,-2.1613,-2.1197,-2.0862,-2.0416,-1.9945,-1.9764,-1.9723,-1.9723,-1.9723,-1.9723,-1.9723,-1.9723,-1.9723,-1.9723,-1.9723,-1.9723,-1.9723,-1.9723,-1.9723,-1.9723,-1.9723,-1.9723,-1.9723,-1.9723,-1.9723,-1.9723,-1.9723,-1.9723,-1.9723,-1.9723,-1.9723,-1.9723,-1.9723,-1.9723,-1.9723,-1.9723,-1.946,-1.893,-1.8414,-1.7867,-1.7333,-1.6795,-1.6543,-1.6513,-1.6513,-1.6513,-1.6563,-1.7099,-1.7815,-1.8844,-1.8983,-1.8734,-1.8056,-1.8904,-1.9368,-1.9258,-1.9527,-1.9773,-1.9798,-1.9798,-1.9798,-1.9798,-1.9798,-1.9811,-1.9849,-1.9836,-1.9836,-1.9836,-1.9924,-1.9798,-1.9798,-1.9798,-1.9788,-1.976,-1.9658,-1.9686,-1.9814,-1.9127,-1.8611,-1.8774,-1.8696,-1.8351,-1.818,-1.8114,-1.8042,-1.8008,-1.8008,-1.8008,-1.8027,-1.8047,-1.8184,-1.8354,-1.8617,-1.89,-2.8987,-2.8987,-2.8987,-2.8712,-2.8209,-2.7963,-2.7512,-2.6961,-2.619,-2.5152,-2.4064,-2.3749,-2.3134,-2.2457,-2.2313,-2.231,-2.2313,-2.2313,-2.2313,-2.2268,-2.2032,-2.1568,-2.0975,-2.0347,-1.9965,-1.9762,-1.9723,-1.9723,-1.9723,-1.9723,-1.9723,-1.9723,-1.9723,-1.9723,-1.9723,-1.9723,-1.9723,-1.9723,-1.9723,-1.9723,-1.9723,-1.9723,-1.9723,-1.9723,-1.9723,-1.9723,-1.9723,-1.9723,-1.9723,-1.9723,-1.9723,-1.9723,-1.9723,-1.9723,-1.9723,-1.9723,-1.9654,-1.9387,-1.8688,-1.8263,-1.7747,-1.7118,-1.6689,-1.6522,-1.6513,-1.6513,-1.6563,-1.6926,-1.7413,-1.8254,-1.9409,-1.9535,-1.9082,-1.8677,-1.9279,-1.9541,-1.9254,-1.9501,-1.9773,-1.9798,-1.9798,-1.9798,-1.9798,-1.9798,-1.9911,-2.0037,-2.0125,-2.0275,-2.0338,-2.0464,-2.0401,-2.0295,-2.0136,-2.0019,-1.9761,-1.9523,-1.9254,-1.9126,-1.8922,-1.8722,-1.8761,-1.842,-1.807,-1.8094,-1.8042,-1.8042,-1.8008,-1.8008,-1.8008,-1.8047,-1.8096,-1.8359,-1.8578,-1.9017,-1.9228,-2.8987,-2.8987,-2.8987,-2.8987,-2.884,-2.8209,-2.7915,-2.7732,-2.6906,-2.555,-2.4237,-2.407,-2.3495,-2.2509,-2.2313,-2.2313,-2.2313,-2.2313,-2.2313,-2.2313,-2.2194,-2.1781,-2.0878,-2.0191,-1.9821,-1.9726,-1.9723,-1.9723,-1.9723,-1.9723,-1.9723,-1.9723,-1.9723,-1.9723,-1.9723,-1.9723,-1.9723,-1.9723,-1.9723,-1.9723,-1.9723,-1.9723,-1.9723,-1.9723,-1.9723,-1.9723,-1.9723,-1.9723,-1.9723,-1.9723,-1.9723,-1.9723,-1.9723,-1.9723,-1.9723,-1.9705,-1.969,-1.9095,-1.838,-1.8013,-1.7585,-1.6723,-1.6565,-1.6513,-1.6513,-1.6525,-1.6763,-1.7403,-1.7877,-1.8606,-1.951,-1.9748,-1.9658,-1.967,-1.9554,-1.9553,-1.9605,-1.9527,-1.9475,-1.9618,-1.9734,-1.9835,-1.9923,-1.9974,-2.0289,-2.0566,-2.0729,-2.093,-2.1129,-2.1192,-2.1393,-2.1107,-2.0575,-2.0153,-1.9831,-1.9179,-1.8916,-1.8649,-1.8571,-1.8555,-1.8576,-1.8237,-1.8008,-1.8008,-1.8008,-1.8008,-1.8008,-1.8008,-1.8008,-1.8018,-1.8203,-1.8516,-1.8861,-1.929,-1.9259,-2.8987,-2.8987,-2.8987,-2.8987,-2.8987,-2.8748,-2.8656,-2.8491,-2.717,-2.6282,-2.5599,-2.4171,-2.3142,-2.2363,-2.23,-2.2313,-2.2313,-2.2313,-2.2313,-2.2313,-2.2313,-2.1583,-2.0682,-2.0278,-1.9965,-1.9729,-1.9723,-1.9723,-1.9723,-1.9723,-1.9723,-1.9723,-1.9723,-1.9723,-1.9723,-1.9723,-1.9723,-1.9723,-1.9723,-1.9723,-1.9723,-1.9723,-1.9723,-1.9723,-1.9723,-1.9723,-1.9723,-1.9723,-1.9723,-1.9723,-1.9723,-1.9723,-1.9723,-1.9723,-1.9672,-1.9566,-1.9281,-1.8822,-1.819,-1.7727,-1.7222,-1.6629,-1.6513,-1.6513,-1.6513,-1.6513,-1.6864,-1.7466,-1.799,-1.8643,-1.9535,-1.9798,-1.9579,-1.9085,-1.898,-1.8833,-1.8421,-1.8205,-1.8355,-1.8871,-1.9368,-1.9846,-2.0289,-2.0727,-2.1029,-2.1232,-2.132,-2.1395,-2.1631,-2.1681,-2.1741,-2.1303,-2.0811,-2.0288,-1.9746,-1.9062,-1.8574,-1.825,-1.8168,-1.8191,-1.818,-1.8104,-1.8008,-1.8008,-1.8008,-1.8008,-1.8018,-1.8018,-1.8018,-1.7993,-1.8273,-1.8533,-1.9005,-1.9393,-1.9136,-2.8987,-2.8987,-2.8987,-2.8987,-2.8982,-2.8827,-2.8638,-2.8276,-2.7228,-2.6296,-2.556,-2.4286,-2.3088,-2.2333,-2.2312,-2.2313,-2.2313,-2.2313,-2.2313,-2.2268,-2.2092,-2.1477,-2.0699,-2.028,-1.9927,-1.9744,-1.9723,-1.9723,-1.9723,-1.9723,-1.9723,-1.9723,-1.9723,-1.9723,-1.9723,-1.9723,-1.9723,-1.9723,-1.9723,-1.9723,-1.9723,-1.9723,-1.9723,-1.9723,-1.9723,-1.9723,-1.9723,-1.9723,-1.9723,-1.9723,-1.9723,-1.9723,-1.9723,-1.9723,-1.9497,-1.9114,-1.8912,-1.8593,-1.7874,-1.7442,-1.7076,-1.6637,-1.6513,-1.6513,-1.6513,-1.6525,-1.6826,-1.7741,-1.8055,-1.8731,-1.9522,-1.9798,-1.9281,-1.8474,-1.8221,-1.807,-1.7633,-1.766,-1.7899,-1.8478,-1.9144,-1.9809,-2.0422,-2.107,-2.154,-2.1757,-2.1832,-2.1995,-2.2196,-2.2105,-2.1935,-2.153,-2.0902,-2.0305,-1.9579,-1.8838,-1.8405,-1.8093,-1.8012,-1.8008,-1.8008,-1.8008,-1.8008,-1.8008,-1.8008,-1.8027,-1.8066,-1.8017,-1.7919,-1.7995,-1.8273,-1.8303,-1.8508,-1.8901,-1.8701,-2.8964,-2.8929,-2.8929,-2.894,-2.8863,-2.8527,-2.8148,-2.7679,-2.6918,-2.5772,-2.4595,-2.4038,-2.3147,-2.2313,-2.2307,-2.2313,-2.2313,-2.2313,-2.2313,-2.2152,-2.1825,-2.1275,-2.091,-2.0225,-1.9871,-1.9726,-1.9723,-1.9723,-1.9723,-1.9723,-1.9723,-1.9723,-1.9723,-1.9723,-1.9723,-1.9723,-1.9723,-1.9723,-1.9723,-1.9723,-1.9723,-1.9723,-1.9723,-1.9723,-1.9723,-1.9723,-1.9723,-1.9723,-1.9723,-1.9723,-1.9723,-1.9723,-1.9708,-1.969,-1.9151,-1.8419,-1.8438,-1.819,-1.7483,-1.725,-1.6993,-1.6573,-1.6513,-1.6513,-1.6525,-1.66,-1.7089,-1.8053,-1.8242,-1.8844,-1.9522,-1.9747,-1.9006,-1.8004,-1.7605,-1.7468,-1.7385,-1.7385,-1.7562,-1.8162,-1.8918,-1.9532,-2.0218,-2.0937,-2.1715,-2.1884,-2.2033,-2.2233,-2.2382,-2.239,-2.217,-2.1837,-2.1101,-2.0275,-1.9455,-1.8626,-1.8305,-1.7998,-1.7998,-1.8008,-1.8008,-1.8008,-1.8008,-1.8008,-1.8008,-1.8086,-1.8169,-1.8097,-1.8017,-1.7878,-1.8064,-1.7594,-1.7242,-1.7778,-1.784,-2.8827,-2.854,-2.854,-2.8509,-2.8458,-2.8152,-2.7776,-2.7284,-2.6234,-2.5121,-2.4108,-2.3315,-2.2756,-2.2313,-2.2313,-2.2313,-2.2313,-2.2313,-2.2313,-2.218,-2.1462,-2.1134,-2.0878,-2.0364,-2.0015,-1.9797,-1.9723,-1.9723,-1.9723,-1.9723,-1.9723,-1.9723,-1.9723,-1.9723,-1.9723,-1.9723,-1.9723,-1.9723,-1.9723,-1.9723,-1.9723,-1.9723,-1.9723,-1.9723,-1.9723,-1.9723,-1.9723,-1.9723,-1.9723,-1.9723,-1.9723,-1.9723,-1.9654,-1.9317,-1.875,-1.8151,-1.7753,-1.7565,-1.7271,-1.6909,-1.6637,-1.6543,-1.6513,-1.6513,-1.655,-1.6948,-1.7463,-1.8154,-1.8569,-1.9058,-1.9532,-1.9228,-1.8516,-1.7715,-1.709,-1.6578,-1.6065,-1.5921,-1.6473,-1.7296,-1.8056,-1.8726,-1.9707,-2.0974,-2.1613,-2.1921,-2.2079,-2.2323,-2.2372,-2.2372,-2.197,-2.1428,-2.0878,-1.9977,-1.9177,-1.8462,-1.8202,-1.8008,-1.8008,-1.8008,-1.8008,-1.8008,-1.8008,-1.8008,-1.8008,-1.8135,-1.8315,-1.8508,-1.8481,-1.8184,-1.7707,-1.7183,-1.6883,-1.7097,-1.6772,-2.8773,-2.8407,-2.8407,-2.8316,-2.8129,-2.7762,-2.7179,-2.6386,-2.5452,-2.4413,-2.3453,-2.2758,-2.2457,-2.231,-2.2313,-2.2313,-2.2313,-2.2296,-2.218,-2.1884,-2.1291,-2.0894,-2.0599,-2.0261,-1.9874,-1.9708,-1.9723,-1.9723,-1.9723,-1.9723,-1.9723,-1.9723,-1.9723,-1.9723,-1.9723,-1.9723,-1.9723,-1.9723,-1.9723,-1.9723,-1.9723,-1.9723,-1.9723,-1.9723,-1.9723,-1.9723,-1.9723,-1.9723,-1.9723,-1.9723,-1.9708,-1.9708,-1.9624,-1.9178,-1.8427,-1.7497,-1.7389,-1.712,-1.6917,-1.668,-1.6522,-1.6513,-1.6513,-1.6697,-1.6861,-1.7237,-1.7765,-1.8405,-1.8833,-1.9121,-1.9233,-1.9006,-1.8248,-1.7274,-1.6765,-1.629,-1.5861,-1.5752,-1.6009,-1.6921,-1.7802,-1.8595,-1.9604,-2.0624,-2.1063,-2.1166,-2.1166,-2.1369,-2.1369,-2.1322,-2.0974,-2.0526,-2.0204,-1.9595,-1.8854,-1.8337,-1.81,-1.8008,-1.8008,-1.8008,-1.8008,-1.8008,-1.8008,-1.8037,-1.8086,-1.8305,-1.8529,-1.8731,-1.8514,-1.7678,-1.7061,-1.6691,-1.621,-1.5692,-1.5394,-2.867,-2.8329,-2.8259,-2.8075,-2.7765,-2.7361,-2.6571,-2.5468,-2.4756,-2.3878,-2.2783,-2.2388,-2.2338,-2.2313,-2.2313,-2.2282,-2.2194,-2.2152,-2.1913,-2.146,-2.1039,-2.0666,-2.0314,-1.9965,-1.9762,-1.9723,-1.9723,-1.9723,-1.9723,-1.9723,-1.9723,-1.9723,-1.9723,-1.9723,-1.9723,-1.9723,-1.9723,-1.9723,-1.9723,-1.9723,-1.9723,-1.9723,-1.9723,-1.9723,-1.9723,-1.9723,-1.9723,-1.9723,-1.9723,-1.969,-1.9621,-1.9621,-1.9543,-1.9097,-1.8152,-1.6701,-1.6928,-1.692,-1.6689,-1.6543,-1.6513,-1.6513,-1.666,-1.6873,-1.726,-1.7639,-1.8179,-1.8668,-1.9096,-1.9081,-1.8761,-1.8489,-1.7813,-1.6888,-1.6506,-1.6321,-1.6207,-1.6183,-1.6556,-1.6884,-1.7564,-1.8274,-1.8984,-1.9792,-2.0128,-2.0398,-2.0398,-2.043,-2.0462,-2.0365,-2.0074,-1.9944,-1.9716,-1.9266,-1.8529,-1.8269,-1.8042,-1.7974,-1.7974,-1.7813,-1.7876,-1.8115,-1.8144,-1.811,-1.8198,-1.8411,-1.8555,-1.8626,-1.8158,-1.7089,-1.6437,-1.6135,-1.5306,-1.4279,-1.4215,-2.829,-2.795,-2.7601,-2.7437,-2.7332,-2.6988,-2.6193,-2.5201,-2.4686,-2.3691,-2.2482,-2.2307,-2.2313,-2.2313,-2.2313,-2.2106,-2.1869,-2.1779,-2.1538,-2.107,-2.0666,-2.0365,-2.0177,-1.9874,-1.9708,-1.9723,-1.9723,-1.9723,-1.9723,-1.9723,-1.9723,-1.9723,-1.9723,-1.9723,-1.9723,-1.9723,-1.9723,-1.9723,-1.9723,-1.9723,-1.9723,-1.9723,-1.9723,-1.9723,-1.9723,-1.9723,-1.9723,-1.9723,-1.9723,-1.9672,-1.9262,-1.9317,-1.9365,-1.895,-1.7922,-1.69,-1.6612,-1.6667,-1.6543,-1.6513,-1.6513,-1.66,-1.6923,-1.7234,-1.7612,-1.8166,-1.8669,-1.8983,-1.9333,-1.9364,-1.8744,-1.8221,-1.7451,-1.6708,-1.6322,-1.6217,-1.6303,-1.6662,-1.707,-1.7298,-1.7599,-1.784,-1.8517,-1.9011,-1.9299,-1.9529,-1.9529,-1.9748,-1.9977,-1.9748,-1.9431,-1.9398,-1.9365,-1.8811,-1.8192,-1.8134,-1.8008,-1.794,-1.7803,-1.742,-1.7584,-1.8145,-1.8273,-1.7823,-1.7981,-1.8337,-1.8451,-1.8506,-1.7653,-1.6509,-1.6001,-1.5579,-1.4817,-1.4088,-1.4128,-2.8084,-2.7574,-2.7378,-2.7178,-2.6988,-2.6808,-2.5958,-2.4866,-2.4566,-2.3678,-2.2649,-2.2313,-2.2313,-2.2313,-2.2313,-2.2032,-2.1688,-2.1613,-2.1244,-2.0715,-2.0399,-2.0158,-2.0019,-1.9764,-1.9726,-1.9723,-1.9723,-1.9723,-1.9723,-1.9723,-1.9723,-1.9723,-1.9723,-1.9723,-1.9723,-1.9723,-1.9723,-1.9723,-1.9723,-1.9723,-1.9723,-1.9723,-1.9723,-1.9723,-1.9723,-1.9723,-1.9723,-1.9723,-1.9723,-1.9617,-1.9207,-1.8949,-1.875,-1.8347,-1.7617,-1.6727,-1.6513,-1.6513,-1.6513,-1.6525,-1.6647,-1.6974,-1.7297,-1.7689,-1.8154,-1.8707,-1.9121,-1.9409,-1.9496,-1.9333,-1.8221,-1.7813,-1.7199,-1.6507,-1.6198,-1.6352,-1.6711,-1.7161,-1.7412,-1.7637,-1.7825,-1.7927,-1.7972,-1.8361,-1.8563,-1.862,-1.8654,-1.8977,-1.9398,-1.9166,-1.8811,-1.8787,-1.8787,-1.8553,-1.81,-1.8066,-1.8008,-1.794,-1.7812,-1.7392,-1.728,-1.7797,-1.7469,-1.6896,-1.733,-1.7914,-1.8122,-1.8076,-1.7006,-1.6055,-1.5764,-1.5345,-1.4573,-1.4102,-1.4168,-2.783,-2.7286,-2.721,-2.7004,-2.6725,-2.6708,-2.5947,-2.4863,-2.4574,-2.3831,-2.2697,-2.2412,-2.2313,-2.2268,-2.2152,-2.1899,-2.1476,-2.1399,-2.0846,-2.033,-2.0158,-1.9965,-1.98,-1.9723,-1.9723,-1.9723,-1.9723,-1.9723,-1.9723,-1.9723,-1.9723,-1.9723,-1.9723,-1.9723,-1.9723,-1.9723,-1.9723,-1.9723,-1.9723,-1.9723,-1.9723,-1.9723,-1.9723,-1.9723,-1.9723,-1.9723,-1.9723,-1.9723,-1.9723,-1.9566,-1.9188,-1.8688,-1.8131,-1.7659,-1.7118,-1.6616,-1.6522,-1.6513,-1.6525,-1.6701,-1.6936,-1.7272,-1.7589,-1.8204,-1.8682,-1.9058,-1.9371,-1.971,-1.9773,-1.9345,-1.8286,-1.7704,-1.7205,-1.6644,-1.6375,-1.6486,-1.7041,-1.7471,-1.7666,-1.7852,-1.7978,-1.8008,-1.8042,-1.8042,-1.8269,-1.8303,-1.8337,-1.8303,-1.8654,-1.8496,-1.8269,-1.8202,-1.8168,-1.8168,-1.8042,-1.8042,-1.8008,-1.7974,-1.7873,-1.7624,-1.7448,-1.7442,-1.697,-1.6632,-1.6652,-1.7184,-1.7432,-1.7332,-1.632,-1.5606,-1.5455,-1.5061,-1.437,-1.4195,-1.4309,-2.7378,-2.7272,-2.6923,-2.6741,-2.6708,-2.6708,-2.6251,-2.5423,-2.4795,-2.4182,-2.3318,-2.2728,-2.2347,-2.224,-2.1869,-2.1492,-2.1102,-2.0715,-2.0331,-1.9925,-1.9836,-1.98,-1.9726,-1.9723,-1.9723,-1.9723,-1.9723,-1.9723,-1.978,-1.978,-1.9744,-1.9762,-1.978,-1.9708,-1.9708,-1.9723,-1.9723,-1.9723,-1.9723,-1.9723,-1.9723,-1.9723,-1.9723,-1.9723,-1.9723,-1.9723,-1.9723,-1.9723,-1.9723,-1.9621,-1.9188,-1.865,-1.8051,-1.7136,-1.671,-1.6528,-1.6513,-1.6513,-1.6638,-1.7011,-1.735,-1.7714,-1.818,-1.8757,-1.9108,-1.9434,-1.9673,-1.9761,-1.9798,-1.9423,-1.8566,-1.8038,-1.7492,-1.7172,-1.6919,-1.7017,-1.7376,-1.7656,-1.7871,-1.792,-1.7998,-1.8008,-1.8008,-1.8008,-1.8042,-1.8008,-1.8008,-1.8008,-1.8008,-1.8008,-1.8008,-1.8008,-1.7681,-1.7613,-1.7699,-1.7724,-1.787,-1.79,-1.7907,-1.7744,-1.7405,-1.7171,-1.7115,-1.6865,-1.6685,-1.612,-1.5984,-1.5713,-1.5294,-1.5019,-1.4817,-1.4531,-1.4208,-1.4235,-1.4429,-2.6971,-2.6939,-2.6758,-2.6708,-2.6708,-2.6708,-2.6285,-2.5626,-2.527,-2.4277,-2.3184,-2.3023,-2.2716,-2.2293,-2.1809,-2.1384,-2.0975,-2.0515,-2.0104,-1.978,-1.9723,-1.9723,-1.9723,-1.9723,-1.9723,-1.9723,-1.9744,-1.9874,-1.9945,-2.0052,-2.0019,-2.0017,-2.0,-1.9909,-1.9744,-1.9723,-1.9723,-1.9723,-1.9723,-1.9723,-1.9723,-1.9723,-1.9723,-1.9723,-1.9723,-1.9723,-1.9723,-1.9723,-1.9723,-1.9603,-1.9188,-1.9006,-1.8769,-1.8132,-1.7484,-1.7461,-1.7466,-1.735,-1.7162,-1.7564,-1.7915,-1.8267,-1.8744,-1.9083,-1.9384,-1.9635,-1.9798,-1.9798,-1.9798,-1.9462,-1.8982,-1.8756,-1.8248,-1.7867,-1.7491,-1.7553,-1.7678,-1.7807,-1.7988,-1.7998,-1.8008,-1.8008,-1.8008,-1.8008,-1.8008,-1.8008,-1.8008,-1.8008,-1.8008,-1.8008,-1.8008,-1.8008,-1.7535,-1.7104,-1.7165,-1.7248,-1.7532,-1.7677,-1.7967,-1.7733,-1.718,-1.6956,-1.6909,-1.6453,-1.5863,-1.527,-1.4703,-1.4601,-1.4636,-1.4412,-1.413,-1.4108,-1.4148,-1.4362,-1.4603,-2.6708,-2.6708,-2.6708,-2.6708,-2.6708,-2.6708,-2.6404,-2.5913,-2.5659,-2.4616,-2.3373,-2.3095,-2.2767,-2.2252,-2.172,-2.1244,-2.0975,-2.0414,-2.0017,-1.9782,-1.9723,-1.9723,-1.9723,-1.9723,-1.9723,-1.9723,-1.9723,-1.9997,-2.0364,-2.0466,-2.0416,-2.0314,-2.0229,-2.0037,-1.98,-1.9723,-1.9723,-1.9723,-1.9723,-1.9723,-1.9723,-1.9723,-1.9723,-1.9723,-1.9723,-1.9723,-1.9723,-1.9723,-1.9723,-1.9916,-1.9443,-1.9315,-1.9373,-1.8735,-1.8234,-1.828,-1.838,-1.8317,-1.8066,-1.8179,-1.8569,-1.8882,-1.9183,-1.9396,-1.9673,-1.9798,-1.9798,-1.9798,-1.919,-1.9052,-1.8964,-1.8994,-1.8426,-1.8086,-1.7996,-1.8067,-1.8049,-1.8027,-1.8008,-1.8008,-1.8008,-1.8008,-1.8008,-1.8008,-1.8008,-1.8008,-1.8008,-1.8008,-1.8037,-1.8057,-1.8154,-1.8193,-1.7966,-1.7586,-1.7748,-1.7673,-1.7659,-1.7724,-1.8055,-1.7929,-1.7504,-1.6988,-1.6685,-1.6042,-1.5213,-1.4747,-1.4393,-1.4245,-1.4088,-1.4088,-1.4102,-1.4155,-1.4255,-1.4489,-1.483,-2.6708,-2.6708,-2.6708,-2.6708,-2.6708,-2.6708,-2.6657,-2.6471,-2.5896,-2.5369,-2.4467,-2.3267,-2.2415,-2.2063,-2.1477,-2.1055,-2.0926,-2.0137,-1.9818,-1.9726,-1.9723,-1.9723,-1.9723,-1.9723,-1.9723,-1.9723,-1.9726,-2.0172,-2.0714,-2.0715,-2.0583,-2.0382,-2.0399,-2.0072,-1.9821,-1.9723,-1.9723,-1.9723,-1.9723,-1.9723,-1.9723,-1.9723,-1.9738,-1.9768,-1.9738,-1.9723,-1.9738,-1.9902,-2.0035,-2.0489,-1.9982,-1.9565,-1.9578,-1.9119,-1.8777,-1.885,-1.9183,-1.9083,-1.8832,-1.8757,-1.892,-1.9133,-1.9371,-1.966,-1.9786,-1.9798,-1.9798,-1.9693,-1.9015,-1.8733,-1.8621,-1.8404,-1.8354,-1.8238,-1.8243,-1.8124,-1.8093,-1.8037,-1.8008,-1.8008,-1.8008,-1.8008,-1.8008,-1.8008,-1.8008,-1.8008,-1.8027,-1.8037,-1.8135,-1.8159,-1.8334,-1.8442,-1.8434,-1.8466,-1.8875,-1.8762,-1.8331,-1.8536,-1.8939,-1.8578,-1.8101,-1.7497,-1.6734,-1.5602,-1.4817,-1.4412,-1.4166,-1.413,-1.4088,-1.4088,-1.4142,-1.4302,-1.4569,-1.487,-1.5217,-2.7067,-2.7035,-2.6808,-2.6708,-2.6708,-2.6708,-2.6708,-2.6657,-2.6387,-2.5675,-2.4686,-2.3071,-2.2152,-2.1781,-2.1323,-2.0829,-2.0532,-1.9982,-1.978,-1.9723,-1.9723,-1.9723,-1.9723,-1.9723,-1.9723,-1.9723,-1.9744,-1.9929,-2.0466,-2.0616,-2.0516,-2.0399,-2.0533,-2.0227,-1.996,-1.9723,-1.9723,-1.9723,-1.9723,-1.9723,-1.9723,-1.9753,-1.9884,-2.0303,-2.0299,-2.0557,-2.0876,-2.0936,-2.0872,-2.0679,-2.0419,-2.0126,-1.985,-1.947,-1.9331,-1.9308,-1.966,-1.9585,-1.9447,-1.9422,-1.9497,-1.9497,-1.9685,-1.9798,-1.9798,-1.9798,-1.9798,-1.9492,-1.8955,-1.8743,-1.9002,-1.9016,-1.8902,-1.8649,-1.8404,-1.8218,-1.8069,-1.8012,-1.8008,-1.8008,-1.8008,-1.8008,-1.8008,-1.8008,-1.8008,-1.8008,-1.8037,-1.8071,-1.8247,-1.8412,-1.8652,-1.876,-1.8769,-1.8648,-1.8963,-1.8938,-1.8854,-1.9298,-1.9744,-1.9007,-1.8301,-1.7704,-1.6814,-1.5587,-1.4538,-1.4313,-1.4151,-1.4137,-1.4108,-1.4148,-1.4342,-1.4576,-1.489,-1.5224,-1.5498,-2.6612,-2.6567,-2.6193,-2.6319,-2.6657,-2.6708,-2.6708,-2.6708,-2.6691,-2.5879,-2.4391,-2.2853,-2.1928,-2.1521,-2.1007,-2.0649,-2.0296,-1.9927,-1.9762,-1.9723,-1.9723,-1.9723,-1.9723,-1.9723,-1.9723,-1.9723,-1.9744,-1.9927,-2.0331,-2.0314,-2.0314,-2.0416,-2.0565,-2.0243,-1.9889,-1.9723,-1.9723,-1.9723,-1.9723,-2.0032,-2.0189,-2.0145,-2.015,-2.0699,-2.0856,-2.0794,-2.0979,-2.0916,-2.0994,-2.0755,-2.0488,-2.0333,-2.0104,-1.9932,-1.9823,-1.98,-1.9798,-1.9798,-1.9798,-1.9798,-1.9798,-1.9748,-1.9761,-1.9798,-1.9798,-1.9811,-1.9849,-2.0056,-1.9415,-1.9059,-1.9367,-1.8997,-1.8648,-1.8215,-1.8377,-1.8254,-1.8094,-1.8008,-1.8008,-1.8008,-1.8008,-1.8018,-1.8115,-1.8164,-1.832,-1.832,-1.8286,-1.8442,-1.875,-1.8906,-1.9053,-1.9112,-1.9112,-1.8947,-1.8798,-1.9269,-1.965,-1.9793,-1.9908,-1.903,-1.832,-1.7658,-1.6527,-1.5026,-1.4264,-1.4171,-1.4202,-1.4282,-1.4269,-1.4242,-1.4549,-1.493,-1.511,-1.5411,-1.5578,-2.5126,-2.5014,-2.4745,-2.5405,-2.6505,-2.6674,-2.664,-2.6556,-2.6455,-2.5728,-2.4295,-2.2517,-2.1613,-2.1367,-2.0764,-2.0365,-2.016,-1.9856,-1.9723,-1.9723,-1.9723,-1.9723,-1.9723,-1.9723,-1.9723,-1.9723,-1.9744,-1.9892,-2.0246,-2.0193,-2.0212,-2.0229,-2.0244,-2.0139,-1.9744,-1.9723,-1.9723,-1.9723,-1.9723,-2.0448,-2.1024,-2.0824,-2.0651,-2.0921,-2.1152,-2.1027,-2.0827,-2.0955,-2.0989,-2.078,-2.0367,-2.0292,-2.0409,-1.999,-1.9825,-1.9799,-1.9798,-1.9798,-1.9798,-1.9798,-1.9798,-1.9798,-1.9798,-1.9798,-1.9798,-1.9836,-2.0024,-2.0282,-1.9755,-1.9381,-1.904,-1.8563,-1.817,-1.8061,-1.821,-1.8236,-1.8076,-1.8008,-1.8008,-1.8008,-1.8008,-1.8037,-1.8184,-1.8315,-1.8568,-1.8646,-1.8617,-1.8802,-1.917,-1.9336,-1.9463,-1.9623,-1.9639,-1.9668,-1.9678,-2.014,-2.0459,-2.0498,-2.0012,-1.9018,-1.806,-1.7253,-1.6,-1.4454,-1.4175,-1.4262,-1.4396,-1.4522,-1.4583,-1.4696,-1.4997,-1.5304,-1.5458,-1.5378,-1.5267,-2.5236,-2.5034,-2.4673,-2.4778,-2.5303,-2.5778,-2.5964,-2.583,-2.5212,-2.4693,-2.4069,-2.2192,-2.1197,-2.0991,-2.0616,-2.0143,-1.9909,-1.9839,-1.9723,-1.9723,-1.9723,-1.9723,-1.9738,-1.9783,-1.9783,-1.9723,-1.9726,-1.9789,-1.9892,-1.9945,-1.9927,-1.9909,-1.9962,-1.9836,-1.9744,-1.9723,-1.9723,-1.9813,-2.0142,-2.0771,-2.15,-2.1139,-2.0924,-2.1284,-2.1255,-2.1046,-2.0836,-2.1051,-2.1033,-2.0772,-2.0329,-2.0325,-2.0283,-1.9824,-1.9798,-1.9773,-1.9773,-1.9798,-1.9798,-1.9798,-1.9798,-1.9773,-1.9849,-1.9861,-1.9811,-1.9798,-2.0151,-2.0489,-2.0234,-1.9921,-1.9585,-1.8594,-1.8107,-1.8021,-1.811,-1.8076,-1.8008,-1.8008,-1.8008,-1.8008,-1.8008,-1.8252,-1.8403,-1.8779,-1.9007,-1.9173,-1.9219,-1.9336,-1.9629,-1.9736,-1.9844,-2.0184,-2.0313,-2.042,-2.0556,-2.0595,-2.045,-2.0274,-1.9659,-1.874,-1.7819,-1.6829,-1.5756,-1.4396,-1.4361,-1.4416,-1.4616,-1.4823,-1.5037,-1.5231,-1.5398,-1.5531,-1.5598,-1.5079,-1.4357,-2.4427,-2.4219,-2.3891,-2.3746,-2.3915,-2.4797,-2.522,-2.5021,-2.4031,-2.3633,-2.335,-2.1666,-2.0748,-2.0616,-2.0296,-2.0017,-1.9708,-1.9723,-1.9723,-1.9723,-1.9723,-1.9887,-2.0007,-2.0082,-2.0333,-2.0213,-2.0109,-2.0082,-2.0134,-1.9813,-1.9741,-1.9744,-1.9723,-1.9726,-1.9723,-1.9723,-1.971,-1.9867,-2.0299,-2.1257,-2.1804,-2.1763,-2.1298,-2.1439,-2.137,-2.1062,-2.1097,-2.1135,-2.1099,-2.0658,-2.0396,-2.027,-1.9927,-1.9798,-1.9695,-1.9527,-1.9137,-1.9202,-1.9281,-1.9371,-1.9319,-1.9345,-1.9767,-2.0087,-2.0024,-1.9936,-2.0248,-2.0552,-2.0592,-2.0198,-1.9597,-1.8546,-1.8104,-1.8008,-1.8008,-1.8008,-1.8008,-1.8008,-1.8027,-1.8027,-1.8281,-1.849,-1.8773,-1.9199,-1.9551,-1.9687,-1.9805,-1.9932,-2.0039,-2.0098,-2.0146,-2.041,-2.0547,-2.0537,-2.0537,-2.0595,-2.0411,-2.0079,-1.9262,-1.8282,-1.7253,-1.6223,-1.5301,-1.4597,-1.4619,-1.4716,-1.4923,-1.513,-1.5357,-1.5484,-1.5565,-1.5644,-1.5764,-1.4902,-1.3782,-2.2712,-2.2647,-2.2415,-2.2381,-2.2584,-2.3816,-2.4406,-2.4409,-2.3251,-2.2763,-2.2634,-2.1114,-2.0399,-2.0263,-1.9909,-1.9729,-1.9726,-1.9723,-1.9723,-1.9783,-1.9857,-2.0168,-2.0498,-2.0692,-2.0932,-2.1171,-2.1081,-2.0647,-2.0632,-1.9989,-1.9723,-1.9828,-1.9917,-1.9989,-2.0019,-2.0109,-1.9983,-1.999,-2.0395,-2.1431,-2.2215,-2.1975,-2.1496,-2.1434,-2.1278,-2.0748,-2.0546,-2.0434,-2.0333,-2.0093,-1.9875,-1.985,-1.9798,-1.9798,-1.9345,-1.8608,-1.7841,-1.8248,-1.8528,-1.8673,-1.8768,-1.8929,-1.9812,-2.0374,-2.0393,-2.0048,-2.0428,-2.0352,-2.023,-1.9856,-1.9332,-1.8677,-1.8032,-1.8008,-1.8008,-1.8008,-1.8008,-1.8027,-1.8057,-1.8223,-1.8568,-1.888,-1.9268,-1.9648,-1.9941,-2.0039,-2.0146,-2.0254,-2.0342,-2.0371,-2.0458,-2.0478,-2.0566,-2.0518,-2.0489,-2.0255,-1.9638,-1.9076,-1.8593,-1.7744,-1.6658,-1.5868,-1.5254,-1.4865,-1.4943,-1.5075,-1.5264,-1.5478,-1.5691,-1.5772,-1.5671,-1.5745,-1.5784,-1.4322,-1.3295,-2.2586,-2.2398,-2.2335,-2.2313,-2.2364,-2.2753,-2.3494,-2.4259,-2.3218,-2.2714,-2.2617,-2.1016,-2.0297,-2.0263,-1.9892,-1.9744,-1.9723,-1.9723,-1.9723,-1.9842,-2.0124,-2.0468,-2.0827,-2.1186,-2.1485,-2.1605,-2.15,-2.1216,-2.0692,-2.0079,-2.0094,-2.0329,-2.0408,-2.0632,-2.0887,-2.1115,-2.0516,-2.0201,-2.0542,-2.1266,-2.1867,-2.1494,-2.1182,-2.1083,-2.072,-2.0207,-2.0067,-2.0003,-1.9952,-1.9875,-1.9798,-1.9798,-1.9798,-1.9683,-1.9137,-1.6761,-1.6929,-1.7743,-1.7879,-1.7907,-1.8066,-1.8464,-1.9251,-1.9171,-1.9448,-1.9969,-2.0478,-2.0202,-1.9566,-1.9038,-1.8944,-1.8529,-1.8076,-1.8008,-1.8008,-1.8008,-1.8027,-1.8105,-1.8174,-1.8627,-1.8997,-1.9385,-1.9736,-2.0019,-2.0321,-2.0419,-2.0498,-2.0576,-2.0615,-2.0615,-2.0615,-2.0615,-2.0527,-2.044,-1.9814,-1.9469,-1.8718,-1.8046,-1.7663,-1.7215,-1.6349,-1.5648,-1.5228,-1.5116,-1.5182,-1.5384,-1.5638,-1.5792,-1.5778,-1.5778,-1.5697,-1.5764,-1.5486,-1.3884,-1.2571,-2.2436,-2.231,-2.2313,-2.2313,-2.224,-2.193,-2.251,-2.3308,-2.2637,-2.2241,-2.2036,-2.0871,-2.0212,-2.0017,-1.98,-1.9723,-1.9723,-1.9723,-1.9723,-1.9872,-2.0438,-2.0827,-2.1201,-2.1739,-2.2254,-2.2278,-2.2158,-2.1939,-2.1321,-2.0872,-2.0797,-2.1036,-2.1111,-2.1335,-2.153,-2.151,-2.1247,-2.093,-2.088,-2.0998,-2.0917,-2.0857,-2.0875,-2.066,-2.0131,-1.9875,-1.9798,-1.9798,-1.9798,-1.9798,-1.9798,-1.9798,-1.9605,-1.9254,-1.8101,-1.6044,-1.6073,-1.691,-1.7322,-1.749,-1.7723,-1.8163,-1.8802,-1.8761,-1.9083,-1.9603,-1.9845,-1.9777,-1.8856,-1.8168,-1.8303,-1.8361,-1.8168,-1.8008,-1.8008,-1.8008,-1.8086,-1.8149,-1.8559,-1.9075,-1.9475,-1.9863,-2.0176,-2.0468,-2.0595,-2.0566,-2.0556,-2.0576,-2.0615,-2.0615,-2.0615,-2.0615,-2.0489,-2.0323,-1.9518,-1.8642,-1.8072,-1.749,-1.7062,-1.6533,-1.5835,-1.5595,-1.5343,-1.5389,-1.5464,-1.5651,-1.5785,-1.5751,-1.573,-1.5534,-1.4997,-1.4561,-1.4028,-1.306,-1.1945,-2.2313,-2.2296,-2.2268,-2.2209,-2.2137,-2.1385,-2.1527,-2.2123,-2.1771,-2.1529,-2.1295,-2.0629,-2.0076,-1.9831,-1.9732,-1.9708,-1.9723,-1.9723,-1.9723,-1.9783,-2.0602,-2.1141,-2.1665,-2.2383,-2.2882,-2.3182,-2.3092,-2.2598,-2.2448,-2.1879,-2.141,-2.1739,-2.1769,-2.1934,-2.2128,-2.2143,-2.2049,-2.1971,-2.1477,-2.1198,-2.0363,-2.0366,-2.0696,-2.0572,-2.0169,-1.9798,-1.9798,-1.9798,-1.9798,-1.9798,-1.9798,-1.9798,-1.9411,-1.8489,-1.7013,-1.6097,-1.578,-1.6214,-1.682,-1.7063,-1.7396,-1.7996,-1.8812,-1.8533,-1.8701,-1.9645,-2.0056,-1.9263,-1.8331,-1.8076,-1.8168,-1.8202,-1.8076,-1.8008,-1.8008,-1.8105,-1.8262,-1.851,-1.9111,-1.957,-1.9863,-2.0195,-2.0352,-2.0605,-2.0605,-2.0605,-2.0615,-2.0615,-2.0576,-2.0576,-2.0362,-2.0352,-2.0098,-1.9645,-1.8582,-1.7837,-1.7471,-1.6978,-1.649,-1.611,-1.5573,-1.5504,-1.5558,-1.5598,-1.5658,-1.5725,-1.5771,-1.5534,-1.5045,-1.4507,-1.3926,-1.3102,-1.2425,-1.175,-1.1361,-2.2313,-2.2268,-2.1913,-2.1763,-2.1703,-2.1229,-2.1103,-2.1307,-2.1213,-2.1243,-2.1227,-2.0651,-2.0085,-1.975,-1.9719,-1.9723,-1.9723,-1.9723,-1.9723,-2.0127,-2.0797,-2.1365,-2.1904,-2.2742,-2.334,-2.349,-2.337,-2.3086,-2.2748,-2.2239,-2.2009,-2.2418,-2.2463,-2.2583,-2.2921,-2.2951,-2.2937,-2.2849,-2.2013,-2.1152,-2.0217,-1.9923,-2.0029,-2.0029,-1.9798,-1.9798,-1.9798,-1.9798,-1.9798,-1.9798,-1.9798,-1.9798,-1.9747,-1.8355,-1.6929,-1.5798,-1.5723,-1.6098,-1.6426,-1.6808,-1.7178,-1.7404,-1.7918,-1.7932,-1.8466,-1.9792,-1.9977,-1.8854,-1.8212,-1.8076,-1.8008,-1.8008,-1.8008,-1.8008,-1.8066,-1.8262,-1.8432,-1.9043,-1.9619,-1.9932,-2.0215,-2.0381,-2.0566,-2.0615,-2.0615,-2.0615,-2.0615,-2.0576,-2.0557,-2.0489,-1.9781,-1.9652,-1.9439,-1.8887,-1.7796,-1.7181,-1.6931,-1.6411,-1.5856,-1.5568,-1.533,-1.5478,-1.5678,-1.5745,-1.5805,-1.5683,-1.5337,-1.4752,-1.4214,-1.344,-1.2764,-1.1891,-1.1116,-1.0435,-1.0288,-2.2313,-2.2225,-2.1615,-2.143,-2.1476,-2.0959,-2.0797,-2.0991,-2.1007,-2.1022,-2.0972,-2.0521,-2.0083,-1.9734,-1.9719,-1.9723,-1.9723,-1.9723,-1.9723,-2.0112,-2.0932,-2.1485,-2.2239,-2.2981,-2.337,-2.3595,-2.358,-2.334,-2.3017,-2.2897,-2.2847,-2.3026,-2.3086,-2.3221,-2.3595,-2.3588,-2.3583,-2.3504,-2.2319,-2.1271,-2.0287,-2.0054,-1.985,-1.9798,-1.9798,-1.9798,-1.9798,-1.9798,-1.9798,-1.9798,-1.9798,-1.9798,-1.9475,-1.8382,-1.6929,-1.6003,-1.5781,-1.6183,-1.6416,-1.6777,-1.7197,-1.748,-1.7656,-1.7929,-1.7982,-1.9077,-1.9077,-1.8144,-1.811,-1.8008,-1.8008,-1.8008,-1.8008,-1.8008,-1.8311,-1.8568,-1.8968,-1.9531,-1.9961,-2.0292,-2.0468,-2.0469,-2.0615,-2.0615,-2.0615,-2.0615,-2.0615,-2.0479,-2.0459,-2.0297,-1.958,-1.8972,-1.8795,-1.8178,-1.7187,-1.6737,-1.6507,-1.5924,-1.5391,-1.5491,-1.5571,-1.5698,-1.5825,-1.5778,-1.5635,-1.5343,-1.4949,-1.4118,-1.2861,-1.1843,-1.1263,-1.0632,-0.9899,-0.9266,-0.9213,-2.2313,-2.218,-2.1385,-2.1197,-2.1367,-2.0666,-2.0533,-2.0862,-2.0975,-2.0846,-2.0654,-2.0419,-2.0056,-1.9826,-1.9723,-1.9723,-1.9723,-1.9723,-1.9723,-2.0232,-2.116,-2.1729,-2.2323,-2.2996,-2.34,-2.3595,-2.3595,-2.358,-2.346,-2.337,-2.3355,-2.3565,-2.3595,-2.3595,-2.3595,-2.3603,-2.3576,-2.3274,-2.2497,-2.165,-2.0945,-2.0296,-1.9939,-1.9798,-1.9798,-1.9798,-1.9798,-1.9798,-1.9798,-1.9798,-1.9798,-1.9798,-1.9371,-1.8405,-1.7148,-1.6176,-1.6055,-1.6436,-1.6787,-1.7217,-1.7588,-1.7871,-1.7978,-1.8008,-1.8018,-1.8042,-1.8042,-1.8042,-1.8008,-1.8008,-1.8008,-1.8027,-1.8027,-1.8242,-1.8588,-1.8968,-1.9455,-1.9951,-2.0244,-2.0566,-2.0586,-2.0605,-2.0566,-2.0566,-2.0381,-2.042,-2.043,-2.0361,-2.0191,-1.9846,-1.9371,-1.8667,-1.8159,-1.7447,-1.6522,-1.6283,-1.6102,-1.5939,-1.5605,-1.5738,-1.5825,-1.5825,-1.5778,-1.573,-1.5534,-1.4949,-1.4172,-1.3295,-1.194,-1.0534,-0.9899,-0.946,-0.9069,-0.8528,-0.8283,-2.2313,-2.2209,-2.1354,-2.1071,-2.1039,-2.0533,-2.035,-2.0483,-2.0845,-2.0845,-2.0563,-2.0366,-2.0068,-1.9726,-1.9722,-1.9708,-1.9723,-1.9723,-2.0124,-2.0647,-2.1306,-2.1924,-2.2553,-2.3146,-2.349,-2.3595,-2.3595,-2.3595,-2.3595,-2.3595,-2.3573,-2.353,-2.3551,-2.3551,-2.3573,-2.3523,-2.34,-2.3104,-2.2422,-2.1513,-2.1248,-2.0608,-1.9952,-1.9798,-1.9798,-1.9798,-1.9798,-1.9798,-1.9798,-1.9798,-1.9798,-1.9798,-1.9319,-1.8464,-1.7245,-1.6558,-1.6445,-1.6728,-1.7129,-1.7549,-1.79,-1.7959,-1.8008,-1.8008,-1.8008,-1.8008,-1.8008,-1.8008,-1.8008,-1.8008,-1.8018,-1.8076,-1.8091,-1.8637,-1.9095,-1.9436,-1.9845,-2.0195,-2.0507,-2.0595,-2.0605,-2.0489,-2.0362,-2.0059,-1.9439,-1.9512,-1.9595,-1.947,-1.9053,-1.9019,-1.9042,-1.8324,-1.7614,-1.6675,-1.5839,-1.5846,-1.5715,-1.5685,-1.5718,-1.5758,-1.5825,-1.5825,-1.5778,-1.5391,-1.4848,-1.4166,-1.3343,-1.2231,-1.1161,-0.985,-0.8874,-0.8287,-0.8038,-0.7988,-0.7988]},{"header":{"parameterUnit":"m.s-1","parameterCategory":1,"la1":31.0,"la2":29.5877,"lo1":-88.7671,"lo2":-86.6584,"dy":0.0162,"dx":0.0185,"nx":115,"ny":88,"refTime":"2024-08-16T00:00:00:Z","depth":0,"parameterNumber":3,"parameterNumberName":"V-component_of_WINDS"},"data":[0.0,0.0,0.0,0.0,0.0,0.0,0.0,0.0,0.0,0.0,0.0,0.0,0.0,0.0,0.0,0.0,0.0,0.0,0.0,0.0,0.0,0.0,0.0,0.0,0.0,0.0,0.0,0.0,0.0,0.0,0.0,0.0,0.0,0.0,0.0,0.0,0.0,0.0,0.0,0.0,0.0,0.0,0.0,0.0,0.0,0.0,0.0,0.0,0.0,0.0,0.0,0.0,0.0,0.0,0.0,0.0,0.0,0.0,0.0,0.0,0.0,0.0,0.0,0.0,0.0,0.0,0.0,0.0,0.0,0.0,0.0,0.0,0.0,0.0,0.0,0.0,0.0,0.0,0.0,0.0,0.0,0.0,0.0,0.0,0.0,0.0,0.0,0.0,0.0,0.0,0.0,0.0,0.0,0.0,0.0,0.0,0.0,0.0,0.0,0.0,0.0,0.0,0.0,0.0,0.0,0.0,0.0,0.0,0.0,0.0,0.0,0.0,0.0,0.0,0.0,0.0,0.0,0.0,0.0,0.0,0.0,0.0,0.0,0.0,0.0,0.0,0.0,0.0,0.0,0.0,0.0,0.0,0.0,0.0,0.0,0.0,0.0,0.0,0.0,0.0,0.0,0.0,0.0,0.0,0.0,0.0,0.0,0.0,0.0,0.0,0.0,0.0,0.0,0.0,0.0,0.0,0.0,0.0,0.0,0.0,0.0,0.0,0.0,0.0,0.0,0.0,0.0,0.0,0.0,0.0,0.0,0.0,0.0,0.0,0.0,0.0,0.0,0.0,0.0,0.0,0.0,0.0,0.0,0.0,0.0,0.0,0.0,0.0,0.0,0.0,0.0,0.0,0.0,0.0,0.0,0.0,0.0,0.0,0.0,0.0,0.0,0.0,0.0,0.0,0.0,0.0,0.0,0.0,0.0,0.0,0.0,0.0,0.0,0.0,0.0,0.0,0.0,0.0,0.0,0.0,0.0,0.0,0.0,0.0,0.0,0.0,0.0,0.0,0.0,0.0,0.0,0.0,0.0,0.0,0.0,0.0,0.0,0.0,0.0,0.0,0.0,0.0,0.0,0.0,0.0,0.0,0.0,0.0,0.0,0.0,0.0,0.0,0.0,0.0,0.0,0.0,0.0,0.0,0.0,0.0,0.0,0.0,0.0,0.0,0.0,0.0,0.0,0.0,0.0,0.0,0.0,0.0,0.0,0.0,0.0,0.0,0.0,0.0,0.0,0.0,0.0,0.0,0.0,0.0,0.0,0.0,0.0,0.0,0.0,0.0,0.0,0.0,0.0,0.0,0.0,0.0,0.0,0.0,0.0,0.0,0.0,0.0,0.0,0.0,0.0,0.0,0.0,0.0,0.0,0.0,0.0,0.0,0.0,0.0,0.0,0.0,0.0,0.0,0.0,0.0,0.0,0.0,0.0,0.0,0.0,0.0,0.0,0.0,0.0,0.0,0.0,0.0,0.0,0.0,0.0,0.0,0.0,0.0,0.0,0.0,0.0,0.0,0.0,0.0,0.0,0.0,0.0,0.0,0.0,0.0,0.0,0.0,0.0,0.0,0.0,0.0,0.0,0.0,0.0,0.0,0.0,0.0,0.0,0.0,0.0,0.0,0.0,0.0,0.0,0.0,0.0,0.0,0.0,0.0,0.0,0.0,0.0,0.0,0.0,0.0,0.0,0.0,0.0,0.0,0.0,0.0,0.0,0.0,0.0,0.0,0.0,0.0,0.0,0.0,0.0,0.0,0.0,0.0,0.0,0.0,0.0,0.0,0.0,0.0,0.0,0.0,0.0,0.0,0.0,0.0,0.0,0.0,0.0,0.0,0.0,0.0,0.0,0.0,0.0,0.0,0.0,0.0,0.0,0.0,0.0,0.0,0.0,0.0,0.0,0.0,0.0,0.0,0.0,0.0,0.0,0.0,0.0,0.0,0.0,0.0,0.0,0.0,0.0,0.0,0.0,0.0,0.0,0.0,0.0,0.0,0.0,0.0,0.0,0.0,0.0,0.0,0.0,0.0,0.0,0.0,0.0,0.0,0.0,0.0,0.0,0.0,0.0,0.0,0.0,0.0,0.0,0.0,0.0,0.0,0.0,0.0,0.0,0.0,0.0,0.0,0.0,0.0,0.0,0.0,0.0,0.0,0.0,0.0,0.0,0.0,0.0,0.0,0.0,0.0,0.0,0.0,0.0,0.0,0.0,0.0,0.0,0.0,0.0,0.0,0.0,0.0,0.0,0.0,0.0,0.0,0.0,0.0,0.0,0.0,0.0,0.0,0.0,0.0,0.0,0.0,0.0,0.0,0.0,0.0,0.0,0.0,0.0,0.0,0.0,0.0,0.0,0.0,0.0,0.0,0.0,0.0,0.0,0.0,0.0,0.0,0.0,0.0,0.0,0.0,0.0,0.0,0.0,0.0,0.0,0.0,0.0,0.0,0.0,0.0,0.0,0.0,0.0,0.0,0.0,0.0,0.0,0.0,0.0,0.0,0.0,0.0,0.0,0.0,0.0,0.0,0.0,0.0,0.0,0.0,0.0,0.0,0.0,0.0,0.0,0.0,0.0,0.0,0.0,0.0,0.0,0.0,0.0,0.0,0.0,0.0,0.0,0.0,0.0,0.0,0.0,0.0,0.0,0.0,0.0,0.0,0.0,0.0,0.0,0.0,0.0,0.0,0.0,0.0,0.0,0.0,0.0,0.0,0.0,0.0,0.0,0.0,0.0,0.0,0.0,0.0,0.0,0.0,0.0,0.0,0.0,0.0,0.0,0.0,0.0,0.0,0.0,0.0,0.0,0.0,0.0,0.0,0.0,0.0,0.0,0.0,0.0,0.0,0.0,0.0,0.0,0.0,0.0,0.0,0.0,0.0,0.0,0.0,0.0,0.0,0.0,0.0,0.0,0.0,0.0,0.0,0.0,0.0,0.0,0.0,0.0,0.0,0.0,0.0,0.0,0.0,0.0,0.0,0.0,0.0,0.0,0.0,0.0,0.0,0.0,0.0,0.0,0.0,0.0,0.0,0.0,0.0,0.0,0.0,0.0,0.0,0.0,0.0,0.0,0.0,0.0,0.0,0.0,0.0,0.0,0.0,0.0,0.0,0.0,0.0,0.0,0.0,0.0,0.0,0.0,0.0,0.0,0.0,0.0,0.0,0.0,0.0,0.0,0.0,0.0,0.0,0.0,0.0,0.0,0.0,0.0,0.0,0.0,0.0,0.0,0.0,0.0,0.0,0.0,0.0,0.0,0.0,0.0,0.0,0.0,0.0,0.0,0.0,0.0,0.0,0.0,0.0,0.0,0.0,0.0,0.0,0.0,0.0,0.0,0.0,0.0,0.0,0.0,0.0,0.0,0.0,0.0,0.0,0.0,0.0,0.0,0.0,0.0,0.0,0.0,0.0,0.0,0.0,0.0,0.0,0.0,0.0,0.0,0.0,0.0,0.0,0.0,0.0,0.0,0.0,0.0,0.0,0.0,0.0,0.0,0.0,0.0,0.0,0.0,0.0,0.0,0.0,0.0,0.0,0.0,0.0,0.0,0.0,0.0,0.0,0.0,0.0,0.0,0.0,0.0,0.0,0.0,0.0,0.0,0.0,0.0,0.0,0.0,0.0,0.0,0.0,0.0,0.0,0.0,0.0,0.0,0.0,0.0,0.0,0.0,0.0,0.0,0.0,0.0,0.0,0.0,0.0,0.0,0.0,0.0,0.0,0.0,0.0,0.0,0.0,0.0,0.0,0.0,0.0,0.0,0.0,0.0,0.0,0.0,0.0,0.0,0.0,0.0,0.0,0.0,0.0,0.0,0.0,0.0,0.0,0.0,0.0,0.0,0.0,0.0,0.0,0.0,0.0,0.0,0.0,0.0,0.0,0.0,0.0,0.0,0.0,0.0,0.0,0.0,0.0,0.0,0.0,0.0,0.0,0.0,0.0,0.0,0.0,0.0,0.0,0.0,0.0,0.0,0.0,0.0,0.0,0.0,0.0,0.0,0.0,0.0,0.0,0.0,0.0,0.0,0.0,0.0,0.0,0.0,0.0,0.0,0.0,0.0,0.0,0.0,0.0,0.0,0.0,0.0,0.0,0.0,0.0,0.0,0.0,0.0,0.0,0.0,0.0,0.0,0.0,0.0,0.0,0.0,0.0,0.0,0.0,0.0,0.0,0.0,0.0,0.0,0.0,0.0,0.0,0.0,0.0,0.0,0.0,0.0,0.0,0.0,0.0,0.0,0.0,0.0,0.0,0.0,0.0,0.0,0.0,0.0,0.0,0.4482,0.0,0.0,0.0,0.0,0.0,0.0,0.0,0.0,0.0,0.0,0.0,0.0,0.0,0.0,0.0,0.0,0.0,0.0,0.0,0.0,0.0,0.0,0.0,0.0,0.0,0.0,0.0,0.0,0.0,0.0,0.0,0.0,0.0,0.0,0.0,0.0,0.0,0.0,0.0,0.0,0.0,0.0,0.0,0.0,0.0,0.0,0.0,0.0,0.0,0.0,0.0,0.0,0.0,0.0,0.0,0.0,0.0,0.0,0.0,0.0,0.0,0.0,0.0,0.0,0.0,0.0,0.0,0.0,0.0,0.0,0.0,0.0,0.0,0.0,0.0,0.0,0.0,0.0,0.0,0.0,0.0,0.0,0.0,0.0,0.0,0.0,0.0,0.0,0.0,0.0,0.0,0.0,0.0,0.0,0.0,0.0,0.0,0.0,0.0,0.0,0.0,0.0,0.0,0.0,0.0,0.0,0.0,0.0,0.0,0.0,0.4941,0.4849,0.4784,0.4714,0.4609,0.0,0.0,0.0,0.0,0.0,0.0,0.0,0.0,0.0,0.0,0.0,0.0,0.0,0.0,0.0,0.0,0.0,0.0,0.0,0.0,0.0,0.0,0.0,0.0,0.0,0.0,0.0,0.0,0.0,0.0,0.0,0.0,0.0,0.0,0.0,0.0,0.0,0.0,0.0,0.0,0.0,0.0,0.0,0.0,0.0,0.0,0.0,0.0,0.0,0.0,0.0,0.0,0.0,0.0,0.0,0.0,0.0,0.0,0.0,0.0,0.0,0.0,0.0,0.0,0.0,0.0,0.0,0.0,0.0,0.0,0.0,0.0,0.0,0.0,0.0,0.0,0.0,0.0,0.0,0.0,0.0,0.0,0.0,0.0,0.0,0.0,0.0,0.0,0.0,0.0,0.0,0.0,0.0,0.0,0.0,0.0,0.0,0.0,0.0,0.0,0.0,0.0,0.0,0.0,0.0,0.0,0.0,0.0,0.0,0.0,0.0,0.0,0.5101,0.5035,0.495,0.0,0.0,0.0,0.0,0.0,0.0,0.0,0.0,0.0,0.0,0.0,0.0,0.0,0.0,0.0,0.0,0.0,0.0,0.0,0.0,0.0,0.0,0.0,0.0,0.0,0.0,0.0,0.0,0.0,0.0,0.0,0.0,0.0,0.0,0.0,0.0,0.0,0.0,0.0,0.0,0.0,0.0,0.0,0.0,0.0,0.0,0.0,0.0,0.0,0.0,0.0,0.0,0.0,0.0,0.0,0.0,0.0,0.0,0.0,0.0,0.0,0.0,0.0,0.0,0.0,0.0,0.0,0.0,0.0,0.0,0.0,0.0,0.0,0.0,0.0,0.0,0.0,0.0,0.0,0.0,0.0,0.0,0.0,0.0,0.0,0.0,0.0,0.0,0.0,0.0,0.0,0.0,0.0,0.0,0.0,0.0,0.0,0.0,0.0,0.0,0.0,0.0,0.0,0.0,0.0,0.0,0.0,0.0,0.0,0.0,0.5318,0.5963,0.5931,0.0,0.57,0.0,0.0,0.0,0.0,0.0,0.0,0.0,0.0,0.0,0.0,0.0,0.0,0.0,0.0,0.0,0.0,0.0,0.0,0.0,0.0,0.0,0.0,0.0,0.0,0.0,0.0,0.0,0.0,0.0,0.0,0.0,0.0,0.0,0.0,0.0,0.0,0.0,0.0,0.0,0.0,0.0,0.0,0.0,0.0,0.0,0.0,0.0,0.0,0.0,0.0,0.0,0.0,0.0,0.0,0.0,0.0,0.0,0.0,0.0,0.0,0.0,0.0,0.0,0.0,0.0,0.0,0.0,0.0,0.0,0.0,0.0,0.0,0.0,0.0,0.0,0.0,0.0,0.0,0.0,0.0,0.0,0.0,0.0,0.0,0.0,0.0,0.0,0.0,0.0,0.0,0.0,0.0,0.0,0.0,0.0,0.0,0.0,0.0,0.0,0.0,0.0,0.0,0.0,0.0,0.0,0.0,0.0,0.0,0.0,0.0,0.0,0.6151,0.612,0.6034,0.0,0.0,0.0,0.0,0.0,0.0,0.0,0.0,0.0,0.0,0.0,0.0,0.0,0.0,0.0,0.0,0.0,0.0,0.0,0.0,0.0,0.0,0.0,0.0,0.0,0.0,0.0,0.0,0.0,0.0,0.0,0.0,0.0,0.0,0.0,0.0,0.0,0.0,0.0,0.0,0.0,0.0,0.0,0.0,0.0,0.0,0.0,0.0,0.0,0.0,0.0,0.0,0.0,0.0,0.0,0.0,0.0,0.0,0.0,0.0,0.0,0.0,0.0,0.0,0.0,0.0,0.0,0.0,0.0,0.0,0.0,0.0,0.0,0.0,0.0,0.0,0.0,0.0,0.0,0.0,0.0,0.0,0.0,0.0,0.0,0.0,0.0,0.0,0.0,0.0,0.0,0.0,0.0,0.0,0.0,0.0,0.0,0.0,0.0,0.0,0.0,0.0,0.0,0.0,0.0,0.0,0.0,0.0,0.0,0.0,0.6081,0.0,0.6543,0.6537,0.6332,0.5898,0.0,0.0,0.0,0.0,0.0,0.0,0.0,0.0,0.0,0.0,0.0,0.0,0.0,0.0,0.0,0.0,0.0,0.0,0.0,0.0,0.0,0.0,0.0,0.0,0.0,0.0,0.0,0.0,0.0,0.0,0.0,0.0,0.0,0.0,0.0,0.0,0.0,0.0,0.0,0.0,0.0,0.0,0.0,0.0,0.0,0.0,0.0,0.0,0.0,0.0,0.0,0.0,0.0,0.0,0.0,0.0,0.0,0.0,0.0,0.0,0.0,0.0,0.0,0.0,0.0,0.0,0.0,0.0,0.0,0.0,0.0,0.0,0.0,0.0,0.0,0.0,0.0,0.0,0.0,0.0,0.0,0.0,0.0,0.0,0.0,0.0,0.0,0.0,0.0,0.0,0.0,0.0,0.0,0.0,0.0,0.0,0.0,0.0,0.0,0.0,0.0,0.0,0.0,0.0,0.0,0.0,0.0,0.0,0.0,0.6579,0.667,0.7391,0.7385,0.6891,0.0,0.0,0.0,0.0,0.0,0.0,0.0,0.0,0.0,0.0,0.0,0.0,0.0,0.0,0.0,0.0,0.0,0.0,0.0,0.0,0.0,0.0,0.0,0.0,0.0,0.0,0.0,0.0,0.0,0.0,0.0,0.0,0.0,0.0,0.0,0.0,0.0,0.0,0.0,0.0,0.0,0.0,0.0,0.0,0.0,0.0,0.0,0.0,0.0,0.0,0.0,0.0,0.0,0.0,0.0,0.0,0.0,0.0,0.0,0.0,0.0,0.0,0.0,0.0,0.0,0.0,0.0,0.0,0.0,0.0,0.0,0.0,0.0,0.0,0.0,0.0,0.0,0.0,0.0,0.0,0.0,0.0,0.0,0.0,0.0,0.0,0.0,0.0,0.0,0.0,0.0,0.0,0.0,0.0,0.0,0.0,0.0,0.0,0.0,0.0,0.0,0.0,0.0,0.0,0.0,0.0,0.0,0.0,0.0,0.5737,0.6072,0.6877,0.0,0.7213,0.6678,0.0,0.0,0.0,0.0,0.0,0.0,0.0,0.0,0.0,0.0,0.0,0.0,0.0,0.0,0.0,0.0,0.0,0.0,0.0,0.0,0.0,0.0,0.0,0.0,0.0,0.0,0.0,0.0,0.0,0.0,0.0,0.0,0.0,0.0,0.0,0.0,0.0,0.0,0.0,0.0,0.0,0.0,0.0,0.0,0.0,0.0,0.0,0.0,0.0,0.0,0.0,0.0,0.0,0.0,0.0,0.0,0.0,0.0,0.0,0.0,0.0,0.0,0.0,0.0,0.0,0.0,0.0,0.0,0.0,0.0,0.0,0.0,0.0,0.0,0.0,0.0,0.0,0.0,0.0,0.0,0.0,0.0,0.0,0.0,0.0,0.0,0.0,0.0,0.0,0.0,0.0,0.0,0.0,0.0,0.0,0.0,0.0,0.0,0.0,0.0,0.0,0.0,0.0,0.0,0.0,0.0,0.0,0.0,0.0,0.5516,0.0,0.715,0.0,0.7014,0.6421,0.0,0.0,0.0,0.0,0.0,0.0,0.0,0.0,0.0,0.0,0.0,0.0,0.0,0.0,0.0,0.0,0.0,0.0,0.0,0.0,0.0,0.0,0.0,0.0,0.0,0.0,0.0,0.0,0.0,0.0,0.0,0.0,0.0,0.0,0.0,0.0,0.0,0.0,0.0,0.0,0.0,0.0,0.0,0.0,0.0,0.0,0.0,0.0,0.0,0.0,0.0,0.0,0.0,0.0,0.0,0.0,0.0,0.0,0.0,0.0,0.0,0.0,0.0,0.0,0.0,0.0,0.0,0.0,0.0,0.0,0.0,0.0,0.0,0.0,0.0,0.0,0.0,0.0,0.0,0.0,0.0,0.0,0.0,0.0,0.0,0.0,0.0,0.0,0.0,0.0,0.0,0.0,0.0,0.0,0.0,0.0,0.0,0.0,0.0,0.0,0.0,0.0,0.0,0.0,0.0,0.0,0.0,0.0,0.5303,0.6694,0.7313,0.7385,0.6975,0.6832,0.6143,0.0,0.0,0.0,0.0,0.0,0.0,0.0,0.0,0.0,0.0,0.0,0.0,0.0,0.0,0.0,0.0,0.0,0.0,0.0,0.0,0.0,0.0,0.0,0.0,0.0,0.0,0.0,0.0,0.0,0.0,0.0,0.0,0.0,0.0,0.0,0.0,0.0,0.0,0.0,0.0,0.0,0.0,0.0,0.0,0.0,0.0,0.0,0.0,0.0,0.0,0.0,0.0,0.0,0.0,0.0,0.0,0.0,0.0,0.0,0.0,0.0,0.0,0.0,0.0,0.0,0.0,0.0,0.0,0.0,0.0,0.0,0.0,0.0,0.0,0.0,0.0,0.0,0.0,0.0,0.0,0.0,0.0,0.0,0.0,0.0,0.0,0.0,0.0,0.0,0.0,0.0,0.0,0.0,0.0,0.0,0.0,0.0,0.0,0.0,0.0,0.0,0.0,0.0,0.0,0.0,0.0,0.0,0.0,0.0,0.5558,0.6195,0.7039,0.8028,0.6681,0.6271,0.0,0.0,0.0,0.0,0.0,0.0,0.0,0.0,0.0,0.0,0.0,0.0,0.0,0.0,0.0,0.0,0.0,0.0,0.0,0.0,0.0,0.0,0.0,0.0,0.0,0.0,0.0,0.0,0.0,0.0,0.0,0.0,0.0,0.0,0.0,0.0,0.0,0.0,0.0,0.0,0.0,0.0,0.0,0.0,0.0,0.0,0.0,0.0,0.0,0.0,0.0,0.0,0.0,0.0,0.0,0.0,0.0,0.0,0.0,0.0,0.0,0.0,0.0,0.0,0.0,0.0,0.0,0.0,0.0,0.0,0.0,0.0,0.0,0.0,0.0,0.0,0.0,0.0,0.0,0.0,0.0,0.0,0.0,0.0,0.0,0.0,0.0,0.0,0.0,0.0,0.0,0.0,0.0,0.0,0.0,0.0,0.0,0.0,0.0,0.0,0.0,0.0,0.0,0.0,0.0,0.0,0.0,0.0,0.0,0.5338,0.6377,0.7354,0.8216,0.714,0.6702,0.7015,0.0,0.0,0.0,0.0,0.0,0.0,0.0,0.0,0.0,0.0,0.0,0.0,0.0,0.0,0.0,0.0,0.0,0.0,0.0,0.0,0.0,0.0,0.0,0.0,0.0,0.0,0.0,0.0,0.0,0.0,0.0,0.0,0.0,0.0,0.0,0.0,0.0,0.0,0.0,0.0,0.0,0.0,0.0,0.0,0.0,0.0,0.0,0.0,0.0,0.0,0.0,0.0,0.0,0.0,0.0,0.0,0.0,0.0,0.0,0.0,0.0,0.0,0.0,0.0,0.0,0.0,0.0,0.0,0.0,0.0,0.0,0.0,0.0,0.0,0.0,0.0,0.0,0.0,0.0,0.0,0.0,0.0,0.0,0.0,0.0,0.0,0.0,0.0,0.0,0.0,0.0,0.0,0.0,0.0,0.0,0.0,0.0,0.0,0.0,0.0,0.0,0.0,0.0,0.0,0.0,0.0,0.0,0.0,0.5848,0.7606,0.8238,0.7662,0.8033,0.7357,0.0,0.0,0.0,0.0,0.0,0.0,0.0,0.0,0.0,0.0,0.0,0.0,0.0,0.0,0.0,0.0,0.0,0.0,0.0,0.0,0.0,0.0,0.0,0.0,0.0,0.0,0.0,0.0,0.0,0.0,0.0,0.0,0.0,0.0,0.0,0.0,0.0,0.0,0.0,0.0,0.0,0.0,0.0,0.0,0.0,0.0,0.0,0.0,0.0,0.0,0.0,0.0,0.0,0.0,0.0,0.0,0.0,0.0,0.0,0.0,0.0,0.0,0.0,0.0,0.0,0.0,0.0,0.0,0.0,0.0,0.0,0.0,0.0,0.0,0.0,0.0,0.0,0.0,0.0,0.0,0.0,0.0,0.0,0.0,0.0,0.0,0.0,0.0,0.0,0.0,0.0,0.0,0.0,0.0,0.0,0.0,0.0,0.0,0.0,0.0,0.0,0.0,0.0,0.0,0.0,0.0,0.0,0.0,0.0,0.6473,0.8039,0.8873,0.8888,0.8281,0.7621,0.0,0.0,0.0,0.0,0.0,0.0,0.0,0.0,0.0,0.0,0.0,0.0,0.0,0.0,0.0,0.0,0.0,0.0,0.0,0.0,0.0,0.0,0.0,0.0,0.0,0.0,0.0,0.0,0.0,0.0,0.0,0.0,0.0,0.0,0.0,0.0,0.0,0.0,0.0,0.0,0.0,0.0,0.0,0.0,0.0,0.0,0.0,0.0,0.0,0.0,0.0,0.0,0.0,0.0,0.0,0.0,0.0,0.0,0.0,0.0,0.0,0.0,0.0,0.0,0.0,0.0,0.0,0.0,0.0,0.0,0.0,0.0,0.0,0.0,0.0,0.0,0.0,0.0,0.0,0.0,0.0,0.0,0.0,0.0,0.0,0.0,0.0,0.0,0.0,0.0,0.0,0.0,0.0,0.0,0.0,0.0,0.0,0.0,0.0,0.0,0.0,0.0,0.0,0.0,0.0,0.0,0.0,0.0,0.5982,0.6868,0.8475,0.9436,0.9618,0.9322,0.8711,0.0,0.0,0.0,0.0,0.0,0.0,0.0,0.0,0.0,0.0,0.0,0.0,0.0,0.0,0.0,0.0,0.0,0.0,0.0,0.0,0.0,0.0,0.0,0.0,0.0,0.0,0.0,0.0,0.0,0.0,0.0,0.0,0.0,0.0,0.0,0.0,0.0,0.0,0.0,0.0,0.0,0.0,0.0,0.0,0.0,0.0,0.0,0.0,0.0,0.0,0.0,0.0,0.0,0.0,0.0,0.0,0.0,0.0,0.0,0.0,0.0,0.0,0.0,0.0,0.0,0.0,0.0,0.0,0.0,0.0,0.0,0.0,0.0,0.0,0.0,0.0,0.0,0.0,0.0,0.0,0.0,0.0,0.0,0.0,0.0,0.0,0.0,0.0,0.0,0.0,0.0,0.0,0.0,0.0,0.0,0.0,0.0,0.0,0.0,0.0,0.0,0.0,0.0,0.0,0.0,0.0,0.0,0.0,0.6302,0.7132,0.8862,0.9875,1.0013,1.0584,1.0026,0.0,0.0,0.0,0.0,0.0,0.0,0.0,0.0,0.0,0.0,0.0,0.0,0.0,0.0,0.0,0.0,0.0,0.0,0.0,0.0,0.0,0.0,0.0,0.0,0.0,0.0,0.0,0.0,0.0,0.0,0.0,0.0,0.0,0.0,0.0,0.0,0.0,0.0,0.0,0.0,0.0,0.0,0.0,0.0,0.0,0.0,0.0,0.0,0.0,0.0,0.0,0.0,0.0,0.0,0.0,0.0,0.0,0.0,0.0,0.0,0.0,0.0,0.0,0.0,0.0,0.0,0.0,0.0,0.0,0.0,0.0,0.0,0.0,0.0,0.0,0.0,0.0,0.0,0.0,0.0,0.0,0.0,0.0,0.0,0.0,0.0,0.0,0.0,0.0,0.0,0.0,0.0,0.0,0.0,0.0,0.0,0.0,0.0,0.0,0.0,0.0,0.0,0.0,0.0,0.0,0.0,0.0,0.0,0.6493,0.7257,0.8924,1.0081,1.0668,1.0333,0.959,0.0,0.0,0.0,0.0,0.0,0.0,0.0,0.0,0.0,0.0,0.0,0.0,0.0,0.0,0.0,0.0,0.0,0.0,0.0,0.0,0.0,0.0,0.0,0.0,0.0,0.0,0.0,0.0,0.0,0.0,0.0,0.0,0.0,0.0,0.0,0.0,0.0,0.0,0.0,0.0,0.0,0.0,0.0,0.0,0.0,0.0,0.0,0.0,1.0651,0.0,0.0,0.0,0.0,0.0,0.0,0.0,0.0,0.0,0.0,0.0,0.0,0.0,0.0,0.0,0.0,0.0,0.0,0.0,0.0,0.0,0.0,0.0,0.0,0.0,0.0,0.0,0.0,0.0,0.0,0.0,0.0,0.0,0.0,0.0,0.0,0.0,0.0,0.0,0.0,0.0,0.0,0.0,0.0,0.0,0.0,0.0,0.0,0.0,0.0,0.0,0.0,0.0,0.0,0.0,0.0,0.0,0.0,0.0,0.6843,0.7744,0.9415,1.0506,1.0881,1.0743,1.0285,0.0,0.0,0.0,0.0,0.0,0.0,0.0,0.0,0.0,0.0,0.0,0.0,0.0,0.0,0.0,0.0,0.0,0.0,0.0,0.0,0.0,0.0,0.0,0.0,0.0,0.0,0.0,0.0,0.0,0.0,0.0,0.0,0.0,0.0,0.0,0.0,0.0,0.0,0.0,0.0,0.0,0.0,0.0,0.0,0.0,0.0,0.0,0.0,0.0,0.0,0.0,0.0,0.0,0.0,0.0,0.0,0.0,0.0,0.0,0.0,0.0,0.0,0.0,0.0,0.0,0.0,0.0,0.0,0.0,0.0,0.0,0.0,0.0,0.0,0.0,0.0,0.0,0.0,0.0,0.0,0.0,0.0,0.0,0.0,0.0,0.0,0.0,0.0,0.0,0.0,0.0,0.0,0.0,0.0,0.0,0.0,0.0,0.0,0.0,0.0,0.0,0.0,0.0,0.0,0.0,0.0,0.0,0.6257,0.7218,0.8304,1.0,1.0897,1.0907,1.1293,1.1232,1.0628,0.0,0.0,0.0,0.0,0.0,0.0,0.0,0.0,0.0,0.0,0.0,0.0,0.0,0.0,0.0,0.0,0.0,0.0,0.0,0.0,0.0,0.0,0.0,0.0,0.0,0.0,0.0,0.0,0.0,0.0,0.0,0.0,0.0,0.0,0.0,0.0,0.0,0.0,0.8473,0.9347,0.0,0.0,0.0,0.0,0.0,0.0,0.0,0.0,1.1021,0.0,0.0,0.0,0.0,0.0,0.0,0.0,0.0,0.0,0.0,0.0,0.0,0.0,0.0,0.0,0.0,0.0,0.0,0.0,0.0,0.0,0.0,0.0,0.0,0.0,0.0,0.0,0.0,0.0,0.0,0.0,0.0,0.0,0.0,0.0,0.0,0.0,0.0,0.0,0.0,0.0,0.0,0.0,0.0,0.0,0.0,0.0,0.0,0.0,0.0,0.0,0.0,0.0,0.0,0.0,0.0,0.5869,0.6423,0.7343,0.8684,1.0133,1.0897,1.0918,1.1303,1.1243,1.0656,0.0,0.0,0.0,0.0,0.0,0.0,0.0,0.0,0.0,0.0,0.0,0.0,0.0,0.0,0.0,0.0,0.0,0.0,0.0,0.0,0.0,0.0,0.0,0.0,0.0,0.0,0.0,0.0,0.0,0.0,0.0,0.0,0.0,0.0,0.0,0.0,0.0,0.0,0.0,1.0851,1.1144,0.0,0.0,0.0,0.0,0.0,0.0,0.0,0.0,1.0917,0.0,0.0,0.0,0.0,0.0,0.0,0.0,0.0,0.0,0.0,0.0,0.0,0.0,0.0,0.0,0.0,0.0,0.0,0.0,0.0,0.0,0.0,0.0,0.0,0.0,0.0,0.0,0.0,0.0,0.0,0.0,0.0,0.0,0.0,0.0,0.0,0.0,0.0,0.0,0.0,0.0,0.0,0.0,0.0,0.0,0.0,0.0,0.0,0.0,0.0,0.0,0.0,0.0,0.0,0.0,0.5917,0.6596,0.7529,0.8799,1.0185,1.0897,1.0907,1.1278,1.1251,0.0,0.0,0.0,0.0,0.0,0.0,0.0,0.0,0.0,0.0,0.0,0.0,0.0,0.0,0.0,0.0,0.0,0.0,0.0,0.0,0.0,0.0,0.0,0.0,0.0,0.0,0.0,0.0,0.0,0.0,0.0,0.0,0.0,0.0,0.0,0.0,0.0,0.0,0.0,0.0,1.044,1.0688,1.0802,0.0,0.0,0.0,0.0,0.0,0.0,1.1048,1.0718,0.0,0.0,0.0,0.0,0.0,0.0,0.0,0.0,0.0,0.0,0.0,0.0,0.0,0.0,0.0,0.0,0.0,0.0,0.0,0.0,0.0,0.0,0.0,0.0,0.0,0.0,0.0,0.0,0.0,0.0,0.0,0.0,0.0,0.0,0.0,0.0,0.0,0.0,0.0,0.0,0.0,0.0,0.0,0.0,0.0,0.0,0.0,0.0,0.0,0.0,0.0,0.0,0.0,0.0,0.0,0.5881,0.6699,0.7651,0.8801,1.0172,1.0897,1.0907,1.1162,1.1099,0.0,0.0,0.0,0.0,0.0,0.0,0.0,0.0,0.0,0.0,0.0,0.0,0.0,0.0,0.0,0.0,0.0,0.0,0.0,0.0,0.0,0.0,0.0,0.0,0.0,0.0,0.0,0.0,0.0,0.0,0.0,0.0,0.0,0.0,0.0,0.0,0.0,0.0,0.0,0.0,0.0,1.0579,1.093,1.0558,0.0,0.0,0.0,0.0,1.2244,1.1643,0.0,0.0,0.0,0.0,0.0,0.0,0.0,0.0,0.0,0.0,0.0,0.0,0.0,0.0,0.0,0.0,0.0,0.0,0.0,0.0,0.0,0.0,0.0,0.0,0.0,0.0,0.0,0.0,0.0,0.0,0.0,0.0,0.0,0.0,0.0,0.0,0.0,0.0,0.0,0.0,0.0,0.0,0.0,0.0,0.0,0.0,0.0,0.0,0.0,0.0,0.0,0.0,0.0,0.0,0.0,0.0,0.5614,0.6606,0.7638,0.879,1.0172,1.0897,1.0895,1.0659,1.0654,0.0,0.0,0.0,0.0,0.0,0.0,0.0,0.0,0.0,0.0,0.0,0.0,0.0,0.0,0.0,0.0,0.0,0.0,0.0,0.0,0.0,0.0,0.0,0.0,0.0,0.0,0.0,0.0,0.0,0.0,0.0,0.0,0.0,0.0,0.0,0.0,0.0,0.0,0.0,0.0,0.0,1.2646,1.0597,1.1535,1.2002,0.0,0.0,1.2354,1.2927,1.3401,0.0,0.0,0.0,0.0,0.0,0.0,0.0,0.0,0.0,0.0,0.0,0.0,0.0,0.0,0.0,0.0,0.0,0.0,0.0,0.0,0.0,0.0,0.0,0.0,0.0,0.0,0.0,0.0,0.0,0.0,0.0,0.0,0.0,0.0,0.0,0.0,0.0,0.0,0.0,0.0,0.0,0.0,0.0,0.0,0.0,0.0,0.0,0.0,0.0,0.0,0.0,0.0,0.0,0.0,0.0,0.4446,0.5902,0.6864,0.7978,0.9328,1.0358,1.1059,1.1331,1.0727,1.0597,0.0,0.0,0.0,0.0,0.0,0.0,0.0,0.0,0.0,0.0,0.0,0.0,0.0,0.0,0.0,0.0,0.0,0.0,0.0,0.0,0.0,0.0,0.0,0.0,0.0,0.0,0.0,0.0,0.0,0.0,0.0,0.0,0.0,0.0,0.0,0.0,0.0,0.0,0.0,0.0,0.0,0.0,1.1601,1.2113,0.0,0.0,0.0,1.2902,1.3621,0.0,0.0,0.0,0.0,0.0,0.0,0.0,0.0,0.0,0.0,0.0,0.0,0.0,0.0,0.0,0.0,0.0,0.0,0.0,0.0,0.0,0.0,0.0,0.0,0.0,0.0,0.0,0.0,0.0,0.0,0.0,0.0,0.0,0.0,0.0,0.0,0.0,0.0,0.0,0.0,0.0,0.0,0.0,0.0,0.0,0.0,0.0,0.0,0.0,0.0,0.0,0.0,0.0,0.0,0.0,0.0,0.0,0.603,0.6993,0.8193,0.964,1.047,1.1147,1.1659,1.0856,0.0,0.0,0.0,0.0,0.0,0.0,0.0,0.0,0.0,0.0,0.0,0.0,0.0,0.0,0.0,0.0,0.0,0.0,0.0,0.0,0.0,0.0,0.0,0.0,0.0,0.0,0.0,0.5152,0.0,0.0,0.0,0.0,0.0,0.0,0.0,0.0,0.0,0.0,0.0,0.0,0.0,0.0,1.1064,1.232,1.2605,1.3034,0.0,0.0,1.3594,1.4429,1.4097,1.3456,0.0,0.0,0.0,0.0,0.0,0.0,0.0,0.0,0.0,0.0,0.0,0.0,0.0,0.0,0.0,0.0,0.0,0.0,0.0,0.0,0.0,0.0,0.0,0.0,0.0,0.0,0.0,0.0,0.0,0.0,0.0,0.0,0.0,0.0,0.0,0.0,0.0,0.0,0.0,0.0,0.0,0.0,0.0,0.0,0.0,0.0,0.0,0.0,0.0,0.0,0.0,0.0,0.0,0.0,0.0,0.5626,0.6875,0.8097,0.9316,1.0358,1.1159,1.1674,1.0856,1.0612,0.0,0.0,0.0,0.0,0.0,0.0,0.0,0.0,0.0,0.0,0.0,0.0,0.0,0.0,0.0,0.0,0.0,0.0,0.0,0.0,0.0,0.0,0.0,0.0,0.0,0.0,0.0,0.0,0.0,0.0,0.0,0.0,0.0,0.0,0.0,0.0,0.0,0.0,0.0,0.0,0.0,1.236,1.2005,1.3103,1.4012,0.0,0.0,1.4856,1.541,1.6058,1.5859,1.3992,0.0,0.0,0.0,0.0,0.0,0.0,0.0,0.0,0.0,0.0,0.0,0.0,0.0,0.0,0.0,0.0,0.0,0.0,0.0,0.0,0.0,0.0,0.0,0.0,0.0,0.0,0.0,0.0,0.0,0.0,0.0,0.0,0.0,0.0,0.0,0.0,0.0,0.0,0.0,0.0,0.0,0.0,0.0,0.0,0.0,0.0,0.0,0.0,0.0,0.0,0.0,0.0,0.0,0.4572,0.5951,0.698,0.8287,0.9869,1.0567,1.1315,1.2239,1.1057,1.0652,0.0,0.0,0.0,0.0,0.0,0.0,0.0,0.0,0.0,0.0,0.0,0.0,0.0,0.0,0.0,0.0,0.0,0.0,0.0,0.0,0.0,0.0,0.0,0.0,0.0,0.0,0.0,0.0,0.7096,0.7729,0.819,0.0,0.0,0.0,0.0,0.0,0.0,0.0,0.0,0.0,0.0,1.2969,1.3542,1.44,0.0,0.0,1.5424,1.5175,1.5373,1.5184,1.4573,1.3263,1.3285,0.0,0.0,0.0,0.0,0.0,0.0,0.0,0.0,0.0,0.0,0.0,0.0,0.0,0.0,0.0,0.0,0.0,0.0,0.0,0.0,0.0,0.0,0.0,0.0,0.0,0.0,0.0,0.0,0.0,0.0,0.0,0.0,0.0,0.0,0.0,0.0,0.0,0.0,0.0,0.0,0.0,0.0,0.0,0.0,0.0,0.0,0.0,0.0,0.0,0.0,0.0,0.0,0.4714,0.5997,0.7131,0.8442,0.997,1.0579,1.1352,1.2263,1.1291,1.0856,0.0,0.0,0.0,0.0,0.0,0.0,0.0,0.0,0.0,0.0,0.0,0.0,0.0,0.0,0.0,0.0,0.0,0.0,0.0,0.0,0.0,0.0,0.0,0.0,0.0,0.0,0.0,0.0,0.7879,0.8635,0.9435,0.0,0.0,0.0,0.0,0.0,0.0,0.0,0.0,0.0,0.0,1.3723,1.4737,1.5372,1.6002,1.6781,1.6123,1.5549,1.5698,1.514,1.4356,1.3466,0.0,0.0,0.0,0.0,0.0,0.0,0.0,0.0,0.0,0.0,0.0,0.0,0.0,0.0,0.0,0.0,0.0,0.0,0.0,0.0,0.0,0.0,0.0,0.0,0.0,0.0,0.0,0.5352,0.0,0.0,0.5292,0.0,0.0,0.0,0.0,0.0,0.0,0.0,0.0,0.0,0.0,0.0,0.0,0.0,0.0,0.0,0.0,0.0,0.0,0.0,0.0,0.0,0.0,0.4854,0.562,0.7304,0.8546,0.934,1.0346,1.1159,1.1717,1.1549,1.1266,1.0792,0.0,0.0,0.0,0.0,0.0,0.0,0.0,0.0,0.0,0.0,0.0,0.0,0.0,0.0,0.0,0.0,0.0,0.0,0.0,0.0,0.0,0.0,0.0,0.0,0.0,0.0,0.7176,0.7749,0.8444,0.0,0.0,0.0,0.0,0.0,0.0,0.0,0.0,0.0,0.0,1.3601,1.4838,1.5235,1.5861,1.647,1.6864,1.6386,1.6147,1.6571,1.6499,1.6095,0.0,0.0,0.0,0.0,0.0,0.0,0.0,0.0,0.0,0.0,0.0,0.0,0.0,0.0,0.0,0.0,0.0,0.0,0.0,0.0,0.0,0.0,0.0,0.0,0.0,0.0,0.0,0.5323,0.5184,0.0,0.0,0.0,0.0,0.0,0.0,0.0,0.0,0.0,0.0,0.0,0.6024,0.6209,0.0,0.0,0.0,0.0,0.0,0.0,0.0,0.0,0.0,0.0,0.0,0.0,0.5143,0.5636,0.7047,0.8286,0.9274,1.0083,1.087,1.1664,1.157,1.0897,0.9655,0.0,0.0,0.0,0.0,0.0,0.0,0.0,0.0,0.0,0.0,0.0,0.0,0.0,0.0,0.0,0.0,0.0,0.0,0.0,0.0,0.0,0.0,0.0,0.0,0.0,0.7105,0.0,0.0,0.0,0.0,0.0,0.0,0.0,0.0,0.0,0.0,0.0,1.2023,1.217,1.4798,1.6541,1.6152,1.6877,1.7551,0.0,0.0,0.0,0.0,0.0,0.0,0.0,0.0,0.0,0.0,0.0,0.0,0.0,0.0,1.7706,1.5023,1.4366,1.432,1.4617,0.0,0.0,0.0,0.0,0.0,0.0,0.0,0.0,0.0,0.0,0.0,0.0,0.0,0.0,0.6081,0.0,0.6447,0.0,0.0,0.0,0.0,0.0,0.0,0.0,0.0,0.694,0.7265,0.6828,0.6891,0.7189,0.0,0.7685,0.7343,0.0,0.0,0.0,0.0,0.0,0.0,0.0,0.0,0.5552,0.6011,0.72,0.8265,0.9098,0.9779,1.0548,1.1398,1.1465,1.0914,0.9666,0.8981,0.8511,0.0,0.0,0.0,0.0,0.0,0.0,0.0,0.0,0.0,0.0,0.0,0.0,0.0,0.0,0.0,0.0,0.0,0.0,0.0,0.0,0.0,0.0,0.0,0.804,0.0,0.0,0.0,0.0,0.0,0.0,0.0,0.0,0.0,1.1064,1.2402,1.342,1.352,1.5963,1.7507,1.6812,0.0,0.0,0.0,0.0,0.0,0.0,0.0,1.64,1.6699,1.6808,1.7085,1.7685,1.8792,1.9469,1.9073,0.0,0.0,1.6874,1.6244,1.628,1.6746,1.7105,1.7409,1.7653,1.8445,1.9159,0.0,0.0,0.0,0.0,0.0,0.0,0.0,0.0,0.6579,0.7275,0.0,0.78,0.0,0.0,0.0,0.0,0.0,0.721,0.0,0.0,0.7555,0.8035,0.8175,0.7725,0.8056,0.9052,0.9523,0.9367,0.8674,0.7299,0.0,0.0,0.0,0.0,0.0,0.0,0.6155,0.6724,0.7774,0.8495,0.885,0.9491,1.0197,1.0916,1.1303,1.1273,1.0851,1.0245,0.9354,0.805,0.8022,0.0,0.0,0.0,0.0,0.0,0.0,0.0,0.0,0.0,0.0,0.0,0.0,0.0,0.0,0.0,0.0,0.0,0.0,0.0,0.0,0.8051,0.0,0.0,0.0,0.0,0.0,0.0,0.0,0.0,0.0,0.0,1.3077,1.3936,1.495,1.5894,0.0,0.0,0.0,0.0,1.8341,1.8803,1.8374,1.8129,1.8609,1.8256,1.791,1.7953,0.0,0.0,1.8753,1.9607,1.9972,1.8983,1.9902,2.0662,2.0352,1.997,1.9909,2.0176,2.0129,2.0327,2.0666,2.1041,2.156,0.5079,0.0,0.0,0.0,0.0,0.5853,0.6309,0.6554,0.749,0.7881,0.784,0.821,0.0,0.0,0.0,0.0,0.0,0.0,0.7848,0.726,0.8273,0.8738,0.87,0.9034,0.9576,1.0257,0.9812,0.9668,0.9787,0.8808,0.7586,0.6273,0.0,0.0,0.0,0.0,0.7157,0.7218,0.8557,0.9289,0.9296,1.0048,1.0779,1.1457,1.1308,1.1331,1.1573,1.0385,0.967,0.9514,0.853,0.0,0.0,0.0,0.0,0.0,0.0,0.0,0.0,0.0,0.0,0.0,0.0,0.0,0.0,0.0,0.0,0.0,0.0,0.0,0.7347,0.8292,0.9178,0.0,0.0,0.0,0.0,0.0,0.0,0.0,0.0,0.0,1.6219,1.6576,1.6777,0.0,0.0,1.884,1.7942,1.8618,1.9151,1.893,1.9064,0.0,1.8874,1.8638,1.8628,1.912,1.9342,1.9456,1.9418,2.0053,2.0481,2.0172,2.0842,2.1476,2.1723,2.1477,2.123,2.1281,2.1269,2.1291,2.1415,2.1954,2.2439,0.5599,0.5262,0.5562,0.5438,0.5168,0.6112,0.6625,0.6886,0.7971,0.8444,0.8477,0.9107,0.9167,0.8789,0.8271,0.0,0.0,0.0,0.8359,0.8027,0.9104,0.9629,0.968,1.0188,1.0668,1.1085,1.0585,1.0409,1.0527,1.001,0.915,0.798,0.0,0.0,0.6916,0.7782,0.8349,0.8608,0.952,1.0039,1.0103,1.0613,1.1042,1.136,1.1356,1.1474,1.1724,1.0667,1.0091,1.0102,0.9007,0.8688,0.0,0.0,0.0,0.0,0.0,0.0,0.0,0.0,0.0,0.0,0.0,0.6397,0.0,0.0,0.0,0.0,0.6803,0.8316,0.9176,0.9641,0.0,0.0,0.0,0.0,0.0,0.0,0.0,1.4856,1.6187,1.7331,1.7999,1.8326,1.8322,1.7861,1.8724,1.9148,1.8502,0.0,1.935,1.9225,1.9479,1.9584,1.9281,1.9153,1.9241,1.9615,1.9929,2.0094,2.0109,2.0662,2.1081,2.1171,2.1635,2.2189,2.248,2.262,2.2746,2.2682,2.2694,2.2713,2.2757,2.3092,2.3339,0.6036,0.5402,0.5023,0.5056,0.5376,0.6176,0.6631,0.6983,0.8177,0.8974,0.9428,1.0165,1.0296,0.9877,0.8713,0.0,0.8349,0.8587,0.8829,0.9081,1.0058,1.0649,1.0881,1.119,1.1472,1.1714,1.1653,1.1428,1.1005,1.0956,1.0605,0.9909,0.9066,0.8831,0.9162,0.9205,0.9681,1.0507,1.0617,1.0809,1.1095,1.1181,1.1122,1.0981,1.1384,1.1571,1.1494,1.0986,1.0487,1.0011,0.9429,0.9054,0.8891,0.0,0.0,0.0,0.0,0.0,0.0,0.0,0.0,0.0,0.0,0.0,0.0,0.0,0.0,0.0,0.8835,0.0,1.1312,1.1612,0.0,0.0,0.0,1.3605,1.406,1.5324,1.632,1.6802,0.0,0.0,1.8777,1.9301,1.953,1.9024,1.8968,1.8949,1.8949,1.8987,1.9151,1.9603,1.969,1.9723,1.9654,1.9702,1.9813,1.9872,2.0348,2.0748,2.0827,2.1335,2.1724,2.1784,2.2313,2.2804,2.2825,2.3652,2.4389,2.43,2.4278,2.4286,2.4358,2.4332,2.4194,0.4901,0.4721,0.4623,0.4917,0.5549,0.6836,0.7425,0.7555,0.8404,0.8933,0.9258,0.9456,0.9872,1.0405,0.9902,0.9956,1.0458,1.0301,1.0286,1.0392,1.1119,1.1503,1.1592,1.218,1.2536,1.2573,1.2236,1.1989,1.1872,1.1584,1.1578,1.1793,1.1214,1.0482,0.9687,1.0279,1.0732,1.0957,1.167,1.2051,1.2047,1.15,1.1282,1.1511,1.1074,1.1071,1.1462,1.0469,0.9934,0.9994,0.9434,0.9031,0.8913,0.8465,0.0,0.0,0.0,0.0,0.0,0.0,0.0,0.0,0.0,0.7641,0.6751,0.0,0.7469,0.0,0.9835,1.1844,1.1419,1.2235,0.0,0.0,1.444,1.5057,1.6608,1.7087,1.7537,1.8164,1.8957,1.9483,1.945,1.9603,1.9657,1.9515,1.9497,1.9497,1.9512,1.9512,1.9548,1.9672,1.9723,1.9723,1.9768,2.0139,2.0434,2.0449,2.1002,2.1455,2.147,2.2009,2.2448,2.2493,2.2972,2.3495,2.3871,2.4235,2.4709,2.5332,2.5243,2.4974,2.498,2.4712,2.4524,0.4491,0.4491,0.4491,0.4736,0.5136,0.6249,0.6708,0.6821,0.7851,0.8388,0.86,0.9506,1.0189,1.0697,1.0838,1.0957,1.1047,1.1172,1.1241,1.1283,1.1956,1.2295,1.2295,1.2715,1.2915,1.2895,1.2637,1.2389,1.2217,1.2245,1.2442,1.2815,1.2777,1.2419,1.1732,1.172,1.1827,1.2034,1.2528,1.2685,1.24,1.1729,1.1491,1.1677,1.1066,1.1061,1.1772,1.0607,1.0082,1.0318,0.9508,0.9026,0.9073,0.8843,0.8464,0.0,0.0,0.0,0.0,0.0,0.0,0.0,0.0,0.0,0.0,0.0,0.9564,0.9749,1.2249,1.381,1.3686,1.4386,1.5294,1.632,1.6486,1.6967,1.8042,1.8401,1.8732,1.9091,1.9483,1.9723,1.9723,1.9723,1.9723,1.9723,1.9723,1.9723,1.9723,1.9723,1.9723,1.9723,1.9723,1.9828,2.0079,2.0434,2.0793,2.1122,2.171,2.2143,2.2164,2.2688,2.3107,2.3137,2.3392,2.3666,2.4006,2.4471,2.4989,2.5462,2.6061,2.6143,2.568,2.5558,2.5707,0.4491,0.4491,0.4491,0.4491,0.4546,0.5136,0.5487,0.5733,0.709,0.7747,0.7964,0.9847,1.0722,1.0838,1.1416,1.1441,1.1091,1.1591,1.1839,1.1972,1.2608,1.2915,1.2915,1.2915,1.2915,1.2915,1.2915,1.2676,1.2314,1.2818,1.3181,1.34,1.3866,1.4167,1.4249,1.3258,1.2864,1.321,1.321,1.2989,1.2517,1.1992,1.1735,1.1788,1.1231,1.1256,1.1994,1.0981,1.0519,1.0738,0.9751,0.9258,0.9434,0.9472,1.0054,0.0,0.9961,0.0,0.0,0.0,0.0,0.0,0.0,0.0,0.0,1.1254,1.2454,1.3428,1.5211,1.6348,1.6503,1.7004,1.7563,1.8192,1.8604,1.8822,1.8852,1.9363,1.9723,1.9723,1.9723,1.9723,1.9723,1.9723,1.9723,1.9723,1.9842,1.9917,1.9842,1.9783,1.9738,1.9798,1.9917,2.0307,2.0737,2.0912,2.1216,2.1769,2.2353,2.2808,2.2823,2.3242,2.358,2.358,2.358,2.3595,2.3595,2.4369,2.5001,2.5245,2.6308,2.7004,2.6535,2.6753,2.7082,0.4491,0.4491,0.4491,0.4491,0.4519,0.4625,0.5359,0.6448,0.7316,0.8037,0.8646,0.9574,1.0291,1.0788,1.0939,1.1525,1.2471,1.2005,1.2129,1.2725,1.2822,1.2915,1.2915,1.2915,1.2915,1.2915,1.2915,1.2866,1.2754,1.2898,1.3434,1.4384,1.4113,1.4437,1.5289,0.0,0.0,0.0,1.321,1.3165,1.3023,1.2526,1.2275,1.2334,1.146,0.0,1.1274,1.0722,1.0527,1.0771,1.0613,0.0,0.0,0.0,0.0,0.0,0.0,0.0,0.0,0.0,0.0,0.0,1.2429,1.2297,1.1474,1.2999,1.4186,1.4563,1.7224,1.8333,1.6819,1.7721,1.8457,1.8609,1.9159,1.9513,1.9528,1.9615,1.9723,1.9723,1.9723,1.9723,1.9738,1.9723,1.9723,1.9813,2.0168,2.0498,2.0528,2.0079,1.9932,2.0423,2.0902,2.1306,2.1485,2.1919,2.2254,2.2583,2.3032,2.337,2.34,2.3475,2.3595,2.3595,2.3595,2.3595,2.3595,2.3788,2.4315,2.5175,2.5665,2.6186,2.7231,2.7744,2.8122,0.4491,0.0,0.4491,0.4491,0.0,0.4838,0.5601,0.6637,0.6993,0.7984,0.9309,0.9662,1.0169,1.0813,1.1141,1.1665,1.2353,1.2344,1.255,1.2881,1.2915,1.2915,1.2915,1.2915,1.2915,1.2915,1.2915,1.2915,1.2905,1.319,1.3789,1.4709,1.4709,1.5055,1.5648,1.4639,1.3803,1.321,1.321,1.321,1.3173,1.2676,1.2506,1.267,1.1829,0.0,0.0,0.0,0.0,0.0,0.0,0.0,0.0,0.0,0.0,1.2029,1.1908,1.1626,1.1259,1.2055,1.3057,1.4155,1.4571,1.4538,1.3922,1.4683,1.5622,1.6668,1.8553,1.9303,1.8341,1.8807,1.9199,1.9196,1.9513,1.9723,1.9723,1.9723,1.9723,1.9723,1.9723,1.9813,2.0154,2.0183,2.0333,2.0632,2.0961,2.1181,2.1156,2.0902,2.0842,2.1141,2.144,2.1799,2.2164,2.2433,2.2838,2.3107,2.3385,2.3565,2.3595,2.3595,2.3595,2.3595,2.3595,2.3595,2.3646,2.4051,2.468,2.5342,2.618,2.7121,2.8274,2.8611,2.888,0.4598,0.4491,0.4491,0.4491,0.4543,0.5218,0.6009,0.6804,0.0,0.0,0.0,0.9744,1.0167,1.0838,1.1491,1.1864,1.2021,1.2632,1.2915,1.2915,1.2915,1.2915,1.2915,1.2915,1.2915,1.2915,1.2915,1.2954,1.3065,1.3576,1.4167,1.4824,1.5365,1.5641,1.5648,1.4828,1.4079,1.3516,1.3286,1.321,1.3185,1.2764,1.2653,1.2899,1.233,1.2122,1.2343,1.1866,1.1591,1.1635,1.1296,1.1344,1.1931,1.1921,1.2469,1.3731,1.3796,1.3732,1.3702,1.4336,1.5068,1.5888,1.6334,1.651,1.6403,1.6216,1.6892,1.8732,1.9393,1.9708,1.9723,1.9708,1.9723,1.9723,1.9723,1.9723,1.9723,1.9723,1.9768,1.9842,1.9899,2.0142,2.0782,2.0868,2.1066,2.156,2.1754,2.1934,2.1994,2.1919,2.1814,2.1859,2.2054,2.2278,2.2703,2.2882,2.3077,2.3475,2.358,2.3595,2.3595,2.3595,2.3595,2.3595,2.3595,2.3655,2.3811,2.45,2.5321,2.5573,2.6977,2.8366,2.9065,2.9342,2.9599,0.5027,0.4491,0.4491,0.4491,0.4546,0.5214,0.6276,0.7589,0.8209,0.8666,0.8956,0.9536,1.0167,1.0838,1.1491,1.2153,1.274,1.2847,1.2915,1.2915,1.2915,1.2915,1.2915,1.2915,1.2915,1.2915,1.2915,1.3176,1.3624,1.3755,1.4376,1.5365,1.5565,1.5653,1.5677,1.5542,1.5211,1.4657,1.3692,1.321,1.321,1.3123,1.3031,1.2912,1.3126,1.3192,1.3054,1.3277,1.3534,1.3752,1.369,1.38,1.4109,1.3892,1.4015,1.4433,1.4672,1.4792,1.477,1.4981,1.5541,1.6518,1.7656,1.8093,1.7522,1.7445,1.8012,1.9408,1.9648,1.9723,1.9723,1.9723,1.9723,1.9723,1.9723,1.9723,1.9723,1.9723,1.9899,2.0453,2.0554,2.0797,2.141,2.156,2.1605,2.1784,2.2269,2.2718,2.3011,2.2882,2.2598,2.2628,2.2996,2.3325,2.337,2.346,2.3475,2.358,2.3595,2.3595,2.3595,2.3595,2.3595,2.3595,2.364,2.3849,2.4291,2.4545,2.5274,2.6158,2.7188,2.807,2.9187,2.9771,3.0299,0.5542,0.5582,0.5222,0.5277,0.5691,0.6389,0.7305,0.8289,0.8646,0.9008,0.9361,0.9666,1.0167,1.0838,1.1516,1.1981,1.232,1.2715,1.2915,1.2915,1.2915,1.2915,1.2915,1.2915,1.2915,1.2915,1.2915,1.3224,1.3745,1.3792,1.44,1.5543,1.5942,1.6093,1.6124,1.5844,1.56,1.5324,1.4255,1.369,1.369,1.3366,1.3141,1.3059,1.334,1.3464,1.3375,1.3649,1.3873,1.3982,1.3967,1.4029,1.4151,1.4251,1.4304,1.4347,1.4714,1.4958,1.4943,1.5462,1.5919,1.6372,1.7822,1.8597,1.8252,1.8583,1.9031,1.9648,1.9723,1.9723,1.9723,1.9723,1.9723,1.9723,1.9723,1.9723,1.9723,1.9723,1.9977,2.0572,2.0688,2.1096,2.2134,2.2254,2.2403,2.2667,2.3047,2.3317,2.3565,2.3392,2.3182,2.3227,2.3415,2.3565,2.3595,2.3595,2.3595,2.3595,2.3595,2.3595,2.3595,2.3595,2.3595,2.364,2.3879,2.4238,2.4619,2.5255,2.6025,2.6794,2.7595,2.8466,2.9587,3.0372,3.0841,0.6395,0.6631,0.6105,0.6242,0.6891,0.7456,0.8129,0.8778,0.8778,0.9087,0.9543,0.971,1.0167,1.0838,1.1516,1.1888,1.2104,1.2642,1.2915,1.2915,1.2915,1.2915,1.2915,1.2915,1.2915,1.2929,1.3031,1.3433,1.3967,1.4133,1.4744,1.5754,1.6259,1.6513,1.6488,1.6095,1.5881,1.5819,1.4934,1.4418,1.4261,1.3697,1.3403,1.3418,1.3528,1.363,1.3738,1.3967,1.4139,1.4231,1.4259,1.4204,1.4127,1.4503,1.4549,1.427,1.4381,1.4651,1.5021,1.6002,1.656,1.6548,1.8003,1.8927,1.8972,1.939,1.9723,1.9723,1.9723,1.9723,1.9723,1.9723,1.9723,1.9723,1.9723,1.9723,1.9723,1.9842,2.0183,2.0797,2.1047,2.1635,2.2568,2.2912,2.3056,2.343,2.3595,2.3595,2.3595,2.3595,2.3595,2.3595,2.3595,2.3595,2.3595,2.3595,2.3595,2.3595,2.3595,2.3595,2.3595,2.3595,2.3714,2.3849,2.4231,2.4724,2.5061,2.5974,2.6914,2.7628,2.8381,2.9268,3.0255,3.0818,3.1171,0.7816,0.7102,0.6997,0.7212,0.7595,0.7696,0.8129,0.8758,0.8778,0.8837,0.8982,0.9543,1.0192,1.0838,1.1516,1.2163,1.2749,1.2881,1.2915,1.2915,1.2915,1.2915,1.2915,1.2915,1.2915,1.2992,1.344,1.3995,1.4629,1.5141,1.5776,1.6358,1.6479,1.6513,1.6488,1.6437,1.6412,1.6412,1.5856,1.5324,1.484,1.4286,1.4022,1.4015,1.392,1.4036,1.4371,1.4779,1.5169,1.5576,1.5545,1.5402,1.5081,1.5403,1.5301,1.4511,1.3805,1.389,1.5182,1.6813,1.7684,1.7809,1.8841,1.9555,1.9588,1.9663,1.9723,1.9723,1.9723,1.9723,1.9723,1.9723,1.9723,1.9723,1.9753,1.9723,1.9828,2.0225,2.0853,2.153,2.2039,2.2778,2.3281,2.343,2.349,2.3565,2.3595,2.3595,2.3595,2.3595,2.3595,2.3595,2.3595,2.3595,2.3595,2.3595,2.3595,2.3595,2.3595,2.3595,2.3595,2.367,2.3774,2.4246,2.4649,2.5128,2.6087,2.6998,2.762,2.8434,2.9317,3.0309,3.0918,3.1151,3.119,0.8638,0.8552,0.8,0.7992,0.8334,0.8342,0.8533,0.8778,0.8778,0.8778,0.8962,0.9917,1.0542,1.0864,1.194,1.2608,1.2881,1.2915,1.2915,1.2915,1.2915,1.2915,1.2915,1.2915,1.3065,1.342,1.3711,1.4297,1.5186,1.5832,1.6259,1.6479,1.6513,1.6513,1.6513,1.6513,1.6513,1.6488,1.6296,1.6036,1.5781,1.5009,1.4576,1.4582,1.4453,1.4421,1.4601,1.4711,1.4937,1.5329,1.5179,1.523,1.562,1.5259,1.5043,1.5023,1.4534,1.4453,1.504,1.6615,1.7547,1.7529,1.8892,1.9723,1.9723,1.9723,1.9723,1.9723,1.9723,1.9723,1.9723,1.9723,1.9723,1.9768,2.0034,2.0288,2.0303,2.0887,2.1545,2.2194,2.2523,2.2942,2.343,2.3595,2.3595,2.3595,2.3595,2.3595,2.3595,2.3595,2.3595,2.3595,2.3595,2.3595,2.3595,2.3595,2.3595,2.3595,2.3595,2.3595,2.3655,2.3977,2.4306,2.4612,2.528,2.6022,2.6925,2.7696,2.8342,2.9271,3.0102,3.0935,3.1171,3.119,3.119,0.9385,0.9629,0.8827,0.8646,0.8891,0.8838,0.8778,0.8778,0.8778,0.8778,0.8936,1.021,1.0813,1.0998,1.228,1.2915,1.2915,1.2915,1.2915,1.2915,1.2915,1.2915,1.2915,1.2915,1.3214,1.3745,1.3984,1.4676,1.5764,1.6272,1.6513,1.6513,1.6513,1.6513,1.6513,1.6513,1.6513,1.6513,1.6513,1.6513,1.6387,1.5731,1.5273,1.5124,1.4875,1.4815,1.4914,1.4846,1.4966,1.5338,1.5096,1.5208,1.5778,1.5269,1.5194,1.5659,1.5349,1.511,1.5123,1.6619,1.7519,1.7636,1.8885,1.9723,1.9723,1.9723,1.9723,1.9723,1.9723,1.9744,1.9856,1.9764,1.9822,2.0092,2.0531,2.0748,2.0976,2.1575,2.2164,2.2613,2.2853,2.3071,2.349,2.3595,2.3595,2.3595,2.3595,2.3595,2.3595,2.3595,2.3595,2.3595,2.3595,2.3595,2.3595,2.3595,2.3595,2.3659,2.3681,2.387,2.3956,2.4535,2.5288,2.587,2.6573,2.7256,2.8006,2.8645,2.9232,3.0208,3.0878,3.1171,3.119,3.119,3.119,1.0354,0.9997,0.9422,0.9162,0.9164,0.8904,0.8811,0.8778,0.8778,0.8778,0.8956,1.0218,1.0813,1.0914,1.228,1.2915,1.2915,1.2915,1.2915,1.2915,1.2915,1.2915,1.2915,1.2915,1.3248,1.3969,1.4437,1.5249,1.638,1.6466,1.6513,1.6513,1.6513,1.6513,1.6513,1.6513,1.6513,1.6513,1.6513,1.6513,1.65,1.6446,1.6111,1.5668,1.5174,1.5082,1.539,1.5443,1.5593,1.6036,1.5932,1.5838,1.5618,1.5829,1.6127,1.6329,1.5952,1.5655,1.5828,1.7123,1.8009,1.8174,1.9037,1.9723,1.9723,1.9723,1.9723,1.9723,1.9723,1.9836,2.0181,1.9992,2.0207,2.0988,2.0906,2.1105,2.1629,2.2274,2.2613,2.2808,2.3176,2.346,2.358,2.3595,2.3595,2.3595,2.3595,2.3595,2.3595,2.3595,2.3595,2.3595,2.3595,2.3595,2.3595,2.3595,2.3595,2.3797,2.4128,2.4466,2.4896,2.5416,2.633,2.7127,2.7746,2.8399,2.9128,2.9751,3.0293,3.0838,3.1015,3.119,3.119,3.119,3.1275,1.0419,1.007,0.9886,0.9564,0.9211,0.9098,0.8951,0.8785,0.8778,0.8778,0.9035,1.021,1.0814,1.0898,1.2276,1.2915,1.2915,1.2915,1.2915,1.2915,1.2915,1.3104,1.3467,1.3481,1.4003,1.4869,1.5162,1.5684,1.6402,1.6513,1.6513,1.6513,1.6513,1.6513,1.6513,1.6513,1.6513,1.6513,1.6513,1.6513,1.6513,1.6513,1.64,1.622,1.5693,1.5472,1.5631,1.5306,1.5297,1.5694,1.5498,1.5542,1.597,1.623,1.6389,1.6455,1.6312,1.6199,1.6338,1.737,1.8092,1.8171,1.908,1.9723,1.9723,1.9723,1.9723,1.9723,1.9723,1.9996,2.0515,2.0501,2.0627,2.1304,2.1755,2.2134,2.2691,2.3096,2.3287,2.3295,2.3511,2.358,2.3595,2.3595,2.3595,2.3595,2.3595,2.3595,2.3595,2.3595,2.3595,2.3595,2.3595,2.3595,2.3595,2.3595,2.3711,2.4179,2.4616,2.5212,2.5723,2.6836,2.7811,2.8045,2.8677,2.927,2.9897,3.0339,3.0918,3.1015,3.119,3.119,3.119,3.1292,3.1532,1.0479,1.0261,1.0154,0.9893,0.9491,0.9263,0.9104,0.8911,0.8825,0.8778,0.9061,1.0185,1.0805,1.1056,1.2276,1.2915,1.2915,1.2915,1.2915,1.2915,1.2915,1.3214,1.3697,1.3792,1.4423,1.5477,1.5798,1.6129,1.6445,1.6513,1.6513,1.6513,1.6513,1.6513,1.6513,1.6513,1.6513,1.6513,1.6513,1.6513,1.6513,1.6513,1.6513,1.645,1.6145,1.5957,1.5957,1.5593,1.5511,1.5756,1.5571,1.5709,1.6281,1.6443,1.6513,1.6513,1.65,1.6595,1.6837,1.7605,1.8185,1.838,1.9184,1.9723,1.9723,1.9723,1.9723,1.9738,2.0022,2.0427,2.0891,2.1201,2.1553,2.1993,2.2469,2.2908,2.3402,2.3543,2.3556,2.3565,2.358,2.3595,2.3595,2.3595,2.3595,2.3595,2.3595,2.3595,2.3595,2.3595,2.3595,2.3595,2.3595,2.3595,2.361,2.361,2.3931,2.4429,2.529,2.5923,2.6874,2.8086,2.8874,2.9075,2.9479,3.0039,3.0514,3.0918,3.1095,3.1171,3.119,3.119,3.1292,3.1481,3.1819,1.0586,1.0533,1.0247,1.0114,0.9943,0.9475,0.9216,0.9178,0.8924,0.8844,0.9029,1.0218,1.0789,1.1089,1.2267,1.2915,1.2915,1.2915,1.2915,1.2915,1.2944,1.3286,1.3862,1.398,1.4561,1.5688,1.6216,1.6479,1.6513,1.6513,1.6513,1.6513,1.6513,1.6513,1.6513,1.6513,1.6513,1.6513,1.6513,1.6513,1.6513,1.6513,1.6513,1.6513,1.645,1.6425,1.645,1.6425,1.6371,1.643,1.6409,1.6475,1.6489,1.6488,1.6513,1.6513,1.6513,1.6752,1.7229,1.7787,1.8322,1.8765,1.9387,1.9723,1.9723,1.9723,1.9723,1.9813,2.0378,2.0991,2.1276,2.1984,2.2682,2.3161,2.2975,2.3059,2.3492,2.3601,2.3595,2.3595,2.3595,2.3595,2.3595,2.3595,2.3595,2.3595,2.3595,2.3595,2.3595,2.3595,2.3595,2.3595,2.361,2.3646,2.3646,2.3706,2.4162,2.4707,2.5749,2.6627,2.7867,2.9041,2.977,3.0096,3.0257,3.0777,3.0777,3.1114,3.1134,3.119,3.119,3.1292,3.1565,3.1819,3.2242,1.0586,1.0579,1.0492,1.0301,1.0083,0.9884,0.971,0.9491,0.9204,0.9065,0.93,1.0303,1.0797,1.1118,1.226,1.2915,1.2915,1.2915,1.2915,1.2978,1.331,1.3802,1.4399,1.4846,1.5454,1.6151,1.6402,1.6513,1.6513,1.6513,1.6513,1.6513,1.6513,1.6513,1.6513,1.6513,1.6513,1.6513,1.6513,1.6513,1.6513,1.6513,1.6513,1.6513,1.6513,1.6513,1.6513,1.6513,1.6513,1.6513,1.6513,1.6513,1.6513,1.6513,1.6513,1.6513,1.6513,1.6731,1.7271,1.7821,1.8341,1.8874,1.9406,1.9672,1.9723,1.9723,1.9723,1.9783,2.0378,2.1231,2.2458,2.2673,2.2929,2.3319,2.3345,2.3495,2.3888,2.3794,2.3616,2.3595,2.3595,2.3595,2.3595,2.3595,2.361,2.3655,2.364,2.364,2.364,2.3744,2.3595,2.3595,2.3646,2.4111,2.4511,2.4992,2.554,2.6057,2.6877,2.7591,2.8772,2.9703,3.0466,3.0864,3.1061,3.1171,3.119,3.119,3.119,3.1224,3.1258,3.1495,3.187,3.2327,3.2818,1.0586,1.0586,1.0586,1.0486,1.0267,1.0143,1.0013,0.9813,0.9532,0.9467,0.9783,1.0574,1.1065,1.1381,1.24,1.2881,1.2915,1.2915,1.2915,1.2954,1.3238,1.3873,1.4721,1.5577,1.6095,1.6436,1.6513,1.6513,1.6513,1.6513,1.6513,1.6513,1.6513,1.6513,1.6513,1.6513,1.6513,1.6513,1.6513,1.6513,1.6513,1.6513,1.6513,1.6513,1.6513,1.6513,1.6513,1.6513,1.6513,1.6513,1.6513,1.6513,1.6513,1.6513,1.6513,1.6513,1.6565,1.6816,1.7504,1.7947,1.8458,1.9095,1.9497,1.969,1.9723,1.9723,1.9783,2.0217,2.0752,2.1754,2.3131,2.3281,2.32,2.3427,2.3543,2.3758,2.3991,2.3815,2.3616,2.3595,2.3595,2.3595,2.3595,2.3595,2.3729,2.3879,2.3984,2.4163,2.4238,2.4388,2.4313,2.4402,2.481,2.528,2.5753,2.6324,2.6931,2.757,2.8253,2.8829,2.9663,3.0356,3.1064,3.1027,3.1171,3.1171,3.119,3.119,3.119,3.1258,3.1343,3.1799,3.2259,3.3021,3.3643,1.0586,1.0586,1.0586,1.0586,1.0533,1.0267,1.016,1.0094,0.9793,0.9904,1.0382,1.0906,1.1396,1.1874,1.256,1.2915,1.2915,1.2915,1.2915,1.2915,1.3041,1.361,1.4858,1.581,1.6303,1.6479,1.6513,1.6513,1.6513,1.6513,1.6513,1.6513,1.6513,1.6513,1.6513,1.6513,1.6513,1.6513,1.6513,1.6513,1.6513,1.6513,1.6513,1.6513,1.6513,1.6513,1.6513,1.6513,1.6513,1.6513,1.6513,1.6513,1.6513,1.6513,1.6513,1.6534,1.6522,1.7118,1.7827,1.8171,1.8612,1.9493,1.9654,1.9723,1.9723,1.9738,2.0022,2.0786,2.1306,2.2173,2.3251,2.3535,2.3584,2.3651,2.3721,2.3773,2.373,2.3794,2.3837,2.3745,2.3674,2.3691,2.3796,2.3804,2.4126,2.4455,2.4649,2.4889,2.5181,2.5255,2.5495,2.5605,2.5636,2.6264,2.6679,2.739,2.8045,2.8993,2.9505,2.9838,3.0238,3.0807,3.119,3.119,3.119,3.119,3.119,3.119,3.119,3.1207,3.1529,3.207,3.275,3.3495,3.4389,1.0586,1.0586,1.0586,1.0586,1.0586,1.0499,1.0466,1.0405,0.9923,1.0122,1.0571,1.0825,1.1318,1.1859,1.2584,1.2915,1.2915,1.2915,1.2915,1.2915,1.2915,1.3849,1.5096,1.5666,1.6095,1.6445,1.6513,1.6513,1.6513,1.6513,1.6513,1.6513,1.6513,1.6513,1.6513,1.6513,1.6513,1.6513,1.6513,1.6513,1.6513,1.6513,1.6513,1.6513,1.6513,1.6513,1.6513,1.6513,1.6513,1.6513,1.6513,1.6513,1.6513,1.6513,1.6543,1.6637,1.6909,1.736,1.7993,1.8477,1.9001,1.9599,1.9723,1.9723,1.9723,1.9723,2.0142,2.0861,2.144,2.2218,2.3281,2.3595,2.3752,2.4101,2.4184,2.4323,2.4612,2.4772,2.4637,2.4318,2.4624,2.4618,2.4558,2.4702,2.5061,2.5247,2.5352,2.5442,2.5779,2.5839,2.5967,2.59,2.6047,2.6923,2.7683,2.8394,2.9226,3.0299,3.069,3.0653,3.0864,3.1044,3.119,3.119,3.119,3.119,3.1207,3.1207,3.1207,3.1402,3.2052,3.2757,3.3253,3.3931,3.497,1.0586,1.0586,1.0586,1.0586,1.0656,1.0958,1.085,1.0537,1.076,1.0825,1.1014,1.1325,1.1732,1.2284,1.272,1.2915,1.2915,1.2915,1.2915,1.2954,1.3176,1.4014,1.5073,1.5632,1.6173,1.6457,1.6513,1.6513,1.6513,1.6513,1.6513,1.6513,1.6513,1.6513,1.6513,1.6513,1.6513,1.6513,1.6513,1.6513,1.6513,1.6513,1.6513,1.6513,1.6513,1.6513,1.6513,1.6513,1.6513,1.6513,1.6513,1.6513,1.6513,1.6513,1.6689,1.7097,1.7291,1.7605,1.8308,1.8746,1.9132,1.9566,1.9723,1.9723,1.9723,1.9738,2.0097,2.119,2.1565,2.2323,2.3266,2.3595,2.397,2.4572,2.4736,2.4871,2.5182,2.5163,2.521,2.5201,2.529,2.5469,2.5332,2.556,2.5728,2.5929,2.6019,2.6213,2.6452,2.6402,2.6492,2.6647,2.7117,2.8075,2.8823,2.9498,2.9816,3.087,3.112,3.119,3.119,3.119,3.119,3.119,3.119,3.1224,3.1292,3.1523,3.1915,3.2298,3.2881,3.3622,3.4266,3.472,3.5734,1.0649,1.0744,1.0744,1.0713,1.0863,1.1562,1.1301,1.0625,1.1565,1.1881,1.1632,1.2018,1.234,1.2915,1.2847,1.2915,1.2915,1.2915,1.2915,1.3113,1.3539,1.4283,1.4812,1.5766,1.6272,1.6479,1.6513,1.6513,1.6513,1.6513,1.6513,1.6513,1.6513,1.6513,1.6513,1.6513,1.6513,1.6513,1.6513,1.6513,1.6513,1.6513,1.6513,1.6513,1.6513,1.6513,1.6513,1.6513,1.6513,1.6513,1.6513,1.6513,1.65,1.6522,1.7055,1.7787,1.7767,1.7993,1.8708,1.8949,1.9207,1.9621,1.9723,1.9723,1.9738,1.9828,2.0412,2.1515,2.1739,2.2458,2.3317,2.3638,2.4163,2.4894,2.5202,2.5297,2.5354,2.5354,2.5612,2.6242,2.592,2.6098,2.6289,2.6321,2.6167,2.6964,2.6968,2.7031,2.7212,2.7282,2.7561,2.795,2.8582,2.9364,3.003,3.062,3.0767,3.1173,3.1173,3.119,3.119,3.119,3.119,3.119,3.119,3.1326,3.1549,3.1905,3.242,3.3186,3.3795,3.481,3.5746,3.605,3.6781,1.0958,1.1531,1.1531,1.1555,1.1679,1.2351,1.2041,1.0989,1.1714,1.2117,1.2053,1.1976,1.2324,1.2915,1.2915,1.2915,1.2915,1.2915,1.2915,1.3065,1.4071,1.4491,1.4858,1.5555,1.6064,1.6392,1.6513,1.6513,1.6513,1.6513,1.6513,1.6513,1.6513,1.6513,1.6513,1.6513,1.6513,1.6513,1.6513,1.6513,1.6513,1.6513,1.6513,1.6513,1.6513,1.6513,1.6513,1.6513,1.6513,1.6513,1.6513,1.6513,1.6565,1.6866,1.7409,1.8033,1.8424,1.8631,1.893,1.9281,1.9566,1.9672,1.9723,1.9723,1.9768,2.0198,2.0812,2.1635,2.2179,2.2763,2.3537,2.4012,2.4516,2.5125,2.5577,2.5959,2.6279,2.6367,2.6555,2.689,2.728,2.7632,2.795,2.7897,2.7851,2.8057,2.8008,2.7939,2.8,2.8125,2.8439,2.8826,2.9203,2.9827,3.0393,3.0878,3.1055,3.119,3.119,3.119,3.119,3.119,3.119,3.119,3.119,3.141,3.1802,3.23,3.2832,3.3753,3.4753,3.5623,3.6413,3.6981,3.7451,1.1045,1.1803,1.1803,1.202,1.2451,1.3205,1.2746,1.1852,1.2552,1.2574,1.2176,1.2196,1.2544,1.2881,1.2915,1.2915,1.2915,1.2905,1.3065,1.3443,1.4294,1.4835,1.5242,1.5688,1.6238,1.65,1.6513,1.6513,1.6513,1.6513,1.6513,1.6513,1.6513,1.6513,1.6513,1.6513,1.6513,1.6513,1.6513,1.6513,1.6513,1.6513,1.6513,1.6513,1.6513,1.6513,1.6513,1.6513,1.6513,1.6513,1.65,1.65,1.6539,1.6818,1.7525,1.8641,1.8688,1.9014,1.9247,1.953,1.969,1.9723,1.9723,1.9899,2.0094,2.0543,2.1171,2.1934,2.2544,2.299,2.3857,2.4163,2.4716,2.543,2.5815,2.6324,2.6994,2.7215,2.745,2.7885,2.8351,2.8772,2.9065,2.9048,2.8925,2.8801,2.8801,2.8748,2.8748,2.888,2.9134,2.9451,2.9673,3.0102,3.0617,3.0975,3.1114,3.119,3.119,3.119,3.119,3.119,3.119,3.1241,3.1326,3.1785,3.2175,3.269,3.3573,3.4789,3.5768,3.6415,3.7059,3.7768,3.8101,1.1257,1.1989,1.2104,1.2573,1.3243,1.4016,1.3502,1.2387,1.3511,1.3202,1.2274,1.2666,1.2832,1.2915,1.2915,1.2929,1.3041,1.3113,1.3396,1.4003,1.4629,1.5118,1.5588,1.6095,1.6436,1.6513,1.6513,1.6513,1.6513,1.6513,1.6513,1.6513,1.6513,1.6513,1.6513,1.6513,1.6513,1.6513,1.6513,1.6513,1.6513,1.6513,1.6513,1.6513,1.6513,1.6513,1.6513,1.6513,1.6513,1.6522,1.6573,1.6573,1.6544,1.6822,1.7529,1.9512,1.9133,1.9167,1.9497,1.9672,1.9723,1.9723,1.9854,2.0109,2.0524,2.1021,2.1665,2.2248,2.2858,2.3302,2.423,2.4536,2.5031,2.5758,2.6097,2.6764,2.7515,2.7959,2.8533,2.8952,2.9231,2.953,2.9799,2.9903,2.9701,2.954,2.954,2.9518,2.9496,2.9563,2.9761,2.9848,3.0,3.0314,3.0838,3.1015,3.1171,3.121,3.121,3.1325,3.1356,3.1534,3.1585,3.1447,3.1599,3.213,3.288,3.369,3.4696,3.5928,3.6702,3.7219,3.7884,3.8575,3.8661,1.2081,1.2848,1.3537,1.3867,1.4115,1.4844,1.4222,1.3049,1.3719,1.3575,1.2817,1.2847,1.2915,1.2915,1.2915,1.3152,1.3467,1.3576,1.392,1.4549,1.5118,1.5521,1.5764,1.6238,1.65,1.6513,1.6513,1.6513,1.6513,1.6513,1.6513,1.6513,1.6513,1.6513,1.6513,1.6513,1.6513,1.6513,1.6513,1.6513,1.6513,1.6513,1.6513,1.6513,1.6513,1.6513,1.6513,1.6513,1.6513,1.6543,1.693,1.6866,1.6871,1.7365,1.8397,1.9314,1.9536,1.9515,1.9672,1.9723,1.9723,1.9828,2.0168,2.0494,2.0942,2.165,2.2298,2.2673,2.3194,2.3701,2.4318,2.4736,2.5332,2.6038,2.6832,2.7532,2.8025,2.8787,2.9567,2.9886,3.0027,3.0135,3.0366,3.0497,3.0293,3.0145,3.0145,2.9978,2.9827,2.9978,3.0208,3.023,3.0251,3.0621,3.1038,3.1095,3.119,3.123,3.1308,3.1589,3.1722,3.199,3.2052,3.2237,3.2439,3.2912,3.3719,3.4622,3.5698,3.6863,3.7468,3.7963,3.835,3.8707,3.8817,1.2504,1.3636,1.4025,1.4451,1.4844,1.5206,1.4686,1.3677,1.3934,1.3636,1.3076,1.2915,1.2915,1.2915,1.2915,1.3238,1.3684,1.3802,1.4329,1.505,1.5477,1.582,1.5996,1.6402,1.6479,1.6513,1.6513,1.6513,1.6513,1.6513,1.6513,1.6513,1.6513,1.6513,1.6513,1.6513,1.6513,1.6513,1.6513,1.6513,1.6513,1.6513,1.6513,1.6513,1.6513,1.6513,1.6513,1.6513,1.6513,1.6607,1.6993,1.725,1.7523,1.8029,1.885,1.9541,1.9723,1.9723,1.9723,1.9738,1.9839,2.0228,2.0569,2.1081,2.1635,2.2343,2.2838,2.3131,2.3338,2.3927,2.4736,2.5031,2.574,2.6741,2.7498,2.8109,2.8872,2.9649,3.0159,3.0548,3.0642,3.074,3.0895,3.0938,3.0818,3.076,3.074,3.0518,3.023,3.0377,3.0621,3.0658,3.0658,3.0801,3.1114,3.1134,3.119,3.123,3.1482,3.1783,3.2244,3.2608,3.3116,3.3522,3.3739,3.414,3.4627,3.5573,3.6679,3.7594,3.7823,3.81,3.8465,3.8744,3.8927,1.3014,1.4204,1.4392,1.4815,1.5352,1.542,1.498,1.4319,1.4116,1.3724,1.3071,1.2939,1.2915,1.2954,1.3113,1.342,1.398,1.4097,1.4835,1.5599,1.582,1.6095,1.6358,1.6513,1.6513,1.6513,1.6513,1.6513,1.6513,1.6513,1.6513,1.6513,1.6513,1.6513,1.6513,1.6513,1.6513,1.6513,1.6513,1.6513,1.6513,1.6513,1.6513,1.6513,1.6513,1.6513,1.6513,1.6513,1.6513,1.6637,1.7013,1.7504,1.8052,1.8568,1.9095,1.9584,1.969,1.9723,1.9738,1.9947,2.0183,2.0539,2.0961,2.1695,2.2313,2.2763,2.3086,2.349,2.3616,2.3943,2.4712,2.5109,2.5994,2.7161,2.7869,2.8483,2.9516,3.026,3.0598,3.092,3.114,3.119,3.1171,3.1171,3.1015,3.0995,3.0975,3.0995,3.074,3.0858,3.1015,3.1055,3.1075,3.1075,3.1171,3.1171,3.119,3.121,3.1672,3.2124,3.2729,3.3329,3.3943,3.4674,3.5508,3.5926,3.624,3.644,3.731,3.791,3.8013,3.8234,3.8562,3.9001,3.9313,1.4025,1.4273,1.4962,1.5323,1.5381,1.542,1.5156,1.4678,1.428,1.3856,1.3361,1.3056,1.2935,1.3002,1.3467,1.399,1.4537,1.505,1.5565,1.6207,1.6315,1.6358,1.6479,1.6513,1.6513,1.6513,1.6513,1.6513,1.6414,1.6414,1.6457,1.6436,1.6414,1.65,1.65,1.6513,1.6513,1.6513,1.6513,1.6513,1.6513,1.6513,1.6513,1.6513,1.6513,1.6513,1.6513,1.6513,1.6513,1.6573,1.7013,1.7544,1.8051,1.8417,1.9013,1.948,1.9723,1.9723,1.9872,2.0273,2.0677,2.1111,2.1714,2.2403,2.2823,2.3161,2.3445,2.355,2.3595,2.3879,2.4527,2.4942,2.5872,2.7085,2.8228,2.9033,3.0021,3.0581,3.0954,3.1038,3.1173,3.119,3.119,3.119,3.1171,3.119,3.119,3.119,3.119,3.119,3.119,3.119,3.1332,3.137,3.1523,3.1487,3.1584,3.1477,3.2056,3.2681,3.3524,3.4345,3.5092,3.5861,3.6719,3.7184,3.7093,3.7357,3.7973,3.8251,3.835,3.8481,3.8643,3.9111,3.9643,1.4874,1.4932,1.5255,1.542,1.542,1.542,1.5176,1.4833,1.459,1.4122,1.3554,1.3326,1.3115,1.3066,1.3529,1.412,1.4721,1.5354,1.592,1.6414,1.6513,1.6513,1.6513,1.6513,1.6513,1.6513,1.6457,1.6238,1.6151,1.5986,1.5996,1.603,1.6051,1.6194,1.6457,1.6513,1.6513,1.6513,1.6513,1.6513,1.6513,1.6513,1.6513,1.6513,1.6513,1.6513,1.6513,1.6513,1.6513,1.6595,1.7013,1.7188,1.7618,1.8492,1.9762,2.0763,2.0861,2.0677,2.0453,2.0932,2.135,2.1769,2.2388,2.2793,2.3152,2.34,2.3595,2.3595,2.3595,2.3873,2.4405,2.4947,2.6182,2.7382,2.8612,2.9578,3.0388,3.0765,3.1157,3.1173,3.119,3.119,3.119,3.119,3.119,3.119,3.119,3.119,3.119,3.119,3.119,3.119,3.1391,3.1584,3.1862,3.2017,3.2374,3.2473,3.3005,3.3706,3.4646,3.545,3.6056,3.6738,3.7485,3.7794,3.7808,3.8036,3.8378,3.8546,3.8692,3.8762,3.8872,3.946,4.012,1.542,1.542,1.542,1.542,1.542,1.542,1.5244,1.4961,1.4814,1.4356,1.3734,1.3435,1.3145,1.3173,1.3671,1.4329,1.4721,1.5488,1.603,1.638,1.6513,1.6513,1.6513,1.6513,1.6513,1.6513,1.6513,1.6086,1.5555,1.5387,1.5454,1.5588,1.5698,1.5974,1.6358,1.6513,1.6513,1.6513,1.6513,1.6513,1.6513,1.6513,1.6513,1.6513,1.6513,1.6513,1.6513,1.6513,1.6513,1.686,1.7315,1.7545,1.7713,1.894,2.0429,2.1451,2.1904,2.1829,2.153,2.1665,2.2179,2.2553,2.2912,2.3167,2.3445,2.3595,2.3595,2.3595,2.4017,2.4276,2.4715,2.5378,2.6748,2.7984,2.9081,3.0068,3.0873,3.1067,3.119,3.119,3.119,3.119,3.119,3.119,3.119,3.119,3.119,3.119,3.1241,3.1275,3.1444,3.1512,3.1754,3.2055,3.2434,3.272,3.3038,3.3335,3.3867,3.4441,3.5205,3.6019,3.6719,3.7451,3.8132,3.8293,3.824,3.8483,3.8707,3.8707,3.8744,3.8891,3.9166,3.9808,4.0744,1.542,1.542,1.5381,1.542,1.542,1.542,1.5391,1.5283,1.4951,1.4536,1.3949,1.3332,1.2974,1.3224,1.4014,1.4606,1.4789,1.591,1.6337,1.6479,1.6513,1.6513,1.6513,1.6513,1.6513,1.6513,1.6479,1.5866,1.5119,1.5085,1.5231,1.5499,1.5477,1.593,1.6303,1.6513,1.6513,1.6513,1.6513,1.6513,1.6513,1.6513,1.6525,1.655,1.6525,1.6513,1.6525,1.6663,1.6961,1.7422,1.7913,1.8567,1.8865,1.9712,2.0991,2.212,2.2862,2.2742,2.2443,2.2403,2.2598,2.2853,2.3137,2.343,2.358,2.3595,2.3595,2.3784,2.4503,2.5086,2.5629,2.6407,2.7599,2.856,2.948,3.0238,3.087,3.1083,3.119,3.119,3.119,3.119,3.119,3.119,3.119,3.119,3.1224,3.1241,3.141,3.1532,3.1836,3.2022,3.2252,3.2638,3.3192,3.3502,3.3762,3.3962,3.4343,3.4849,3.5429,3.6274,3.7147,3.7784,3.835,3.8546,3.8658,3.8692,3.8707,3.8707,3.8854,3.9294,4.0029,4.0855,4.1809,1.4658,1.4717,1.5206,1.542,1.542,1.542,1.542,1.5391,1.5234,1.4749,1.4038,1.332,1.3113,1.361,1.4247,1.4926,1.5332,1.6073,1.6414,1.6513,1.6513,1.6513,1.6513,1.6513,1.6513,1.6513,1.6457,1.6139,1.5387,1.5186,1.532,1.5477,1.5298,1.5732,1.6163,1.6513,1.6513,1.6513,1.6513,1.6513,1.6513,1.6538,1.6685,1.7036,1.7071,1.725,1.7478,1.7528,1.7905,1.8335,1.8711,1.9393,2.0199,2.0834,2.1754,2.2807,2.343,2.334,2.3176,2.3146,2.3236,2.3287,2.346,2.3595,2.3595,2.3595,2.3595,2.4125,2.5383,2.6216,2.5738,2.6908,2.8289,2.9132,2.9886,3.0546,3.0906,3.112,3.119,3.119,3.119,3.119,3.119,3.119,3.119,3.119,3.1241,3.1379,3.1684,3.1972,3.2307,3.274,3.3005,3.3298,3.386,3.4165,3.4456,3.4635,3.481,3.5373,3.5919,3.6499,3.7325,3.7981,3.8499,3.8666,3.8747,3.871,3.8762,3.8872,3.9405,4.0047,4.091,4.1827,4.258,1.389,1.3977,1.4706,1.5195,1.5391,1.542,1.542,1.542,1.541,1.4903,1.4082,1.3462,1.3372,1.3909,1.4641,1.5141,1.5644,1.6173,1.6436,1.6513,1.6513,1.6513,1.6513,1.6513,1.6513,1.6513,1.6457,1.6173,1.5565,1.5588,1.5588,1.5454,1.5287,1.5744,1.625,1.6513,1.6513,1.6513,1.6513,1.666,1.6716,1.6829,1.7248,1.7717,1.7774,1.8116,1.8438,1.8627,1.8862,1.944,2.0002,2.0601,2.1418,2.2185,2.2803,2.3286,2.3595,2.3595,2.3595,2.3595,2.3595,2.3535,2.355,2.3595,2.3595,2.361,2.3655,2.4168,2.5941,2.7093,2.6293,2.7967,2.9202,3.0092,3.0359,3.0911,3.1027,3.119,3.119,3.119,3.119,3.1207,3.1376,3.1461,3.1732,3.1732,3.1752,3.2022,3.2476,3.2747,3.3,3.3439,3.3866,3.4182,3.4531,3.4763,3.4998,3.5074,3.5368,3.598,3.6544,3.702,3.756,3.8269,3.8664,3.8802,3.9019,3.9239,3.9203,3.9129,3.9974,4.102,4.1515,4.2341,4.28,1.315,1.3195,1.3894,1.463,1.5303,1.54,1.5381,1.5332,1.5351,1.4891,1.4169,1.3832,1.3802,1.4109,1.4983,1.5521,1.5786,1.6259,1.6513,1.6513,1.6513,1.6513,1.6513,1.6513,1.6513,1.6513,1.6457,1.6216,1.5676,1.5776,1.572,1.5698,1.571,1.5876,1.6457,1.6513,1.6513,1.6513,1.6513,1.6893,1.7177,1.7357,1.8071,1.8591,1.8714,1.9058,1.9678,1.9627,1.9961,2.0735,2.1276,2.1856,2.2518,2.3046,2.3419,2.3543,2.3595,2.3595,2.3595,2.3595,2.3595,2.3595,2.3595,2.3595,2.3595,2.364,2.3864,2.4387,2.6395,2.7678,2.8362,2.9279,3.0165,3.0662,3.0914,3.1035,3.1151,3.119,3.119,3.119,3.119,3.1241,3.1495,3.1802,3.2242,3.2378,3.2327,3.2649,3.3203,3.3491,3.3711,3.4159,3.4623,3.4763,3.5049,3.5326,3.5526,3.5594,3.5825,3.634,3.6825,3.721,3.7808,3.853,3.8946,3.9184,3.9551,3.99,4.0065,4.0377,4.1203,4.2047,4.247,4.2831,4.3264,1.2548,1.3032,1.3782,1.427,1.4572,1.4883,1.499,1.5026,1.5074,1.4801,1.4284,1.4275,1.4399,1.4664,1.5186,1.5808,1.6194,1.6281,1.6513,1.6513,1.6513,1.6513,1.6525,1.6563,1.6563,1.6513,1.6479,1.6495,1.6216,1.6151,1.6173,1.6194,1.6129,1.6315,1.6457,1.6513,1.6513,1.6588,1.6864,1.7237,1.7488,1.8134,1.8881,1.9675,1.9821,2.0324,2.1065,2.0822,2.1172,2.1889,2.238,2.2673,2.3128,2.3573,2.3595,2.3616,2.3616,2.3595,2.3595,2.3595,2.3595,2.3616,2.3655,2.367,2.361,2.3595,2.3962,2.5077,2.7158,2.8253,2.863,2.9975,3.0816,3.0979,3.1131,3.1151,3.119,3.119,3.119,3.119,3.119,3.1613,3.1955,3.2527,3.3004,3.3292,3.3288,3.3491,3.3998,3.4184,3.437,3.4873,3.5272,3.5368,3.5515,3.5583,3.5689,3.5744,3.602,3.6484,3.6943,3.7468,3.8038,3.8761,3.919,3.9606,4.0157,4.0726,4.1313,4.1846,4.2304,4.2671,4.3001,4.333,4.3698,1.2113,1.2608,1.338,1.3675,1.3773,1.4316,1.4561,1.4592,1.4762,1.4589,1.4379,1.4752,1.5005,1.5186,1.5644,1.603,1.65,1.6513,1.6513,1.6513,1.6513,1.6651,1.6751,1.6814,1.7061,1.6961,1.6873,1.6814,1.6782,1.6588,1.6491,1.6457,1.6513,1.6479,1.6513,1.6513,1.6649,1.6856,1.7223,1.7601,1.8134,1.8876,1.9774,2.0479,2.1,2.1527,2.2038,2.2271,2.2331,2.2793,2.3054,2.3165,2.3486,2.3595,2.3681,2.3794,2.4059,2.4032,2.397,2.3921,2.3964,2.3943,2.3926,2.3939,2.3864,2.3759,2.4618,2.5953,2.8084,2.8846,2.9329,3.0714,3.1044,3.119,3.119,3.119,3.119,3.119,3.1224,3.1224,3.1664,3.2107,3.2598,3.3254,3.3863,3.41,3.4303,3.4523,3.4709,3.481,3.4895,3.5261,3.5588,3.5571,3.5571,3.5583,3.5711,3.5854,3.6322,3.6869,3.7425,3.7989,3.8475,3.904,3.9761,4.0432,4.1001,4.157,4.2194,4.2543,4.2763,4.3129,4.346,4.3742,4.4046,1.1823,1.1947,1.2618,1.2954,1.3071,1.375,1.4055,1.4128,1.4353,1.4397,1.4454,1.52,1.5477,1.5654,1.6194,1.6445,1.6479,1.6513,1.6513,1.6563,1.6626,1.6923,1.72,1.7363,1.7564,1.7765,1.7689,1.7325,1.7313,1.6773,1.6513,1.66,1.6676,1.6773,1.6798,1.6873,1.6992,1.7224,1.7651,1.8183,1.889,1.9874,2.0758,2.1434,2.189,2.2446,2.2868,2.2995,2.3084,2.3319,2.353,2.3551,2.3595,2.3595,2.3943,2.4471,2.5012,2.4716,2.4532,2.4446,2.457,2.4668,2.4795,2.4716,2.4574,2.4428,2.5227,2.6825,2.8824,2.9507,3.0272,3.0703,3.1154,3.119,3.119,3.119,3.119,3.1224,3.1275,3.1562,3.2242,3.2784,3.3372,3.4032,3.4539,3.4709,3.4895,3.5081,3.5233,3.5284,3.5346,3.538,3.5622,3.5627,3.5667,3.58,3.6075,3.6354,3.6888,3.7411,3.7971,3.8667,3.9354,4.0024,4.0641,4.1279,4.1937,4.2525,4.3112,4.3332,4.3203,4.3259,4.3515,4.3915,4.4175,1.2104,1.2608,1.2798,1.2915,1.2944,1.3169,1.3564,1.4076,1.4332,1.4401,1.4444,1.5234,1.561,1.5654,1.6216,1.6457,1.6513,1.6513,1.6513,1.6613,1.6886,1.7174,1.7476,1.7777,1.8028,1.8129,1.8041,1.7802,1.7363,1.6848,1.6861,1.7096,1.7124,1.7313,1.7526,1.7679,1.76,1.7755,1.8254,1.8939,1.9906,2.0984,2.1792,2.2266,2.2711,2.3194,2.3341,2.3421,2.3465,2.353,2.3595,2.3595,2.3595,2.3666,2.4059,2.5748,2.5638,2.5105,2.5008,2.4989,2.5211,2.5767,2.6136,2.6146,2.5868,2.579,2.6211,2.7933,2.949,3.0319,3.0539,3.0838,3.1151,3.119,3.119,3.119,3.1224,3.136,3.1478,3.2344,3.2987,3.3575,3.4184,3.4675,3.5109,3.5278,3.5414,3.5549,3.5616,3.5616,3.5616,3.5616,3.5644,3.5672,3.6023,3.6233,3.6539,3.6898,3.7558,3.8216,3.8869,3.9598,4.0326,4.0972,4.1572,4.2268,4.2965,4.3387,4.3496,4.3496,4.3422,4.346,4.358,4.4035,4.4387,1.2501,1.2881,1.2915,1.2915,1.3002,1.3406,1.3693,1.3729,1.4008,1.4271,1.4585,1.5268,1.572,1.603,1.6358,1.6513,1.6513,1.6513,1.6513,1.6638,1.7149,1.7476,1.779,1.8242,1.8632,1.8694,1.8593,1.8368,1.789,1.7513,1.7451,1.7652,1.7714,1.7903,1.8066,1.8089,1.8308,1.864,1.9133,1.9752,2.0735,2.1835,2.2435,2.2844,2.3312,2.353,2.3595,2.3595,2.3595,2.3595,2.3595,2.3595,2.373,2.3991,2.48,2.6246,2.6229,2.5977,2.5986,2.5991,2.6399,2.6927,2.7485,2.7749,2.7766,2.7737,2.8211,2.9184,3.0249,3.1075,3.0995,3.0938,3.1075,3.119,3.119,3.119,3.1326,3.1515,3.2226,3.3123,3.3816,3.4404,3.4945,3.5363,3.5583,3.5532,3.5515,3.5549,3.5616,3.5616,3.5616,3.5616,3.5667,3.5739,3.6229,3.6885,3.7363,3.794,3.8776,3.9428,3.9944,4.0625,4.1451,4.1996,4.2488,4.3002,4.3369,4.3423,4.3513,4.3563,4.371,4.3836,4.3989,4.4266,4.458,1.2915,1.2905,1.2954,1.3017,1.3138,1.4154,1.408,1.3162,1.3736,1.4148,1.467,1.53,1.5862,1.6167,1.6411,1.65,1.6513,1.6513,1.6513,1.6563,1.7287,1.7739,1.8179,1.8781,1.9158,1.9409,1.9334,1.892,1.8795,1.8318,1.7965,1.8242,1.8267,1.8405,1.8568,1.8581,1.8873,1.9439,1.9984,2.056,2.1225,2.2081,2.2785,2.2897,2.3253,2.3595,2.3595,2.3595,2.3595,2.3595,2.3595,2.3595,2.3864,2.4536,2.5582,2.6397,2.6656,2.6852,2.6984,2.7108,2.7637,2.8112,2.849,2.9021,2.9214,2.892,2.9182,2.9875,3.0888,3.1151,3.1075,3.1055,3.1151,3.119,3.119,3.136,3.163,3.2141,3.3102,3.3897,3.4404,3.4979,3.525,3.56,3.56,3.56,3.5616,3.5616,3.5639,3.5639,3.5807,3.579,3.5888,3.6182,3.7068,3.7713,3.8336,3.9047,3.9932,4.0508,4.0968,4.1745,4.2599,4.2855,4.302,4.3204,4.3478,4.3563,4.3693,4.3833,4.4001,4.4233,4.4428,4.4631,4.4732,1.2915,1.2954,1.3396,1.3566,1.3661,1.4387,1.4571,1.4271,1.441,1.4295,1.425,1.5073,1.5692,1.5957,1.6364,1.6513,1.6513,1.6513,1.6513,1.6851,1.7451,1.7928,1.838,1.9083,1.9585,1.971,1.961,1.9371,1.9045,1.8619,1.8468,1.877,1.8807,1.8907,1.9233,1.9258,1.9547,2.0038,2.0753,2.1384,2.2112,2.2768,2.3399,2.3399,2.3595,2.3595,2.3595,2.3595,2.3595,2.3595,2.3595,2.3595,2.3638,2.4637,2.5638,2.6554,2.7164,2.7466,2.7817,2.8181,2.8802,2.9326,2.9747,3.0216,3.0282,2.9762,2.9827,3.0617,3.1072,3.1151,3.119,3.119,3.119,3.119,3.1292,3.163,3.2005,3.2983,3.3981,3.4523,3.5013,3.5301,3.5532,3.5616,3.5616,3.5616,3.5616,3.5639,3.5695,3.5757,3.6242,3.629,3.6272,3.6672,3.7733,3.8702,3.9407,4.0239,4.1173,4.1638,4.1976,4.2525,4.3075,4.3259,4.3424,4.3531,4.3612,4.3772,4.3909,4.4132,4.4332,4.4574,4.4793,4.4977,4.5011,1.2915,1.3027,1.3836,1.405,1.398,1.471,1.4971,1.4732,1.4709,1.4516,1.4347,1.515,1.5726,1.5945,1.6364,1.6513,1.6513,1.6513,1.6513,1.6839,1.7564,1.8028,1.8619,1.9284,1.961,1.9798,1.9786,1.9585,1.9271,1.9171,1.9171,1.9321,1.9371,1.9484,1.9798,1.9837,1.9964,2.0297,2.1226,2.1978,2.268,2.3223,2.3551,2.3595,2.3595,2.3595,2.3595,2.3595,2.3595,2.3595,2.3595,2.3595,2.3837,2.4617,2.5638,2.6568,2.7334,2.7959,2.8433,2.9059,2.9786,3.0277,3.0581,3.0898,3.0912,3.0456,3.0456,3.1112,3.1131,3.119,3.119,3.119,3.119,3.119,3.1715,3.2242,3.2936,3.3829,3.4573,3.5059,3.5363,3.5453,3.5616,3.5616,3.5616,3.5616,3.5616,3.574,3.5796,3.6336,3.6728,3.7134,3.7289,3.7897,3.9062,3.9914,4.0601,4.1482,4.2286,4.2561,4.2782,4.313,4.3479,4.3496,4.3548,4.3631,4.3726,4.394,4.4304,4.4587,4.4757,4.4931,4.5118,4.5292,4.5283,1.2915,1.3065,1.4188,1.4399,1.4109,1.5118,1.5298,1.488,1.4721,1.4767,1.4869,1.5352,1.5918,1.6235,1.6513,1.6513,1.6513,1.6513,1.6513,1.6939,1.7716,1.8193,1.8731,1.9296,1.9635,1.9798,1.9798,1.9786,1.9685,1.961,1.9597,1.9773,1.9798,1.9798,1.9798,1.9849,2.0003,2.0501,2.1209,2.1935,2.2609,2.3246,2.3501,2.3595,2.3595,2.3595,2.3595,2.3595,2.3595,2.3595,2.3595,2.3595,2.3921,2.4648,2.6031,2.6988,2.7807,2.8467,2.9076,2.982,3.0463,3.0954,3.114,3.119,3.1207,3.1171,3.1171,3.1171,3.119,3.119,3.119,3.1224,3.1224,3.1596,3.2276,3.2936,3.3783,3.4556,3.5064,3.5532,3.5566,3.56,3.5622,3.5622,3.5751,3.5728,3.5835,3.5897,3.6239,3.7228,3.7916,3.8485,3.8943,3.9651,4.051,4.0943,4.1539,4.2208,4.2873,4.324,4.3479,4.3479,4.3496,4.3513,4.3563,4.3726,4.3943,4.4175,4.4561,4.4954,4.5118,4.5232,4.5332,4.5457,4.5522,1.2915,1.3017,1.4201,1.4617,1.4629,1.5298,1.5509,1.5365,1.4937,1.4971,1.5355,1.5487,1.5714,1.5831,1.633,1.65,1.6513,1.6513,1.6886,1.7325,1.7877,1.8356,1.8882,1.9422,1.971,1.9798,1.9798,1.9798,1.9798,1.9798,1.9824,1.9875,1.985,1.985,1.9824,1.9914,2.0118,2.0575,2.1231,2.1988,2.2244,2.2838,2.3465,2.3595,2.3595,2.3595,2.3595,2.3595,2.3595,2.3595,2.3595,2.3595,2.3964,2.4726,2.6178,2.7693,2.8484,2.8975,2.9668,3.0395,3.1004,3.1106,3.119,3.119,3.119,3.119,3.119,3.119,3.119,3.119,3.1207,3.1309,3.1413,3.2361,3.3156,3.3749,3.446,3.4979,3.543,3.5583,3.56,3.5667,3.5717,3.591,3.6272,3.641,3.6853,3.7007,3.7596,3.8356,3.915,3.9749,4.0389,4.1144,4.1807,4.1825,4.2313,4.2948,4.3331,4.3441,4.3479,4.3479,4.3496,4.3614,4.374,4.3924,4.4161,4.4482,4.4762,4.5129,4.539,4.5541,4.5586,4.5594,4.5594]}]]